[[{"header":{"parameterUnit":"m.s-1","parameterCategory":1,"la1":30.6,"la2":28.766,"lo1":-90.7593,"lo2":-88.6598,"dx":0.0162,"dy":0.0183,"nx":116,"ny":114,"refTime":"2022-12-19T06:00:00:Z","depth":0,"parameterNumber":2,"parameterNumberName":"U-component_of_WINDS"},"data":[0.0,0.0,0.0,0.0,0.0,0.0,0.0,0.0,0.0,0.0,0.0,0.0,0.0,0.0,0.0,0.0,0.0,0.0,0.0,0.0,0.0,0.0,0.0,0.0,0.0,0.0,0.0,0.0,0.0,0.0,0.0,0.0,0.0,0.0,0.0,0.0,0.0,0.0,0.0,0.0,0.0,0.0,0.0,0.0,0.0,0.0,0.0,0.0,0.0,0.0,0.0,0.0,0.0,0.0,0.0,0.0,0.0,0.0,0.0,0.0,0.0,0.0,0.0,0.0,0.0,0.0,0.0,0.0,0.0,0.0,0.0,0.0,0.0,0.0,0.0,0.0,0.0,0.0,0.0,0.0,0.0,0.0,0.0,0.0,0.0,0.0,0.0,0.0,0.0,0.0,0.0,0.0,0.0,0.0,0.0,0.0,0.0,0.0,0.0,0.0,0.0,0.0,0.0,0.0,0.0,0.0,0.0,0.0,0.0,0.0,0.0,0.0,0.0,0.0,0.0,0.0,0.0,0.0,0.0,0.0,0.0,0.0,0.0,0.0,0.0,0.0,0.0,0.0,0.0,0.0,0.0,0.0,0.0,0.0,0.0,0.0,0.0,0.0,0.0,0.0,0.0,0.0,0.0,0.0,0.0,0.0,0.0,0.0,0.0,0.0,0.0,0.0,0.0,0.0,0.0,0.0,0.0,0.0,0.0,0.0,0.0,0.0,0.0,0.0,0.0,0.0,0.0,0.0,0.0,0.0,0.0,0.0,0.0,0.0,0.0,0.0,0.0,0.0,0.0,0.0,0.0,0.0,0.0,0.0,0.0,0.0,0.0,0.0,0.0,0.0,0.0,0.0,0.0,0.0,0.0,0.0,0.0,0.0,0.0,0.0,0.0,0.0,0.0,0.0,0.0,0.0,0.0,0.0,0.0,0.0,0.0,0.0,0.0,0.0,0.0,0.0,0.0,0.0,0.0,0.0,0.0,0.0,0.0,0.0,0.0,0.0,0.0,0.0,0.0,0.0,0.0,0.0,0.0,0.0,0.0,0.0,0.0,0.0,0.0,0.0,0.0,0.0,0.0,0.0,0.0,0.0,0.0,0.0,0.0,0.0,0.0,0.0,0.0,0.0,0.0,0.0,0.0,0.0,0.0,0.0,0.0,0.0,0.0,0.0,0.0,0.0,0.0,0.0,0.0,0.0,0.0,0.0,0.0,0.0,0.0,0.0,0.0,0.0,0.0,0.0,0.0,0.0,0.0,0.0,0.0,0.0,0.0,0.0,0.0,0.0,0.0,0.0,0.0,0.0,0.0,0.0,0.0,0.0,0.0,0.0,0.0,0.0,0.0,0.0,0.0,0.0,0.0,0.0,0.0,0.0,0.0,0.0,0.0,0.0,0.0,0.0,0.0,0.0,0.0,0.0,0.0,0.0,0.0,0.0,0.0,0.0,0.0,0.0,0.0,0.0,0.0,0.0,0.0,0.0,0.0,0.0,0.0,0.0,0.0,0.0,0.0,0.0,0.0,0.0,0.0,0.0,0.0,0.0,0.0,0.0,0.0,0.0,0.0,0.0,0.0,0.0,0.0,0.0,0.0,0.0,0.0,0.0,0.0,0.0,0.0,0.0,0.0,0.0,0.0,0.0,0.0,0.0,0.0,0.0,0.0,0.0,0.0,0.0,0.0,0.0,0.0,0.0,0.0,0.0,0.0,0.0,0.0,0.0,0.0,0.0,0.0,0.0,0.0,0.0,0.0,0.0,0.0,0.0,0.0,0.0,0.0,0.0,0.0,0.0,0.0,0.0,0.0,0.0,0.0,0.0,0.0,0.0,0.0,0.0,0.0,0.0,0.0,0.0,0.0,0.0,0.0,0.0,0.0,0.0,0.0,0.0,0.0,0.0,0.0,0.0,0.0,0.0,0.0,0.0,0.0,0.0,0.0,0.0,0.0,0.0,0.0,0.0,0.0,0.0,0.0,0.0,0.0,0.0,0.0,0.0,0.0,0.0,0.0,0.0,0.0,0.0,0.0,0.0,0.0,0.0,0.0,0.0,0.0,0.0,0.0,0.0,0.0,0.0,0.0,0.0,0.0,0.0,0.0,0.0,0.0,0.0,0.0,0.0,0.0,0.0,0.0,0.0,0.0,0.0,0.0,0.0,0.0,0.0,0.0,0.0,0.0,0.0,0.0,0.0,0.0,0.0,0.0,0.0,0.0,0.0,0.0,0.0,0.0,0.0,0.0,0.0,0.0,0.0,0.0,0.0,0.0,0.0,0.0,0.0,0.0,0.0,0.0,0.0,0.0,0.0,0.0,0.0,0.0,0.0,0.0,0.0,0.0,0.0,0.0,0.0,0.0,0.0,0.0,0.0,0.0,0.0,0.0,0.0,0.0,0.0,0.0,0.0,0.0,0.0,0.0,0.0,0.0,0.0,0.0,0.0,0.0,0.0,0.0,0.0,0.0,0.0,0.0,0.0,0.0,0.0,0.0,0.0,0.0,0.0,0.0,0.0,0.0,0.0,0.0,0.0,0.0,0.0,0.0,0.0,0.0,0.0,0.0,0.0,0.0,0.0,0.0,0.0,0.0,0.0,0.0,0.0,0.0,0.0,0.0,0.0,0.0,0.0,0.0,0.0,0.0,0.0,0.0,0.0,0.0,0.0,0.0,0.0,0.0,0.0,0.0,0.0,0.0,0.0,0.0,0.0,0.0,0.0,0.0,0.0,0.0,0.0,0.0,0.0,0.0,0.0,0.0,0.0,0.0,0.0,0.0,0.0,0.0,0.0,0.0,0.0,0.0,0.0,0.0,0.0,0.0,0.0,0.0,0.0,0.0,0.0,0.0,0.0,0.0,0.0,0.0,0.0,0.0,0.0,0.0,0.0,0.0,0.0,0.0,0.0,0.0,0.0,0.0,0.0,0.0,0.0,0.0,0.0,0.0,0.0,0.0,0.0,0.0,0.0,0.0,0.0,0.0,0.0,0.0,0.0,0.0,0.0,0.0,0.0,0.0,0.0,0.0,0.0,0.0,0.0,0.0,0.0,0.0,0.0,0.0,0.0,0.0,0.0,0.0,0.0,0.0,0.0,0.0,0.0,0.0,0.0,0.0,0.0,0.0,0.0,0.0,0.0,0.0,0.0,0.0,0.0,0.0,0.0,0.0,0.0,0.0,0.0,0.0,0.0,0.0,0.0,0.0,0.0,0.0,0.0,0.0,0.0,0.0,0.0,0.0,0.0,0.0,0.0,0.0,0.0,0.0,0.0,0.0,0.0,0.0,0.0,0.0,0.0,0.0,0.0,0.0,0.0,0.0,0.0,0.0,0.0,0.0,0.0,0.0,0.0,0.0,0.0,0.0,0.0,0.0,0.0,0.0,0.0,0.0,0.0,0.0,0.0,0.0,0.0,0.0,0.0,0.0,0.0,0.0,0.0,0.0,0.0,0.0,0.0,0.0,0.0,0.0,0.0,0.0,0.0,0.0,0.0,0.0,0.0,0.0,0.0,0.0,0.0,0.0,0.0,0.0,0.0,0.0,0.0,0.0,0.0,0.0,0.0,0.0,0.0,0.0,0.0,0.0,0.0,0.0,0.0,0.0,0.0,0.0,0.0,0.0,0.0,0.0,0.0,0.0,0.0,0.0,0.0,0.0,0.0,0.0,0.0,0.0,0.0,0.0,0.0,0.0,0.0,0.0,0.0,0.0,0.0,0.0,0.0,0.0,0.0,0.0,0.0,0.0,0.0,0.0,0.0,0.0,0.0,0.0,0.0,0.0,0.0,0.0,0.0,0.0,0.0,0.0,0.0,0.0,0.0,0.0,0.0,0.0,0.0,0.0,0.0,0.0,0.0,0.0,0.0,0.0,0.0,0.0,0.0,0.0,0.0,0.0,0.0,0.0,0.0,0.0,0.0,0.0,0.0,0.0,0.0,0.0,0.0,0.0,0.0,0.0,0.0,0.0,0.0,0.0,0.0,0.0,0.0,0.0,0.0,0.0,0.0,0.0,0.0,0.0,0.0,0.0,0.0,0.0,0.0,0.0,0.0,0.0,0.0,0.0,0.0,0.0,0.0,0.0,0.0,0.0,0.0,0.0,0.0,0.0,0.0,0.0,0.0,0.0,0.0,0.0,0.0,0.0,0.0,0.0,0.0,0.0,0.0,0.0,0.0,0.0,0.0,0.0,0.0,0.0,0.0,0.0,0.0,0.0,0.0,0.0,0.0,0.0,0.0,0.0,0.0,0.0,0.0,0.0,0.0,0.0,0.0,0.0,0.0,0.0,0.0,0.0,0.0,0.0,0.0,0.0,0.0,0.0,0.0,0.0,0.0,0.0,0.0,0.0,0.0,0.0,0.0,0.0,0.0,0.0,0.0,0.0,0.0,0.0,0.0,0.0,0.0,0.0,0.0,0.0,0.0,0.0,0.0,0.0,0.0,0.0,0.0,0.0,0.0,0.0,0.0,0.0,0.0,0.0,0.0,0.0,0.0,0.0,0.0,0.0,0.0,0.0,0.0,0.0,0.0,0.0,0.0,0.0,0.0,0.0,0.0,0.0,0.0,0.0,0.0,0.0,0.0,0.0,0.0,0.0,0.0,0.0,0.0,0.0,0.0,0.0,0.0,0.0,0.0,0.0,0.0,0.0,0.0,0.0,0.0,0.0,0.0,0.0,0.0,0.0,0.0,0.0,0.0,0.0,0.0,0.0,0.0,0.0,0.0,0.0,0.0,0.0,0.0,0.0,0.0,0.0,0.0,0.0,0.0,0.0,0.0,0.0,0.0,0.0,0.0,0.0,0.0,0.0,0.0,0.0,0.0,0.0,0.0,0.0,0.0,0.0,0.0,0.0,0.0,0.0,0.0,0.0,0.0,0.0,0.0,0.0,0.0,0.0,0.0,0.0,0.0,0.0,0.0,0.0,0.0,0.0,0.0,0.0,0.0,0.0,0.0,0.0,0.0,0.0,0.0,0.0,0.0,0.0,0.0,0.0,0.0,0.0,0.0,0.0,0.0,0.0,0.0,0.0,0.0,0.0,0.0,0.0,0.0,0.0,0.0,0.0,0.0,0.0,0.0,0.0,0.0,0.0,0.0,0.0,0.0,0.0,0.0,0.0,0.0,0.0,0.0,0.0,0.0,0.0,0.0,0.0,0.0,0.0,0.0,0.0,0.0,0.0,0.0,0.0,0.0,0.0,0.0,0.0,0.0,0.0,0.0,0.0,0.0,0.0,0.0,0.0,0.0,0.0,0.0,0.0,0.0,0.0,0.0,0.0,0.0,0.0,0.0,0.0,0.0,0.0,0.0,0.0,0.0,0.0,0.0,0.0,0.0,0.0,0.0,0.0,0.0,0.0,0.0,0.0,0.0,0.0,0.0,0.0,0.0,0.0,0.0,0.0,0.0,0.0,0.0,0.0,0.0,0.0,0.0,0.0,0.0,0.0,0.0,0.0,0.0,0.0,0.0,0.0,0.0,0.0,0.0,0.0,0.0,0.0,0.0,0.0,0.0,0.0,0.0,0.0,0.0,0.0,0.0,0.0,0.0,0.0,0.0,0.0,0.0,0.0,0.0,0.0,0.0,0.0,0.0,0.0,0.0,0.0,0.0,0.0,0.0,0.0,0.0,0.0,0.0,0.0,0.0,0.0,0.0,0.0,0.0,0.0,0.0,0.0,0.0,0.0,0.0,0.0,0.0,0.0,0.0,0.0,0.0,0.0,0.0,0.0,0.0,0.0,0.0,0.0,0.0,0.0,0.0,0.0,0.0,0.0,0.0,0.0,0.0,0.0,0.0,0.0,0.0,0.0,0.0,0.0,0.0,0.0,0.0,0.0,0.0,0.0,0.0,0.0,0.0,0.0,0.0,0.0,0.0,0.0,0.0,0.0,0.0,0.0,0.0,0.0,0.0,0.0,0.0,0.0,0.0,0.0,0.0,0.0,0.0,0.0,0.0,0.0,0.0,0.0,0.0,0.0,0.0,0.0,0.0,0.0,0.0,0.0,0.0,0.0,0.0,0.0,0.0,0.0,0.0,0.0,0.0,0.0,0.0,0.0,0.0,0.0,0.0,0.0,0.0,0.0,0.0,0.0,0.0,0.0,0.0,0.0,0.0,0.0,0.0,3.3963,3.1286,0.0,0.0,0.0,0.0,0.0,0.0,0.0,0.0,0.0,0.0,0.0,0.0,0.0,0.0,0.0,0.0,0.0,0.0,0.0,0.0,0.0,0.0,0.0,1.179,1.179,1.179,1.2089,0.0,0.0,0.0,0.0,0.0,0.0,0.0,0.0,0.0,1.4895,1.6151,1.781,1.9603,2.1525,2.0827,1.9669,1.8142,0.0,0.0,0.0,0.0,0.0,0.0,0.0,0.0,0.0,0.0,0.0,0.0,0.0,0.0,0.0,0.0,0.0,0.0,0.0,0.0,0.0,0.0,0.0,0.0,0.0,0.0,0.0,0.0,0.0,0.0,0.0,0.0,0.0,0.0,0.0,0.0,0.0,0.0,0.0,0.0,0.0,0.0,0.0,0.0,0.0,0.0,0.0,0.0,0.0,0.0,0.0,0.0,0.0,0.0,0.0,0.0,0.0,0.0,0.0,0.0,0.0,0.0,0.0,0.0,0.0,0.0,0.0,0.0,0.0,0.0,3.7028,3.4486,0.0,0.0,0.0,0.0,0.0,0.0,0.0,0.0,0.0,0.0,0.0,0.0,0.0,0.0,0.0,0.0,0.0,0.0,0.0,0.0,0.0,1.185,1.1975,1.1969,1.2065,1.2299,1.2723,1.2849,1.2514,1.2915,0.0,0.0,0.0,0.0,1.429,1.5081,1.6705,1.9232,2.1027,2.3001,2.5154,2.5812,2.4687,2.2044,2.1136,0.0,0.0,0.0,0.0,0.0,0.0,0.0,0.0,0.0,0.0,0.0,0.0,0.0,0.0,0.0,0.0,0.0,0.0,0.0,0.0,0.0,0.0,0.0,0.0,0.0,0.0,0.0,0.0,0.0,0.0,0.0,0.0,0.0,0.0,0.0,0.0,0.0,0.0,0.0,0.0,0.0,0.0,0.0,0.0,0.0,0.0,0.0,0.0,0.0,0.0,0.0,0.0,0.0,0.0,0.0,0.0,0.0,0.0,0.0,0.0,0.0,0.0,0.0,3.9379,3.996,3.9469,4.1283,4.2641,4.3459,4.0217,3.8242,3.7272,3.6164,0.0,0.0,0.0,0.0,0.0,0.0,0.0,0.0,0.0,0.0,0.0,0.0,0.0,0.0,0.0,0.0,0.0,0.0,0.0,1.2035,1.2615,1.2681,1.3154,1.431,1.3944,1.4124,1.5192,1.4796,1.4773,1.5252,1.5259,1.5597,1.6301,1.7549,1.9211,2.1306,2.4908,2.6866,2.7225,2.7889,2.7979,2.747,2.5633,2.4406,2.3618,0.0,0.0,0.0,0.0,0.0,0.0,0.0,0.0,0.0,0.0,0.0,0.0,0.0,0.0,0.0,0.0,0.0,0.0,0.0,0.0,0.0,0.0,0.0,0.0,0.0,0.0,0.0,0.0,0.0,0.0,0.0,0.0,0.0,0.0,0.0,0.0,0.0,0.0,0.0,0.0,0.0,3.1212,3.1914,0.0,0.0,0.0,0.0,0.0,0.0,0.0,0.0,0.0,0.0,0.0,0.0,0.0,3.7507,3.8883,3.9559,4.0475,4.1632,4.3,4.3609,4.3569,4.4407,4.4885,4.5005,4.4496,0.0,4.0745,4.0565,0.0,0.0,0.0,0.0,0.0,0.0,0.0,0.0,0.0,0.0,0.0,0.0,0.0,0.0,0.0,0.0,0.0,0.0,0.0,0.0,0.0,1.4023,1.5012,1.6331,1.6443,1.6548,1.6832,1.6877,1.67,1.6308,1.6293,1.6959,1.8365,1.9711,2.1914,2.5009,2.7842,2.9249,2.9249,3.0313,3.0598,3.0209,2.97,2.8085,2.5693,2.5147,0.0,0.0,0.0,0.0,0.0,0.0,0.0,0.0,0.0,0.0,0.0,0.0,0.0,0.0,0.0,0.0,0.0,0.0,0.0,0.0,0.0,0.0,0.0,0.0,0.0,0.0,0.0,0.0,0.0,0.0,0.0,0.0,0.0,0.0,0.0,0.0,0.0,0.0,0.0,3.0103,3.0941,3.2333,3.1645,3.1182,0.0,0.0,0.0,0.0,0.0,0.0,0.0,0.0,0.0,3.8242,3.9547,4.0816,4.2143,4.2442,4.309,4.4038,4.4975,4.5433,4.5433,4.6112,4.6411,4.6411,4.6411,4.5574,4.4077,4.297,4.1463,3.9775,0.0,0.0,0.0,0.0,3.9008,3.8871,0.0,0.0,0.0,0.0,0.0,0.0,0.0,0.0,0.0,0.0,0.0,0.0,1.4739,1.5966,1.7197,1.8373,1.8792,1.8933,1.8758,1.8937,1.8734,1.7997,1.8139,1.9014,2.0657,2.2513,2.4998,2.8094,3.0043,3.1001,3.1061,3.2228,3.2482,3.2019,3.2542,3.0851,2.759,2.7423,2.6315,2.4537,0.0,0.0,0.0,0.0,0.0,0.0,0.0,0.0,0.0,0.0,0.0,0.0,0.0,0.0,0.0,0.0,0.0,0.0,0.0,0.0,0.0,0.0,0.0,0.0,0.0,0.0,0.0,0.0,0.0,0.0,0.0,0.0,0.0,0.0,0.0,0.0,0.0,3.1061,3.1704,3.3335,3.323,3.3005,0.0,0.0,0.0,0.0,0.0,0.0,3.8362,3.969,4.0707,4.1384,4.2541,4.3678,4.4805,4.4805,4.5155,4.5813,4.6501,4.6809,4.6839,4.7519,4.7818,4.7818,4.7818,4.7519,4.692,4.4945,4.3648,4.284,4.2331,4.2062,4.1942,4.2092,4.1631,4.1133,0.0,0.0,0.0,0.0,0.0,0.0,0.0,0.0,0.0,0.0,0.0,1.5441,1.7302,1.8583,1.965,2.0475,2.0457,2.0698,2.1434,2.0936,2.0846,2.1425,2.2064,2.2722,2.34,2.6602,2.8667,2.9502,3.145,3.2392,3.2422,3.3125,3.3425,3.3395,3.3425,3.2287,3.0283,2.9698,2.8663,2.7285,2.5974,0.0,0.0,0.0,0.0,0.0,0.0,0.0,0.0,0.0,0.0,0.0,0.0,0.0,0.0,0.0,0.0,0.0,0.0,0.0,0.0,0.0,0.0,0.0,0.0,0.0,0.0,0.0,0.0,0.0,0.0,0.0,0.0,0.0,0.0,0.0,0.0,0.0,0.0,3.6224,3.6776,0.0,0.0,0.0,0.0,3.817,3.8841,3.9798,4.1134,4.2481,4.3479,4.4087,4.4796,4.5484,4.6181,4.6211,4.654,4.7219,4.7878,4.8199,4.8207,4.8887,4.9187,4.9187,4.9187,4.9157,4.8977,4.698,4.5373,4.4177,4.4167,4.3808,4.3359,4.3958,4.3363,4.238,0.0,0.0,0.0,0.0,0.0,1.1945,1.237,1.243,1.2909,1.4274,1.5733,1.7219,1.8691,2.0486,2.2128,2.359,2.367,2.3825,2.4181,2.4305,2.4318,2.4219,2.4848,2.5926,2.7423,2.862,2.9953,3.148,3.2153,3.2721,3.3155,3.3829,3.3919,3.3514,3.3949,3.35,3.2377,3.1749,3.0702,2.9385,2.8517,2.6841,0.0,0.0,0.0,0.0,0.0,0.0,0.0,0.0,0.0,0.0,0.0,0.0,0.0,0.0,0.0,0.0,0.0,0.0,0.0,0.0,0.0,0.0,0.0,0.0,0.0,0.0,0.0,0.0,0.0,0.0,0.0,0.0,0.0,0.0,0.0,0.0,0.0,3.7015,3.8422,0.0,3.932,4.0116,4.0894,4.1515,4.2173,4.2951,4.3858,4.4766,4.5343,4.5583,4.6651,4.7339,4.7578,4.8019,4.8349,4.8588,4.8828,4.8947,4.8947,4.9187,4.9277,4.9277,4.9277,4.9277,4.9247,4.8528,4.7959,4.751,4.751,4.6829,4.5871,4.6075,4.5287,4.4175,0.0,0.0,0.0,0.0,1.179,1.2035,1.2705,1.2795,1.3514,1.553,1.7108,1.8748,2.0694,2.2523,2.4125,2.5374,2.5621,2.5704,2.5608,2.5932,2.5978,2.5626,2.6465,2.7961,3.0193,3.0253,3.1091,3.2856,3.3066,3.3395,3.3859,3.4518,3.4727,3.4532,3.4599,3.4602,3.441,3.308,3.2131,3.145,3.0582,2.9056,2.7188,0.0,0.0,0.0,0.0,0.0,0.0,0.0,0.0,0.0,0.0,0.0,0.0,0.0,0.0,0.0,0.0,0.0,0.0,0.0,0.0,0.0,0.0,0.0,0.0,0.0,0.0,0.0,0.0,0.0,0.0,0.0,0.0,0.0,0.0,3.5878,3.7451,3.8302,4.0187,4.1384,4.1384,4.2601,4.3559,4.3938,4.4596,4.5254,4.5933,4.6621,4.71,4.7309,4.8147,4.8648,4.8648,4.9067,4.9277,4.9329,4.9726,4.9935,4.9965,5.0414,5.0624,5.0624,5.0624,5.0339,4.9911,5.0408,5.0315,4.9828,4.9126,4.813,4.7072,4.7072,4.6206,4.4971,0.0,0.0,0.0,1.179,1.179,1.2035,1.2759,1.2855,1.4047,1.734,1.8365,1.9989,2.3282,2.4699,2.5459,2.5655,2.6134,2.6233,2.571,2.5693,2.5693,2.5752,2.7033,2.8949,3.1481,3.154,3.2213,3.3514,3.4188,3.4548,3.4578,3.525,3.5908,3.6473,3.5432,3.5565,3.6376,3.3716,3.2976,3.3438,3.2035,3.1095,3.0301,0.0,0.0,0.0,0.0,0.0,0.0,0.0,0.0,0.0,0.0,0.0,0.0,0.0,0.0,0.0,0.0,0.0,0.0,0.0,0.0,0.0,0.0,0.0,0.0,0.0,0.0,0.0,0.0,0.0,0.0,0.0,0.0,0.0,3.7584,3.8093,3.905,4.0367,4.2233,4.3379,4.3379,4.4586,4.5364,4.5394,4.6001,4.6659,4.7339,4.7967,4.8618,4.9299,4.9307,4.9337,4.9337,4.9366,4.9396,4.9426,5.0614,5.1218,5.1295,5.2503,5.3101,5.3125,5.3077,5.2254,5.1065,5.2531,5.2258,5.0714,4.885,4.7584,4.6866,4.6814,4.6005,4.4697,0.0,0.0,0.0,1.179,1.179,1.2358,1.3987,1.4257,1.5418,1.8702,1.974,2.1189,2.3887,2.4987,2.5921,2.6815,2.7121,2.7218,2.7046,2.7512,2.8188,2.9102,3.0432,3.1495,3.2213,3.2691,3.3365,3.4218,3.4891,3.5459,3.5955,3.6596,3.6985,3.7148,3.6845,3.6879,3.705,3.5599,3.5063,3.4992,3.2028,3.0874,3.0829,0.0,0.0,0.0,0.0,0.0,0.0,0.0,0.0,0.0,0.0,0.0,0.0,0.0,0.0,0.0,0.0,0.0,0.0,0.0,0.0,0.0,0.0,0.0,0.0,0.0,0.0,0.0,0.0,0.0,0.0,0.0,3.8302,3.9798,3.9589,4.0947,4.2263,4.315,4.4566,4.5493,4.5493,4.6241,4.695,4.7451,4.7638,4.8027,4.8708,4.8917,4.9097,4.9277,4.9733,5.0189,5.069,5.1169,5.1672,5.2097,5.14,5.1625,5.2587,5.0813,5.06,5.1548,5.0471,4.9765,4.9502,5.0985,5.036,4.8571,4.9709,4.9401,4.8181,4.7109,4.5872,4.4627,0.0,0.0,0.0,1.179,1.179,1.2478,1.449,1.4789,1.6269,2.0386,2.0786,2.1982,2.5318,2.5652,2.6116,2.7357,2.7574,2.7585,2.7585,2.8231,2.9295,3.0867,3.1675,3.2482,3.3335,3.3724,3.4368,3.5326,3.5274,3.5604,3.6239,3.6142,3.6266,3.6479,3.6061,3.6098,3.6425,3.4973,3.4456,3.4399,3.1914,3.1461,3.2191,3.1382,3.0969,3.0731,3.0059,2.9551,2.9295,2.9671,0.0,0.0,0.0,0.0,0.0,0.0,0.0,0.0,0.0,0.0,0.0,0.0,0.0,0.0,0.0,0.0,0.0,0.0,0.0,0.0,0.0,0.0,0.0,0.0,4.0756,4.2252,4.2771,4.3369,4.4087,4.5014,4.5822,4.651,4.7078,4.7489,4.7997,4.8678,4.8708,4.9007,4.9643,4.9354,4.9597,5.0481,4.9935,5.0384,5.2013,5.1193,5.127,5.2254,5.1038,5.0919,5.1696,5.0504,5.0431,5.1213,5.06,4.9966,4.9492,5.0984,5.0408,4.8782,0.0,0.0,0.0,0.0,4.6692,4.5969,1.1801,1.1811,1.1828,1.1801,1.1817,1.2518,1.4496,1.4849,1.6742,2.1832,2.158,2.2546,2.6829,2.6327,2.6183,2.7375,2.7555,2.7615,2.7705,2.8397,2.9611,3.1421,3.172,3.2662,3.4458,3.4637,3.5248,3.6326,3.5514,3.5368,3.5822,3.491,3.4846,3.5361,3.4406,3.4525,3.5264,3.3296,3.269,3.2935,3.2036,3.2577,3.3871,3.2965,3.2749,3.2871,3.2198,3.1899,3.1839,3.1929,0.0,0.0,0.0,0.0,0.0,0.0,0.0,0.0,0.0,0.0,0.0,0.0,0.0,0.0,0.0,0.0,0.0,0.0,0.0,0.0,0.0,0.0,0.0,0.0,4.324,4.4925,4.6121,4.5403,4.5194,4.639,4.654,4.7018,4.8289,4.8409,4.8708,4.9337,4.9456,4.9763,5.0398,4.9654,0.0,0.0,0.0,5.016,5.3019,5.0353,4.9701,5.1072,5.0181,4.9831,5.0023,5.0817,5.128,5.1478,5.177,5.114,5.0037,5.155,5.1402,5.0307,5.0498,4.9179,4.7249,4.7732,4.7908,4.7908,1.1833,1.1966,1.2045,1.1828,1.1971,1.2737,1.4529,1.5245,1.7126,2.1309,2.2114,2.3254,2.5699,2.6237,2.6524,2.6764,2.7285,2.7824,2.838,2.9505,3.0538,3.1451,3.3066,3.4099,3.4503,3.5565,3.5811,3.5212,3.6018,3.6087,3.5419,3.569,3.5916,3.6026,3.5829,3.5849,3.5947,3.4731,3.4254,3.426,3.3549,3.369,3.4233,3.3495,3.426,3.5639,3.4981,3.4382,3.4009,3.4546,3.3559,3.2213,3.2736,3.2004,0.0,0.0,0.0,0.0,0.0,0.0,0.0,0.0,0.0,0.0,0.0,0.0,0.0,0.0,0.0,0.0,0.0,0.0,0.0,4.2801,4.4625,4.6001,4.6271,4.701,4.7608,4.7878,4.7908,4.8229,4.9037,4.9097,4.9366,4.9979,5.0518,5.1139,5.1798,5.105,5.1358,5.297,5.0282,4.9913,5.2201,5.092,5.0685,5.1461,5.0536,0.0,5.1811,4.9599,4.9304,5.0416,4.9256,4.86,4.8471,4.9977,5.0691,5.082,5.0433,4.923,4.7782,4.7883,4.7908,4.7908,1.2024,1.2102,1.2149,1.2013,1.1992,1.2637,1.4509,1.5095,1.6834,2.1094,2.167,2.2686,2.5255,2.5873,2.6243,2.6584,2.7512,2.8231,2.8577,3.0119,3.1316,3.1959,3.362,3.4431,3.4244,3.5209,3.5357,3.4635,3.5057,3.5163,3.4995,3.4738,3.465,3.465,3.465,3.465,3.463,3.4095,3.389,3.3864,3.3518,3.3866,3.4566,3.465,3.5594,3.6896,3.6567,3.6237,3.5998,3.6357,3.5353,3.4067,3.4412,3.3349,3.1869,0.0,0.0,0.0,0.0,0.0,0.0,0.0,0.0,0.0,0.0,0.0,0.0,0.0,0.0,3.9798,4.1126,0.0,4.4068,4.4685,4.6211,4.7309,4.7309,4.8169,4.8678,4.8349,4.8588,4.9067,4.9703,5.0032,5.0511,5.1146,5.1828,5.2018,5.1605,5.0818,5.0689,5.1417,4.917,4.9182,5.1782,5.0101,4.9802,5.0885,4.9636,4.943,5.0097,4.8906,4.8748,4.9492,4.8957,4.8761,4.88,4.9592,5.0058,5.029,5.0007,4.9436,4.8761,4.8761,4.8761,4.8761,1.2286,1.2276,1.2241,1.2133,1.1982,1.2481,1.4323,1.4736,1.6357,2.0679,2.0913,2.1822,2.48,2.5303,2.5734,2.6524,2.7722,2.8457,2.8577,3.0299,3.166,3.2452,3.3784,3.4341,3.4013,3.4721,3.4751,3.4068,3.3953,3.4038,3.4366,3.3492,3.309,3.309,3.309,3.309,3.309,3.309,3.309,3.309,3.309,3.3747,3.4791,3.5638,3.6606,3.7468,3.7468,3.7531,3.7567,3.7567,3.6836,3.5878,3.5878,3.4771,3.332,3.2662,3.2751,0.0,0.0,0.0,0.0,0.0,0.0,0.0,0.0,3.7242,3.8631,4.0199,4.1294,4.2342,4.3668,4.4775,4.5753,4.654,4.7608,4.8349,4.8468,4.9067,4.9337,4.8895,4.9337,4.9912,5.0518,5.1206,5.1679,5.1951,5.2575,5.2306,5.0823,5.0044,4.9776,5.0051,4.824,4.8571,5.1278,4.9174,4.8686,4.9915,4.8782,4.8234,4.8259,4.8711,4.8969,4.8994,4.9414,4.959,4.959,4.959,4.959,4.959,4.959,4.959,4.959,4.959,4.959,4.959,1.2612,1.2573,1.2422,1.1929,1.2013,1.2545,1.3736,1.443,1.6046,1.9475,2.0355,2.1505,2.3586,2.4361,2.5202,2.6494,2.7285,2.7961,2.8547,2.985,3.1166,3.2452,3.3784,3.4341,3.4013,3.5169,3.4863,3.296,3.4057,3.4126,3.3283,3.3154,3.309,3.309,3.309,3.309,3.309,3.309,3.309,3.309,3.309,3.3747,3.4815,3.5797,3.6815,3.7744,3.7744,3.7967,3.829,3.829,3.7793,3.7195,3.7195,3.7028,3.6729,3.6118,3.5579,3.513,3.4891,3.5818,3.7118,3.8225,3.8703,3.9499,0.0,4.1643,4.1643,4.4137,4.4287,4.4386,4.5732,4.6091,4.66,4.7878,4.8199,4.8528,4.9097,4.9703,5.0278,5.0817,5.0936,5.1259,5.1917,5.2576,5.2477,5.123,5.1761,5.148,4.9935,4.9534,4.9981,5.1319,4.9049,4.8646,5.032,4.924,4.8812,4.8945,4.9259,4.9414,4.9414,4.9464,4.9515,4.9515,4.9565,4.959,4.959,4.959,4.959,4.959,4.959,4.959,4.959,4.959,4.959,4.959,1.2665,1.2585,1.242,1.1892,1.1886,1.2449,1.3866,1.4144,1.5344,1.8407,1.9222,2.0129,2.1744,2.318,2.4717,2.6465,2.7572,2.8141,2.8034,2.994,3.1166,3.1316,3.2474,3.2946,3.2606,3.3284,3.2943,3.1527,3.267,3.3025,3.2591,3.2939,3.309,3.309,3.309,3.309,3.309,3.309,3.309,3.309,3.309,3.3747,3.4759,3.5156,3.6116,3.7333,3.8362,3.8839,0.0,3.8512,3.7943,3.7387,3.7387,3.7165,3.6746,3.6118,3.5998,3.6148,3.6507,3.7567,3.8793,3.972,4.0576,4.1534,4.301,4.321,4.3629,4.5514,4.5642,4.5762,4.6689,4.7219,4.7638,4.8229,4.8925,4.962,5.0301,5.096,5.1594,5.2276,5.193,5.1964,5.2713,5.3384,5.3173,5.169,5.2507,5.2004,4.9614,4.9696,4.9699,4.943,4.8798,4.873,4.9389,4.9311,4.9296,4.9264,4.949,4.959,4.959,4.959,4.959,4.959,4.959,4.959,4.959,4.959,4.959,4.959,4.959,4.959,4.959,4.959,4.959,4.959,1.2665,1.2522,1.2325,1.1876,1.2026,1.2706,1.4085,1.4007,1.4856,1.7807,1.8334,1.9023,2.0539,2.2432,2.4178,2.5656,2.7171,2.7931,2.7615,2.9564,3.0543,3.0225,3.1143,3.1459,3.1036,3.1567,3.1444,3.0588,3.1537,3.1989,3.1989,3.2566,3.2864,3.2864,3.304,3.309,3.309,3.309,3.309,3.309,3.309,3.3475,3.4089,3.4637,3.539,3.6368,3.8055,3.8739,3.8763,3.8302,3.7913,3.7674,3.7674,3.7494,3.7225,3.6956,3.7195,3.7704,3.8332,3.9349,4.0427,4.1265,4.2342,4.3349,4.3997,4.4506,4.5164,4.633,4.657,4.6779,4.7459,4.7967,4.8438,4.8775,4.9591,5.0518,5.1379,5.1887,5.2395,5.2833,5.2493,5.2367,5.2719,5.318,5.303,5.1976,5.2455,5.1646,4.905,4.9473,4.9291,4.8165,4.8743,4.9044,4.9044,4.9389,4.959,4.959,4.959,4.959,4.959,4.959,4.959,4.959,4.959,4.959,4.9615,4.9766,4.9816,4.9841,4.9992,5.0067,5.0067,5.0067,4.9967,4.9841,1.2665,1.2397,1.2123,1.1844,1.2603,1.3503,1.4183,1.4007,1.4856,1.7807,1.794,1.8497,2.0479,2.2432,2.361,2.3699,2.5507,2.6914,2.7555,2.8291,2.8909,2.9407,3.0142,3.024,2.9591,3.0845,3.1223,3.0588,3.116,3.1411,3.1457,3.1989,3.224,3.2244,3.2839,3.309,3.309,3.309,3.309,3.309,3.309,3.2763,3.2486,3.4524,3.4958,3.4668,3.6302,3.7132,3.7464,3.7434,3.7853,3.8362,3.8362,3.8811,3.9421,4.0068,4.0277,4.0427,4.1104,4.1762,4.2601,4.3868,4.4706,4.5394,4.6061,4.6241,4.645,4.713,4.7279,4.7489,4.8169,4.8289,4.8686,4.9949,5.0166,5.0667,5.1977,5.2187,5.2151,5.2046,5.2481,5.2467,5.171,5.1681,5.1653,5.1625,5.0793,4.9616,4.8038,4.8529,4.8831,4.8768,4.9289,4.9565,4.9565,4.959,4.959,4.959,4.959,4.959,4.959,4.959,4.959,4.959,4.959,4.959,4.964,5.0167,5.0393,5.0444,5.1021,5.1255,5.1255,5.1255,5.087,5.0469,1.3559,1.3508,1.3531,1.3748,1.4082,1.4668,1.5781,1.566,1.6384,1.8996,1.9162,0.0,0.0,0.0,0.0,0.0,2.5046,2.6213,2.6884,2.7542,2.823,2.8853,2.8756,2.8812,2.9034,2.9171,2.931,2.9484,3.0055,3.0507,3.0884,3.1411,3.1662,3.1687,3.1884,3.1984,3.1984,3.1984,3.1984,3.2047,3.2654,3.2829,3.2868,3.4186,3.4352,3.402,0.0,3.6389,3.7327,3.6926,3.7225,3.7734,3.7734,3.8494,3.9541,4.0217,4.1044,4.1762,4.2021,4.3169,4.4526,4.5403,4.5792,4.6121,4.683,4.6958,4.704,4.7249,4.6929,4.6839,4.7519,4.7997,4.8588,4.9464,5.069,5.1494,5.1441,5.264,5.3078,5.1868,5.1904,5.2045,5.212,5.2118,5.1744,5.0727,5.0694,5.0062,4.858,4.9012,4.9314,4.9314,4.949,4.959,4.959,4.959,4.959,4.959,4.959,4.959,4.9615,4.9967,5.0142,5.0167,5.0544,5.072,5.072,5.0921,5.0996,5.1021,5.1197,5.1306,5.1356,5.1699,5.1699,5.1523,1.4708,1.4607,1.4461,1.474,1.5086,0.0,0.0,0.0,0.0,0.0,0.0,0.0,0.0,0.0,0.0,0.0,0.0,2.5285,2.6183,2.6884,2.7297,2.745,2.7386,2.7348,2.7354,2.7324,2.7551,2.8047,2.8624,2.9076,2.9453,3.0382,3.0829,3.0854,3.121,3.1406,3.1406,3.1406,3.1512,3.1699,3.1915,3.2161,3.2535,3.3424,3.3523,0.0,3.4715,3.5841,3.664,3.6267,3.6716,3.7387,3.7387,3.8644,4.0307,4.1175,4.2222,4.3169,4.3648,4.4706,4.5813,4.648,4.6659,4.6779,4.7219,4.7309,4.7309,4.7309,4.6958,4.6779,4.7219,4.8027,4.8798,4.9239,5.0953,5.2083,5.1842,5.2893,5.3181,5.1766,5.1468,5.1296,5.1139,5.1293,5.1166,5.053,5.0475,5.0093,4.9126,4.9414,4.959,4.959,4.959,4.959,4.959,4.959,4.969,4.9891,4.9891,4.9992,5.0218,5.0569,5.072,5.0745,5.1122,5.1306,5.1297,5.1498,5.1574,5.1599,5.18,5.1875,5.1925,5.2277,5.2402,5.2352,1.6044,1.555,1.4918,0.0,0.0,0.0,0.0,0.0,0.0,0.0,0.0,0.0,0.0,0.0,0.0,0.0,0.0,0.0,2.5453,2.6153,2.6167,2.5439,2.6053,2.5922,2.4854,2.5495,2.6039,2.6449,2.6959,2.7236,2.7286,2.8894,2.9628,2.9698,3.0703,3.1155,3.1155,3.1155,3.1436,3.1838,3.0934,3.0788,3.1251,3.2171,3.2473,3.2632,3.4576,3.5335,3.5394,3.5473,3.6357,3.7434,3.7597,3.9409,4.1703,4.298,4.3848,4.4685,4.5942,4.633,4.651,4.716,4.7309,4.7309,4.7309,4.7309,4.7309,4.7309,4.7279,4.7279,4.7309,4.8379,4.9247,4.9209,5.0907,5.2384,5.2811,5.2862,5.2498,5.154,5.118,5.0435,4.8976,4.9289,4.9977,5.0856,5.0097,4.959,4.959,4.959,4.959,4.959,4.959,4.959,4.959,4.9615,4.9916,5.0469,5.0469,5.0745,5.1306,5.1322,5.1356,5.1356,5.1348,5.1373,5.1398,5.1925,5.2151,5.2201,5.2694,5.2895,5.2895,5.2895,5.2895,5.2895,0.0,0.0,0.0,0.0,0.0,0.0,0.0,0.0,0.0,0.0,0.0,0.0,0.0,0.0,0.0,0.0,0.0,0.0,2.4784,2.5023,2.5224,2.5473,2.5516,2.5375,2.5027,2.5048,2.5346,2.5829,2.5979,2.6256,2.6725,2.7153,2.7354,2.7354,2.763,2.7756,2.7756,2.7756,2.7832,2.8066,2.9565,2.9197,2.8025,3.0522,3.0677,2.98,3.1573,3.2864,3.3897,3.5083,3.6357,3.7853,4.0325,4.1602,4.2391,4.3688,4.4865,4.5852,4.6211,4.6659,4.71,4.7279,4.7309,4.7309,4.7309,4.7309,4.7309,4.7309,4.6899,4.6719,4.7219,4.7967,4.8365,4.7817,5.0668,5.1874,4.881,5.1333,5.2379,4.9209,5.012,5.0591,4.9499,4.9515,4.9707,4.9939,4.9714,4.959,4.959,4.959,4.959,4.959,4.959,4.959,4.959,5.0017,5.0494,5.1071,5.1071,5.1147,5.1297,5.1699,5.19,5.1925,5.2327,5.2468,5.2528,5.2619,5.2694,5.2694,5.2845,5.2895,5.2895,5.2895,5.2895,5.2895,0.0,0.0,0.0,0.0,0.0,0.0,0.0,0.0,0.0,0.0,0.0,0.0,0.0,0.0,0.0,0.0,0.0,0.0,0.0,2.4425,2.4604,2.4616,2.4779,2.4693,2.4315,2.4147,2.4199,2.449,2.4782,2.5075,2.5402,2.5879,2.6122,2.6122,2.6373,2.6499,2.6499,2.6499,2.6776,0.0,0.0,2.7719,2.7381,2.9151,2.939,2.8991,3.0995,3.2783,3.4374,3.5833,3.7015,3.8332,4.1074,4.2331,4.303,4.4377,4.5463,4.636,4.6659,4.6988,4.7309,4.7309,4.7309,4.7309,4.7309,4.7309,4.7309,4.7309,4.6988,4.6749,4.6839,4.7878,4.8514,4.7796,5.0226,5.1483,4.9249,5.0823,5.1484,4.9496,4.9935,5.0172,4.9661,4.959,4.959,4.959,4.959,4.959,4.959,4.959,4.959,4.959,4.9841,5.0067,5.0318,5.0645,5.1071,5.1649,5.1649,5.1774,5.2026,5.2327,5.2477,5.2477,5.277,5.2895,5.2895,5.2895,5.2895,5.2895,5.2895,5.302,5.3256,5.3256,5.3432,5.3658,0.0,0.0,0.0,0.0,0.0,0.0,0.0,0.0,0.0,2.0661,2.0574,2.0556,2.0539,2.0755,0.0,0.0,0.0,0.0,0.0,0.0,2.4179,2.3521,2.3913,2.3932,2.3465,2.3145,2.308,2.326,2.3673,2.3879,2.3904,2.4833,2.5285,2.5285,2.5804,2.6047,2.6047,2.6047,2.6651,2.7478,2.6214,2.6527,2.7779,0.0,2.8464,2.9128,3.1514,3.3649,3.5579,3.6866,3.7853,3.8918,4.0984,4.2491,4.3698,4.5035,4.5933,4.657,4.716,4.7309,4.7309,4.7309,4.7309,4.7309,4.7309,4.7309,4.7309,4.7309,4.7309,4.71,4.642,4.7878,4.8865,4.8,4.9553,5.0895,5.095,5.0527,5.0308,5.0564,5.0021,4.959,4.959,4.959,4.959,4.959,4.959,4.959,4.959,4.959,4.9615,4.969,5.0243,5.0795,5.1398,5.1431,5.1674,5.2226,5.2226,5.2477,5.2895,5.2895,5.2895,5.2895,5.2895,5.2895,5.2895,5.297,5.2995,5.2995,5.3071,5.3406,5.3808,5.3808,5.4135,5.4597,0.0,0.0,0.0,0.0,0.0,0.0,0.0,0.0,0.0,0.0,2.2638,2.183,0.0,0.0,0.0,0.0,0.0,0.0,0.0,0.0,0.0,2.3509,2.3115,2.3308,2.4204,2.3062,2.2981,2.4076,2.3526,2.3246,2.3271,2.3446,2.3521,2.3547,2.3622,2.3672,2.3672,2.3672,2.4172,2.5037,2.5914,2.6096,2.6047,2.7843,2.8195,0.0,3.0746,3.2976,3.4877,3.6224,3.7793,3.966,4.2173,4.3519,4.4386,4.5732,4.66,4.716,4.7279,4.7309,4.7309,4.7309,4.7309,4.7309,4.7309,4.7309,4.7309,4.7309,4.7309,4.71,4.642,4.7489,4.784,4.5882,4.8159,4.932,4.6929,4.8691,4.9758,4.8567,4.9121,4.959,4.959,4.959,4.959,4.959,4.959,4.959,4.959,4.959,4.9791,5.0268,5.0845,5.1398,5.195,5.1975,5.2226,5.2744,5.2744,5.2795,5.2895,5.2895,5.2895,5.2895,5.2895,5.2895,5.292,5.3381,5.3557,5.3607,5.412,5.4371,5.4446,5.4446,5.4522,5.4522,0.0,0.0,0.0,0.0,0.0,0.0,0.0,2.3369,2.5,2.6082,2.6258,2.5506,2.3383,2.3004,2.2872,0.0,0.0,0.0,0.0,0.0,0.0,2.3549,2.3243,2.35,2.4441,2.3771,2.3686,2.4293,0.0,2.3514,2.3095,2.3095,2.3095,2.3095,2.3095,2.3335,2.3736,2.3736,2.4332,2.5325,2.5726,2.5854,2.5924,2.7093,2.7943,0.0,3.0052,3.2228,3.4637,3.5655,3.7734,4.0277,4.2222,4.3748,4.5035,4.6001,4.6779,4.7309,4.7309,4.7309,4.7309,4.7309,4.7309,4.7309,4.7309,4.7309,4.7309,4.7309,4.7018,4.6689,4.636,4.6809,4.7044,4.631,4.7166,4.7721,4.717,4.7954,4.8544,4.8378,4.9088,4.959,4.959,4.959,4.959,4.959,4.9866,4.9891,4.9615,4.9866,5.0419,5.1272,5.1574,5.1975,5.2528,5.2528,5.2678,5.2895,5.2895,5.2895,5.2895,5.2895,5.2895,5.292,5.3206,5.3331,5.3381,5.3934,5.4195,5.422,5.4496,5.4773,5.4999,5.4697,5.4773,5.4949,0.0,0.0,0.0,0.0,0.0,0.0,0.0,2.538,2.7097,2.8162,2.9354,2.8891,2.5663,2.4701,2.3894,0.0,0.0,0.0,0.0,0.0,0.0,0.0,2.3565,2.3921,2.4713,0.0,0.0,2.478,2.4609,0.0,0.0,0.0,0.0,0.0,2.3577,2.393,2.4538,2.4538,2.5207,0.0,0.0,2.598,2.6511,0.0,0.0,0.0,0.0,3.1614,3.4398,3.507,3.7285,4.0038,4.1673,4.3619,4.5394,4.5912,4.6659,4.7309,4.7309,4.7309,4.7309,4.7309,4.7309,4.7279,4.713,4.71,4.6988,4.6711,4.633,4.6001,4.5702,4.5882,4.6215,4.6561,4.6281,4.6461,4.7783,4.7618,4.7637,4.8523,4.9188,4.959,4.959,4.959,4.959,4.959,5.0117,5.0268,4.9967,5.0469,5.1172,5.2076,5.2226,5.2443,5.2895,5.2895,5.2895,5.2895,5.2895,5.2895,5.2895,5.2995,5.3046,5.3096,5.3658,5.3884,5.3934,5.4547,5.4773,5.4773,5.4773,5.5049,5.5315,5.4798,5.4873,5.5139,0.0,0.0,0.0,0.0,0.0,0.0,0.0,2.5718,2.7469,2.9625,2.9997,2.9832,2.9092,2.7827,2.6083,0.0,0.0,0.0,0.0,0.0,0.0,0.0,0.0,0.0,0.0,0.0,0.0,2.6296,2.5646,0.0,0.0,0.0,0.0,0.0,0.0,2.5217,2.5314,2.5314,0.0,0.0,0.0,0.0,0.0,0.0,0.0,0.0,0.0,3.1314,3.3694,3.4368,3.5985,3.8123,4.0685,4.3259,4.5304,4.5364,4.6292,4.7309,4.7309,4.7309,4.7309,4.7309,4.7309,4.716,4.654,4.639,4.6061,4.4835,4.5005,4.5035,4.3818,4.4566,4.5175,4.4505,4.535,4.6049,4.5898,4.716,4.8084,4.8013,4.8937,4.959,4.959,4.959,4.959,4.959,5.0117,5.0619,5.1096,5.1649,5.2,5.2101,5.2544,5.2845,5.2895,5.2895,5.2895,5.2895,5.2895,5.2895,5.292,5.3406,5.3632,5.3658,5.427,5.4522,5.4572,5.5089,5.5315,5.5315,5.5315,5.534,5.5315,5.4798,5.4622,5.4597,0.0,0.0,0.0,0.0,0.0,0.0,2.5871,2.6623,2.785,3.0997,3.1799,3.1737,3.0795,2.988,2.777,2.3919,0.0,0.0,0.0,0.0,0.0,0.0,0.0,0.0,0.0,0.0,2.6017,2.6483,2.6203,0.0,0.0,0.0,0.0,0.0,0.0,2.566,2.6068,2.6068,0.0,0.0,0.0,0.0,0.0,0.0,0.0,0.0,0.0,0.0,3.3066,3.4128,3.5565,3.7182,3.9008,4.1134,4.3329,4.5334,4.5992,4.6262,4.707,4.7309,4.7309,4.7309,4.7309,4.713,4.645,4.5971,4.5454,4.4476,4.3898,4.3499,4.3339,4.3449,4.3707,4.4158,4.4617,4.5448,4.6851,4.7918,4.8733,4.9222,4.9971,5.021,4.9636,4.959,4.9866,5.0544,5.1122,5.1674,5.2251,5.2176,5.2251,5.2544,5.277,5.2895,5.2895,5.2895,5.2895,5.2895,5.2895,5.3046,5.3406,5.3607,5.3884,5.4295,5.4848,5.5099,5.5125,5.5666,5.5892,5.5892,5.5892,5.5691,5.5315,5.4798,5.4371,5.3959,0.0,0.0,0.0,0.0,0.0,2.1975,2.675,2.7224,2.8222,3.1539,3.2824,3.2997,3.1912,3.1063,2.8926,2.4828,2.439,0.0,0.0,0.0,0.0,0.0,0.0,0.0,0.0,0.0,2.6856,2.6841,2.6841,2.6562,0.0,0.0,2.604,2.604,0.0,0.0,0.0,0.0,0.0,0.0,0.0,0.0,0.0,0.0,0.0,0.0,0.0,0.0,0.0,0.0,0.0,3.5865,3.7362,3.8931,4.0834,4.3958,4.5065,4.5514,4.6441,4.701,4.7309,4.7309,4.716,4.6779,4.5912,4.5194,4.4407,4.3359,4.2601,4.2241,4.2651,4.2571,4.275,4.3818,4.4314,4.5203,4.7152,4.837,4.9309,4.9837,5.0421,5.0461,4.9675,4.9741,5.0318,5.1448,5.1875,5.2352,5.287,5.2519,5.2528,5.2895,5.2895,5.2895,5.2895,5.2895,5.297,5.3121,5.3121,5.3432,5.3959,5.4135,5.4411,5.4873,5.539,5.5641,5.5666,5.6043,5.6219,5.6168,5.5842,5.5491,5.5099,5.4336,5.3833,5.3406,0.0,0.0,0.0,0.0,0.0,0.0,2.6158,2.7325,2.8601,3.092,3.2476,3.3177,3.2563,3.1299,2.9441,2.679,2.4767,0.0,0.0,0.0,0.0,0.0,0.0,0.0,0.0,0.0,2.7585,2.7585,2.7585,2.7572,2.7572,2.7572,2.7572,2.7572,0.0,0.0,0.0,0.0,0.0,0.0,0.0,0.0,2.7675,0.0,0.0,0.0,0.0,0.0,0.0,0.0,0.0,0.0,0.0,3.6926,3.7973,4.0655,4.3289,4.5304,4.5304,4.6292,4.7309,4.7309,4.6779,4.5971,4.4625,4.3818,4.2771,4.0846,4.0954,4.1403,4.1433,4.1961,4.2601,4.322,4.4416,4.5475,4.6034,4.8231,4.9632,4.9258,4.9785,5.005,4.965,5.0092,5.0837,5.2026,5.2101,5.2352,5.287,5.2895,5.2895,5.2895,5.2895,5.2895,5.2895,5.2895,5.3181,5.3683,5.3683,5.4009,5.4622,5.5114,5.5365,5.5415,5.5968,5.6194,5.6194,5.6219,5.6219,5.6093,5.5049,5.4622,5.4471,5.3356,5.2895,5.2895,0.0,0.0,0.0,0.0,0.0,0.0,0.0,2.6142,2.7122,2.9416,3.0548,3.1459,3.2249,3.1175,2.9502,2.7401,2.5823,0.0,0.0,0.0,0.0,0.0,0.0,0.0,0.0,0.0,2.7585,2.7585,2.7585,2.7585,2.7585,2.7585,2.7585,2.7585,2.7585,2.7585,0.0,0.0,0.0,0.0,0.0,2.7585,2.7675,0.0,0.0,0.0,0.0,0.0,0.0,0.0,0.0,0.0,0.0,0.0,0.0,3.8859,4.0924,4.293,4.4257,4.4945,4.5364,4.5813,4.5424,4.4685,4.3818,4.2771,4.1683,4.0606,4.0576,4.0846,4.1313,4.1961,4.275,4.3818,4.4736,4.5994,4.8028,4.9151,5.0025,5.0642,5.0163,4.9888,5.0125,5.067,5.1322,5.2051,5.2452,5.2719,5.2895,5.2895,5.2895,5.2895,5.2895,5.2895,5.2895,5.3246,5.3532,5.3708,5.4145,5.4622,5.5139,5.5315,5.5591,5.5968,5.6143,5.6219,5.6219,5.6219,5.5993,5.5616,5.5265,5.4662,5.3934,5.3582,5.3196,5.2895,0.0,0.0,0.0,0.0,0.0,0.0,0.0,2.5,2.5879,2.7859,2.8789,2.9794,3.1302,3.0275,2.8917,2.7574,2.6263,0.0,0.0,0.0,0.0,0.0,0.0,0.0,0.0,2.7375,2.7735,2.7961,2.8226,2.8355,2.8359,2.8589,2.8579,2.8339,2.8087,2.7989,0.0,0.0,0.0,0.0,2.7585,2.7764,2.8051,0.0,0.0,0.0,0.0,0.0,0.0,0.0,0.0,0.0,0.0,0.0,0.0,0.0,3.8918,4.0715,4.2671,4.3569,4.4027,4.4436,4.4047,4.3419,4.2761,4.1773,4.0894,4.0487,4.0397,4.0666,4.1613,4.2301,4.315,4.4466,4.5454,4.6688,4.8542,4.9595,5.0392,5.0883,5.0141,4.9816,5.0368,5.0946,5.1599,5.2352,5.2694,5.2895,5.2895,5.2895,5.2895,5.2895,5.2895,5.2995,5.3196,5.3532,5.3909,5.4336,5.4712,5.5164,5.5691,5.5691,5.5892,5.6219,5.6219,5.6219,0.0,5.6219,5.5892,5.5365,5.52,5.4511,5.3683,5.3482,5.3206,5.2895,0.0,0.0,0.0,0.0,0.0,0.0,0.0,2.3966,2.4914,2.6293,2.7122,2.8162,2.9693,2.8724,2.7807,2.7415,0.0,0.0,0.0,0.0,0.0,0.0,0.0,0.0,2.7555,2.7645,2.7961,2.8607,2.9269,2.9589,2.9595,3.0184,3.014,2.9559,2.8951,2.8649,0.0,0.0,0.0,0.0,2.7585,2.7991,0.0,0.0,0.0,0.0,0.0,0.0,0.0,0.0,0.0,0.0,0.0,0.0,0.0,0.0,0.0,0.0,0.0,4.2132,4.313,4.32,4.2791,4.2171,4.1583,4.0954,0.0,4.0457,4.0516,4.0905,4.2171,4.297,4.3878,4.5155,4.6501,4.754,4.8043,4.9652,5.062,5.0204,4.9853,4.9866,5.0386,5.0996,5.1774,5.282,5.2895,5.2895,5.2895,5.2895,5.292,5.2945,5.2945,5.3206,5.3708,5.3783,5.4361,5.539,5.544,5.5717,5.6219,5.6219,5.6219,5.6219,5.6219,5.6219,5.6219,5.6219,5.5867,5.529,5.4798,5.422,5.3582,5.3071,5.2895,5.2895,0.0,0.0,0.0,0.0,0.0,0.0,0.0,0.0,0.0,0.0,2.4804,2.5854,2.7342,2.6887,2.669,0.0,0.0,0.0,0.0,0.0,0.0,0.0,0.0,0.0,2.7585,2.8111,2.8427,2.8607,2.9255,2.9614,2.9618,2.974,2.9738,2.9583,2.9425,2.9089,0.0,0.0,0.0,0.0,2.7585,2.7991,0.0,0.0,0.0,0.0,3.1241,3.1511,0.0,0.0,0.0,0.0,0.0,0.0,0.0,0.0,3.6703,3.7272,3.8709,0.0,4.1324,4.2361,4.2122,4.1733,0.0,4.1643,4.1164,4.1164,4.1583,4.2021,4.2351,4.3738,4.5095,4.5912,4.7189,4.837,4.9231,4.9858,5.0075,4.9779,5.0017,5.0444,5.1021,5.1574,5.2201,5.2845,5.2895,5.2895,5.2895,5.2895,5.3071,5.3507,5.3507,5.3582,5.3708,5.4561,5.5114,5.539,5.5817,5.6093,5.6219,5.6219,5.6219,5.6219,5.6219,5.6219,5.6219,5.6219,5.5641,5.4773,5.4647,5.3959,5.3046,5.2945,5.2895,5.2895,0.0,0.0,0.0,0.0,0.0,0.0,0.0,0.0,0.0,0.0,0.0,2.4568,0.0,0.0,0.0,0.0,0.0,0.0,0.0,0.0,0.0,0.0,0.0,2.6868,2.8447,2.8557,2.9046,2.994,3.0609,3.1101,3.1397,3.1708,3.1529,3.0908,3.0274,2.95,0.0,0.0,0.0,2.7996,2.771,0.0,0.0,0.0,0.0,0.0,3.1361,3.1511,0.0,3.1511,3.2602,3.3919,0.0,0.0,0.0,0.0,3.6237,3.6703,3.7674,3.8691,3.9798,4.1164,4.1433,4.1583,4.2261,4.2331,4.2372,4.2671,4.3,4.3379,4.3678,4.4794,4.5998,4.7051,4.7892,4.8927,5.0347,5.0301,5.0241,5.0567,5.0268,5.0469,5.1548,5.1925,5.2327,5.2845,5.2895,5.2895,5.2895,5.3121,5.3406,5.3683,5.421,5.4486,5.4486,5.5089,5.5516,5.5767,5.6068,5.6219,5.6219,5.6219,5.6219,5.6219,5.6219,5.6219,5.6219,5.6219,5.5566,5.4597,5.4597,5.3884,5.2895,5.2895,5.3046,5.3281,0.0,0.0,0.0,0.0,0.0,0.0,0.0,0.0,0.0,0.0,0.0,0.0,0.0,0.0,0.0,0.0,0.0,0.0,0.0,0.0,0.0,0.0,0.0,2.6982,2.9317,2.9143,2.9855,3.1511,3.2387,3.3149,3.3849,3.43,3.3788,3.2445,3.1216,2.9948,0.0,0.0,2.866,2.8451,2.8038,0.0,0.0,0.0,0.0,0.0,0.0,0.0,0.0,3.1653,3.2856,3.4248,3.3679,0.0,0.0,0.0,0.0,0.0,3.7345,3.8033,3.8871,4.0217,4.0984,4.1583,4.2361,4.3,4.3609,4.4177,4.4386,4.4706,4.5454,4.6131,4.7055,4.8507,4.8895,4.9529,5.1003,5.0623,5.0538,5.1486,5.0576,5.0444,5.195,5.2176,5.2427,5.287,5.2895,5.2895,5.2895,5.3406,5.3733,5.3833,5.4838,5.544,5.5516,5.5516,5.5742,5.6219,5.6219,5.6219,5.6219,5.6219,5.6219,5.6219,5.6219,5.6219,5.6219,5.6219,5.5566,5.4597,5.4597,5.3884,5.2895,5.297,5.3331,5.3733,0.0,0.0,0.0,0.0,0.0,0.0,0.0,0.0,0.0,0.0,0.0,0.0,0.0,0.0,0.0,0.0,0.0,0.0,0.0,0.0,0.0,2.6316,2.6827,2.763,2.8703,3.025,3.1197,3.1511,3.3304,3.4636,3.5422,3.4803,3.377,3.2482,3.1689,3.0642,2.9439,2.9396,2.9021,2.8549,2.9039,0.0,0.0,0.0,0.0,0.0,0.0,0.0,0.0,3.2437,3.298,3.3649,3.3514,0.0,0.0,0.0,0.0,0.0,3.7764,3.8751,3.9589,4.0905,4.1313,4.1703,4.2891,4.3668,4.4177,4.4267,4.4766,4.5514,4.677,4.7992,4.9237,5.0524,5.0888,5.0807,5.0306,4.9925,4.9925,5.0551,5.0884,5.1297,5.2026,5.2528,5.2795,5.2895,5.2895,5.2895,5.2895,5.3406,5.3934,5.4446,5.5064,5.5616,5.6068,5.6093,5.6118,5.6219,5.6219,5.6219,5.6219,5.6219,5.6219,5.6219,5.6219,5.6219,5.6219,5.6219,5.5566,5.4597,5.4597,5.3884,5.2945,5.3406,5.3632,5.3833,0.0,0.0,0.0,0.0,0.0,0.0,0.0,0.0,0.0,0.0,0.0,0.0,0.0,0.0,0.0,0.0,0.0,0.0,0.0,0.0,0.0,2.7235,2.8039,2.8834,2.9595,3.0485,3.1847,3.3648,3.508,3.5905,3.6146,3.5023,3.4165,3.3556,3.2885,3.2067,3.1208,3.12,3.0756,3.0144,0.0,0.0,0.0,0.0,0.0,0.0,0.0,0.0,0.0,0.0,3.3553,3.4043,3.4043,0.0,0.0,0.0,0.0,0.0,3.7524,3.8614,3.99,4.1953,4.3269,4.4407,4.5693,4.6779,4.7407,4.707,4.7519,4.8125,4.8753,4.9609,5.0407,5.1083,5.1627,5.1595,5.0673,5.0747,5.106,5.1531,5.1423,5.1624,5.2477,5.2744,5.2895,5.2895,5.2895,5.302,5.3331,5.3858,5.4471,5.5024,5.5541,5.5968,5.6219,5.6219,5.6219,5.6219,5.6219,5.6219,5.6219,5.6219,5.6219,5.6219,5.6219,5.6219,5.6219,5.6219,5.5742,5.5049,5.5049,5.4547,5.3884,5.4411,5.4813,5.5164,0.0,0.0,0.0,0.0,0.0,0.0,0.0,0.0,0.0,0.0,0.0,0.0,0.0,0.0,0.0,0.0,0.0,0.0,0.0,0.0,2.6682,2.7819,2.882,2.9773,3.0688,3.1544,3.3225,3.5796,3.7123,3.7639,3.7272,3.607,3.5246,3.4739,3.4254,3.35,3.2604,3.2752,3.2382,3.1748,0.0,0.0,0.0,0.0,0.0,0.0,0.0,0.0,0.0,0.0,0.0,0.0,0.0,0.0,0.0,3.5639,3.6058,3.6896,3.7853,3.9182,4.0947,4.3629,4.4954,4.6061,4.7878,4.8933,4.9531,4.9494,4.986,5.0375,5.1026,5.1846,5.2229,5.1583,5.2133,5.2162,5.0852,5.121,5.1784,5.2256,5.1798,5.185,5.2795,5.2895,5.2895,5.2895,5.2995,5.3281,5.3683,5.4396,5.4999,5.5365,5.5917,5.6219,5.6219,5.6219,5.6219,5.6219,5.6219,5.6219,5.6219,5.6219,5.6219,5.6219,5.6219,5.6219,5.6219,5.6344,5.6068,5.5591,5.5717,5.5516,5.5225,5.5616,5.6118,5.6671,0.0,0.0,0.0,0.0,0.0,0.0,0.0,0.0,0.0,0.0,0.0,0.0,0.0,0.0,0.0,0.0,0.0,0.0,0.0,0.0,2.6797,2.7151,2.8468,2.9866,3.1313,3.4645,3.6478,3.6706,3.9389,4.0352,3.9653,3.8918,3.7511,3.5596,3.5564,3.4436,3.2641,3.3187,3.3052,3.2494,3.3106,0.0,0.0,0.0,0.0,0.0,0.0,0.0,0.0,0.0,0.0,0.0,0.0,0.0,3.5553,3.5519,3.6387,3.7764,3.9679,4.1575,4.3668,4.6352,4.5254,4.4356,4.7549,4.7878,4.8005,4.977,5.0166,5.0966,5.3449,5.5432,5.5688,5.2764,5.2859,5.249,5.0054,5.0154,5.0733,5.1313,5.1766,5.2277,5.2845,5.2895,5.2895,5.2895,5.3381,5.3658,5.3708,5.4737,5.534,5.539,5.5917,5.6219,5.6219,5.6219,5.6219,5.6219,5.6219,5.6219,5.6219,5.6219,5.6219,5.6219,5.6219,5.6219,5.6244,5.6734,5.6609,5.6194,5.6684,5.686,5.6835,5.686,5.7236,5.7775,0.0,0.0,0.0,0.0,0.0,0.0,0.0,0.0,0.0,0.0,0.0,0.0,0.0,0.0,0.0,0.0,0.0,0.0,0.0,2.6444,2.6631,2.7499,2.8627,3.0119,3.1915,3.4727,3.703,3.8735,3.9351,3.9772,3.9993,3.8774,3.755,3.6306,3.6306,3.5923,3.52,3.4921,3.4427,3.386,3.4551,3.457,0.0,0.0,0.0,0.0,0.0,0.0,0.0,0.0,3.4452,3.4148,3.5177,3.5214,3.5134,3.6443,3.7661,3.8883,4.0098,4.2432,4.5005,4.683,4.716,4.7578,4.9643,5.0541,5.1169,5.1917,5.2725,5.3862,5.5688,5.6149,5.5722,5.3932,5.303,5.198,5.0341,5.0594,5.1172,5.1724,5.2277,5.2669,5.287,5.2895,5.2895,5.2895,5.3406,5.3858,5.4245,5.4963,5.5541,5.5892,5.6093,5.6219,5.6219,5.6219,5.6219,5.6219,5.6219,5.6219,5.6219,5.6219,5.6219,5.6219,5.6533,5.6684,5.6734,5.7311,5.7449,5.7273,5.7499,5.7575,5.7575,5.7575,5.7926,5.8403,0.0,0.0,0.0,0.0,0.0,0.0,0.0,0.0,0.0,0.0,0.0,0.0,0.0,0.0,0.0,0.0,0.0,0.0,2.67,2.6418,2.6818,2.8119,2.9288,3.0879,3.295,3.5489,3.7707,3.9578,3.9347,3.9648,4.0399,3.8628,3.7794,3.7734,3.729,3.7117,3.7088,3.6299,3.5586,3.497,3.5407,3.5339,0.0,0.0,0.0,0.0,0.0,0.0,0.0,0.0,3.4628,3.4393,3.5377,3.5306,3.5209,3.7029,3.8875,4.0546,4.1414,4.3898,4.6561,4.7908,4.8895,5.0032,5.1768,5.2695,5.3378,5.4007,5.5179,5.6316,5.6974,5.6981,5.6217,5.4378,5.3486,5.2385,5.0637,5.1071,5.1674,5.2076,5.2544,5.2895,5.2895,5.2895,5.297,5.3121,5.3658,5.4235,5.4823,5.534,5.5817,5.6194,5.6219,5.6219,5.6219,5.6219,5.6219,5.6219,5.6219,5.6219,5.6219,5.6219,5.6319,5.6458,5.6835,5.7111,5.7311,5.7926,5.8252,5.8403,5.8403,5.8403,5.8403,5.8403,5.8654,5.8956,0.0,0.0,0.0,0.0,0.0,0.0,0.0,0.0,0.0,0.0,0.0,0.0,0.0,0.0,0.0,0.0,0.0,0.0,2.67,2.67,2.7376,2.8908,3.0388,3.2215,3.4415,3.7427,3.895,3.8941,3.9721,4.0453,4.1123,3.8864,3.865,4.0011,3.8565,3.791,3.7855,3.7122,3.6332,3.56,3.56,3.56,3.56,0.0,0.0,0.0,0.0,0.0,0.0,0.0,3.4484,3.5342,3.3967,3.4471,3.5837,3.7075,3.9787,4.268,4.3958,4.6262,4.8626,4.989,5.0226,5.0936,5.3598,5.3683,5.3797,5.5803,5.7214,5.7905,5.7244,5.8201,5.7847,5.4023,5.4439,5.4113,5.0851,5.1398,5.2101,5.2126,5.2569,5.2895,5.2895,5.2895,5.3096,5.3658,5.427,5.4848,5.5365,5.5917,5.6219,5.6219,5.6219,5.6219,5.6219,5.6219,5.6219,5.6219,5.6219,5.6219,5.6219,5.6219,5.6483,5.701,5.701,5.7336,5.7951,5.8504,5.9031,5.9483,5.9483,5.9483,5.9483,5.9483,5.9483,5.9483,0.0,0.0,0.0,0.0,0.0,0.0,0.0,0.0,0.0,0.0,0.0,0.0,0.0,0.0,0.0,0.0,0.0,0.0,2.67,2.67,2.6903,2.7342,2.8831,3.0219,3.1383,3.4833,3.8152,4.1272,4.0479,3.9943,3.9648,3.948,3.9122,3.8531,3.8091,3.8193,3.8531,3.6727,3.6129,3.64,3.5814,3.56,3.56,0.0,0.0,0.0,0.0,0.0,0.0,0.0,0.0,0.0,3.5417,3.5334,3.5366,3.8135,4.0255,4.2092,4.3838,4.6899,4.974,5.0106,5.1624,5.3354,5.461,5.473,5.5149,5.7124,5.7842,5.8175,5.8471,5.883,5.7994,5.4637,5.5721,5.5559,5.158,5.2646,5.3568,5.2765,5.2795,5.2895,5.2895,5.2895,5.3096,5.3658,5.427,5.4848,5.5365,5.5917,5.6219,5.6219,5.6219,5.6219,5.6219,5.6219,5.6219,5.6219,5.6559,5.6759,5.6759,5.6759,5.706,5.765,5.8014,5.829,5.8504,5.9056,5.9357,5.9483,5.9483,5.9483,5.9483,5.9483,5.9483,5.9483,0.0,0.0,0.0,0.0,0.0,0.0,0.0,0.0,2.6218,2.6632,2.67,2.67,0.0,0.0,0.0,2.67,2.67,2.67,2.67,2.67,2.6835,2.7122,2.8324,2.9745,3.1383,3.3886,3.6806,4.0134,3.9795,3.9423,3.9017,3.9762,3.9626,3.878,3.9073,3.9309,3.9343,3.764,3.6874,3.6761,3.6265,3.5881,3.5633,0.0,0.0,0.0,0.0,0.0,0.0,0.0,0.0,0.0,3.5523,3.5417,3.5658,3.9263,4.1575,4.3439,4.5663,4.8805,5.1385,5.1385,5.2791,5.4581,5.6017,5.6346,5.6765,5.8205,5.8504,5.8623,5.9039,5.9099,5.8364,5.6073,5.702,5.6729,5.3114,5.3922,5.4417,5.306,5.2895,5.2895,5.2895,5.3071,5.3457,5.4009,5.4597,5.5139,5.5691,5.6018,5.6219,5.6219,5.6219,5.6219,5.6219,5.6219,5.6319,5.6508,5.6835,5.7236,5.7663,5.7437,5.7675,5.8252,5.8805,5.9031,5.9056,5.9357,5.9483,5.9483,5.9483,5.9483,5.9483,5.9483,5.9483,5.9483,0.0,0.0,0.0,0.0,0.0,0.0,0.0,2.6285,2.67,2.67,2.67,2.67,0.0,0.0,0.0,2.67,2.67,2.67,2.67,2.67,2.6996,2.7689,2.8527,3.0354,3.3254,3.4032,3.5159,3.6682,3.8239,3.8949,3.8814,3.9762,4.0146,4.0032,4.0764,4.0751,4.013,3.9208,3.807,3.6885,3.675,3.6265,3.5667,3.64,0.0,0.0,0.0,0.0,0.0,0.0,0.0,0.0,3.478,3.506,3.6336,4.0111,4.309,4.5753,4.8319,5.1073,5.3198,5.3139,5.3773,5.5119,5.7547,5.8145,5.8354,5.8979,5.9099,5.9099,5.9099,5.9159,5.8847,5.7858,5.832,5.7888,5.5211,5.5312,5.5015,5.3325,5.2973,5.292,5.297,5.3432,5.3959,5.4622,5.5114,5.5616,5.6168,5.6219,5.6219,5.6219,5.6219,5.6219,5.6219,5.6219,5.6458,5.6985,5.706,5.7637,5.8666,5.8202,5.8278,5.8805,5.9282,5.9483,5.9483,5.9483,5.9483,5.9483,5.9483,5.9483,5.9483,5.9483,5.9483,5.9483,0.0,0.0,0.0,0.0,0.0,0.0,2.6395,2.6598,2.67,2.67,2.67,2.67,2.67,2.67,0.0,2.67,2.67,2.67,2.67,2.67,2.6759,2.6928,2.8256,3.0093,3.2486,3.3254,3.4359,3.5847,3.7956,3.8408,3.7337,3.9817,4.0371,3.9288,3.9999,4.0561,4.0798,3.8307,3.7427,3.755,3.6355,3.5735,3.5633,3.578,3.5735,0.0,0.0,0.0,0.0,0.0,0.0,0.0,3.5086,3.5434,3.609,3.8986,4.2053,4.4885,4.648,5.0002,5.3079,5.2546,5.4461,5.6765,5.7846,5.8504,5.8949,5.9069,5.9099,5.9099,5.9099,5.9518,5.9409,5.7945,5.9739,6.0238,5.7066,5.7113,5.6822,5.5082,5.3708,5.3046,5.3507,5.3632,5.411,5.5139,5.5315,5.5616,5.6168,5.6219,5.6219,5.6219,5.6219,5.6219,5.6219,5.6219,5.6458,5.701,5.7499,5.8077,5.8691,5.8604,5.883,5.9332,5.9433,5.9483,5.9483,5.9483,5.9483,5.9483,5.9483,5.9483,5.9483,5.9483,5.9483,5.9483,0.0,0.0,0.0,0.0,0.0,0.0,0.0,0.0,2.67,2.67,2.67,2.67,2.67,2.67,0.0,0.0,2.67,2.67,2.67,2.67,2.67,2.67,2.7807,2.8958,3.0108,3.1596,3.2882,3.4032,3.6265,3.7347,3.7359,3.9242,3.9749,3.9039,4.0506,4.098,4.0561,3.9039,3.8193,3.7843,3.7031,3.6253,3.5633,3.6028,3.5949,3.56,3.56,0.0,0.0,0.0,0.0,0.0,0.0,0.0,3.5645,3.8903,4.1754,4.4386,4.701,5.0391,5.3438,5.4311,5.6077,5.7752,5.8441,5.886,5.9099,5.9099,5.9099,5.9189,5.9518,5.9847,6.0045,5.985,6.1101,6.1318,5.9087,5.8317,5.7341,5.5617,5.392,5.3096,5.3658,5.3959,5.4461,5.5315,5.5641,5.5917,5.6194,5.6219,5.6219,5.6219,5.6219,5.6219,5.6219,5.6433,5.686,5.7449,5.8027,5.8579,5.9081,5.9081,5.9232,5.9483,5.9483,5.9483,5.9483,5.9483,5.9483,5.9483,5.9483,5.9483,5.9483,5.9483,5.9483,5.9483,0.0,0.0,0.0,0.0,0.0,0.0,0.0,0.0,0.0,2.67,2.67,2.67,2.67,2.67,2.67,0.0,0.0,0.0,2.67,2.67,2.6767,2.6894,2.7452,2.7858,2.7993,3.0108,3.1505,3.2124,3.419,3.6152,3.791,3.878,3.9186,3.9276,4.1238,4.142,4.0269,4.0142,3.9398,3.8282,3.8147,3.7335,3.6253,3.6784,3.6671,3.6186,3.6039,3.6017,3.596,3.5689,0.0,0.0,0.0,0.0,3.5384,3.9011,4.1605,4.4147,4.793,5.1133,5.3977,5.6466,5.7603,5.8264,5.8949,5.9099,5.9099,5.9099,5.9189,5.9428,5.9997,6.0294,6.0805,6.1912,6.2181,6.196,6.1081,5.9503,5.7787,5.6076,5.4469,5.3601,5.3818,5.4396,5.4974,5.5491,5.5968,5.6219,5.6219,5.6219,5.6219,5.6219,5.6219,5.6269,5.6344,5.6759,5.7336,5.8052,5.8604,5.9081,5.9483,5.9483,5.9483,5.9483,5.9483,5.9483,5.9483,5.9483,5.9483,5.9483,5.9483,5.9483,5.9483,5.9483,5.9483,5.9483,0.0,0.0,0.0,0.0,0.0,0.0,0.0,0.0,0.0,0.0,2.67,2.67,2.67,2.67,2.67,2.67,2.67,2.67,2.67,0.0,0.0,2.7621,2.7756,2.8137,2.8831,3.0388,3.1268,3.1336,3.2905,3.5137,3.791,3.9322,3.9965,4.0007,4.092,4.1238,4.1001,4.0379,4.0007,3.977,3.9106,3.8734,3.8497,3.7956,3.8091,3.8464,3.7809,3.7606,3.7388,3.611,3.5204,0.0,0.0,0.0,3.5799,3.8017,4.0876,4.3938,4.68,5.075,5.4551,5.6585,5.7603,5.8264,5.8949,5.9099,5.9099,5.9099,5.9548,5.9967,6.0057,6.1044,6.1882,6.2061,6.2599,6.2901,6.2759,6.1258,5.9536,5.785,5.6563,5.5493,5.4562,5.4974,5.5516,5.6068,5.6168,5.6219,5.6219,5.6219,5.6219,5.6219,5.6219,5.6408,5.6885,5.696,5.7537,5.8604,5.9156,5.9433,5.9483,5.9483,5.9483,5.9483,5.9483,5.9483,5.9483,5.9483,5.9483,5.9483,5.9483,5.9483,5.9483,5.9483,5.9483,5.9483,0.0,0.0,0.0,0.0,0.0,0.0,0.0,0.0,0.0,0.0,0.0,2.67,2.67,2.67,2.67,2.67,2.67,2.67,2.67,2.67,2.6826,2.7156,2.719,2.7334,2.7715,2.9204,3.0185,3.0581,3.2466,3.4742,3.7325,3.878,3.9918,4.0717,4.1068,4.0967,4.0608,4.0696,4.0493,4.0121,4.0189,4.046,4.0709,3.9592,3.9863,4.0709,3.9559,3.887,3.8427,3.7788,3.6509,3.5103,3.4394,0.0,0.0,0.0,3.9409,4.2741,4.7616,5.1229,5.4192,5.6526,5.7603,5.8264,5.8949,5.9099,5.9099,5.9099,5.9937,6.0655,6.0655,6.1463,6.2211,6.26,6.2928,6.3108,6.3108,6.1614,6.0381,5.9985,5.7814,5.6348,5.653,5.5858,5.5616,5.6168,5.6219,5.6219,5.6219,5.6219,5.6219,5.6219,5.6483,5.6759,5.6985,5.7637,5.834,5.9156,5.9382,5.9483,5.9483,5.9483,5.9483,5.9483,5.9483,5.9483,5.9483,5.9483,5.9483,5.9483,5.9483,5.9483,5.9483,5.9483,5.9483,5.9483,0.0,0.0,0.0,0.0,0.0,0.0,0.0,0.0,0.0,0.0,0.0,2.67,2.67,0.0,0.0,0.0,2.67,2.67,2.67,2.67,2.67,2.67,2.67,2.67,2.67,2.8197,2.9373,3.0098,3.233,3.4675,3.7122,3.8408,3.9783,4.1204,4.1204,4.0798,4.018,4.1068,4.117,4.0777,4.2083,4.2963,4.3349,4.2638,4.2894,4.3468,4.2253,0.0,0.0,3.9732,3.822,3.6343,3.5297,3.4886,0.0,0.0,0.0,4.2342,4.7736,5.0787,5.3054,5.5718,5.7004,5.7842,5.868,5.8979,5.9099,5.9099,6.0176,6.1076,6.1076,6.1792,6.2539,6.3018,6.3108,6.3108,6.3108,6.2087,6.1425,6.1493,5.9068,5.7758,5.8708,5.7275,5.6437,5.687,5.6895,5.6678,5.6219,5.6219,5.6219,5.6219,5.6709,5.706,5.7211,5.8315,5.9106,5.9483,5.9483,5.9483,5.9483,5.9483,5.9483,5.9483,5.9483,5.9483,5.9483,5.9483,5.9483,5.9483,5.9483,5.9483,5.9483,5.9483,5.9483,5.9508,0.0,0.0,0.0,0.0,0.0,0.0,0.0,0.0,0.0,0.0,0.0,2.67,2.67,2.67,2.67,2.67,2.67,2.67,2.67,2.67,2.67,2.67,2.67,0.0,2.67,2.8197,2.9373,3.0098,3.233,3.4901,3.7855,3.8633,3.9783,4.1204,4.1204,4.0798,4.0168,4.1623,4.2232,4.2435,4.5345,4.6515,4.6733,4.8037,4.8001,4.7144,4.6656,0.0,0.0,0.0,4.0087,3.8382,3.6391,3.562,3.5584,0.0,0.0,0.0,4.5882,4.8394,5.0996,5.3658,5.5329,5.6641,5.7846,5.865,5.9099,5.9099,6.0176,6.1076,6.1076,6.2151,6.3078,6.3108,6.3108,6.3108,6.3108,6.3499,6.3239,6.1673,6.0818,6.0463,6.0618,5.9475,5.8736,5.8789,5.8789,5.8002,5.6267,5.6219,5.6219,5.6219,5.6709,5.7261,5.7851,5.8905,5.9458,5.9483,5.9483,5.9483,5.9483,5.9483,5.9483,5.9483,5.9483,5.9483,5.9483,5.9483,5.9483,5.9483,5.9483,5.9483,5.9483,5.9483,5.9483,5.9558,0.0,0.0,0.0,0.0,0.0,0.0,0.0,0.0,0.0,0.0,0.0,0.0,0.0,2.67,2.67,2.67,2.67,2.67,2.67,2.67,2.67,2.67,2.67,2.67,2.67,2.8197,2.9145,2.9407,3.207,3.4201,3.5757,3.7483,3.8599,3.9128,4.0548,4.0798,4.018,4.1183,4.2151,4.3165,4.4978,4.6873,4.8564,4.838,4.8656,0.0,0.0,0.0,0.0,0.0,4.1898,4.0188,3.7731,3.7173,3.7551,3.8168,4.0127,4.2611,4.5005,4.698,4.9082,5.2157,5.4251,5.5987,5.7696,5.862,5.9219,5.9638,6.0475,6.1076,6.1076,6.2181,6.3108,6.3108,6.3108,6.3108,6.3108,6.3617,6.395,6.3771,6.2904,6.2515,6.3009,6.1558,6.0161,5.8973,5.8903,5.8108,5.6303,5.6219,5.6369,5.6684,5.7298,5.8027,5.8905,5.9307,5.9483,5.9483,5.9483,5.9483,5.9483,5.9483,5.9483,5.9483,5.9483,5.9483,5.9483,5.9483,5.9483,5.9483,5.9483,5.9483,5.9483,5.9483,5.9483,5.9583,0.0,0.0,0.0,0.0,0.0,2.6767,2.7029,2.7063,2.7063,0.0,0.0,0.0,0.0,0.0,2.6801,2.7063,2.7063,2.7165,2.7444,2.7232,2.7199,2.7444,2.697,2.6936,2.7444,2.8468,2.9247,2.9745,3.1945,3.366,3.4912,3.6422,3.7403,3.7944,3.9445,3.9952,3.9795,4.1035,4.2138,4.3239,4.5656,4.7885,4.9772,4.9894,5.0574,5.1276,4.9984,0.0,0.0,4.6571,4.5209,4.35,4.0789,3.9291,3.8581,3.9223,4.0038,4.1254,4.3678,4.5274,4.698,4.9853,5.2396,5.464,5.638,5.7992,5.9219,5.9668,6.0475,6.1016,6.0805,6.1852,6.2838,6.3078,6.3108,6.3168,6.3377,6.3947,6.4575,6.5263,6.4334,6.4072,6.5078,6.3574,6.1763,5.9954,6.0367,5.9392,5.634,5.6787,5.7153,5.7298,5.7876,5.8604,5.9483,5.9483,5.9483,5.9483,5.9483,5.9483,5.9483,5.9483,5.9483,5.9483,5.9483,5.9483,5.9483,5.9483,5.9483,5.9483,5.9483,5.9483,5.9483,5.9483,5.9483,5.9608,0.0,0.0,0.0,0.0,2.67,2.6928,2.7655,2.7824,2.7858,0.0,0.0,0.0,0.0,0.0,0.0,2.7824,2.7849,2.8171,2.8942,2.8281,2.8171,2.8976,2.7579,2.7478,2.8976,2.901,2.9745,3.1166,3.1911,3.34,3.5532,3.5566,3.6389,3.7843,3.7855,3.8294,3.9153,4.1352,4.23,4.278,4.7621,4.9775,5.0416,5.2997,5.4029,5.3996,5.3138,5.2216,5.1383,5.1092,4.9973,4.8204,4.5457,4.1797,0.0,0.0,3.9451,3.9858,0.0,0.0,0.0,4.6741,4.9733,5.2516,5.3862,5.6705,5.9039,5.9069,6.0149,6.0894,6.0206,6.1194,6.2301,6.2958,6.3078,6.3317,6.3887,6.4575,6.5233,6.5892,6.504,6.5073,6.6815,6.5389,6.3606,6.183,6.3313,6.1931,5.6594,5.7921,5.8573,5.7951,5.8453,5.8981,5.9483,5.9483,5.9483,5.9483,5.9483,5.9483,5.9483,5.9483,5.9483,5.9483,5.9483,5.9483,5.9483,5.9483,5.9483,5.9483,5.9483,5.9483,5.9483,5.9483,5.9483,5.9659,0.0,0.0,0.0,2.7384,2.7055,2.6767,2.6962,2.7943,2.8662,0.0,0.0,0.0,0.0,0.0,0.0,2.9456,2.8991,2.8764,2.8976,2.8798,2.8764,2.8976,2.8604,2.857,2.8976,2.9508,3.0006,3.0403,3.1674,3.2892,3.4021,3.4539,3.5318,3.6253,3.684,3.7799,3.9119,4.0798,4.2455,4.4246,4.7505,4.9634,5.0997,5.2541,5.3583,5.4137,5.3906,5.3354,5.2459,5.093,4.9538,4.7951,4.5213,4.2965,0.0,0.0,0.0,0.0,4.0786,0.0,0.0,0.0,0.0,0.0,5.3174,5.5628,5.7782,5.8264,5.982,6.0894,6.0206,6.1194,6.2002,6.1702,6.245,6.3168,6.3347,6.4306,6.5084,6.5233,6.5855,6.6446,6.6968,6.6539,6.5513,6.3671,6.4024,6.2496,5.8366,5.8181,5.8286,5.8478,5.9006,5.9357,5.9483,5.9483,5.9483,5.9483,5.9483,5.9483,5.9483,5.9483,5.9483,5.9483,5.9483,5.9483,5.9483,5.9483,5.9483,5.9483,5.9483,5.9483,5.9483,5.9483,5.9483,5.9659,0.0,0.0,2.7393,2.818,2.7952,2.7859,2.8493,2.961,3.0364,0.0,0.0,0.0,0.0,0.0,0.0,0.0,3.0625,3.0364,3.0364,3.0083,2.9924,2.9924,2.9314,2.9281,2.989,3.004,3.0234,3.0548,3.1437,3.2215,3.2949,3.3694,3.4438,3.5205,3.6637,3.8091,3.9614,4.2049,4.3842,4.525,4.7388,4.9484,5.1456,5.2369,5.3729,5.5088,5.4867,5.457,5.4146,5.3074,5.1109,4.8925,4.7908,4.5394,0.0,0.0,0.0,0.0,0.0,0.0,4.3229,4.4227,0.0,0.0,5.2007,5.461,5.6974,5.7905,5.9488,6.0565,6.0174,6.0954,6.1553,6.1136,6.2002,6.2778,6.3078,6.3947,6.4785,6.5353,6.5862,6.64,6.6939,6.6759,6.5964,6.441,6.501,6.3862,6.023,5.9382,5.8801,5.8378,5.9106,5.9483,5.9483,5.9483,5.9483,5.9483,5.9483,5.9483,5.9483,5.9483,5.9483,5.9483,5.9483,5.9483,5.9483,5.9483,5.9483,5.9483,5.9483,5.9483,5.9483,5.9483,5.9483,5.9659,0.0,0.0,2.8171,2.8967,2.9111,2.9542,3.0886,3.1911,3.253,0.0,0.0,0.0,0.0,0.0,0.0,0.0,3.2632,3.253,3.253,3.1843,3.1403,3.1336,3.0059,2.9958,3.1166,3.0548,3.0548,3.12,3.12,3.1606,3.2429,3.3085,3.3897,3.4855,3.6975,3.8824,4.0582,4.4113,4.5834,4.6342,4.7779,4.9742,5.1936,5.2592,5.4402,5.655,5.6137,5.6135,5.6357,5.6244,5.3683,5.0697,5.1678,4.8334,4.4117,0.0,4.2701,0.0,0.0,0.0,0.0,0.0,4.5702,0.0,5.0361,5.3234,5.5897,5.7158,5.862,5.9665,5.9665,6.0266,6.0775,6.0775,6.1403,6.2091,6.278,6.3378,6.4246,6.5533,6.5203,6.5383,6.664,6.6251,6.5492,6.4581,6.5672,6.5039,6.1874,6.0784,5.961,5.8014,5.8956,5.9483,5.9483,5.9483,5.9483,5.9483,5.9483,5.9483,5.9483,5.9483,5.9483,5.9483,5.9483,5.9483,5.9483,5.9483,5.9483,5.9483,5.9483,5.9483,5.9483,5.9483,5.9483,5.9633,2.9905,2.9262,2.9001,2.9736,2.9905,2.9963,3.0267,3.2442,3.4077,3.4077,0.0,0.0,0.0,0.0,0.0,0.0,0.0,3.4077,3.4077,3.3389,3.2713,3.2124,3.1819,3.1505,3.12,3.1065,3.1065,3.12,3.12,3.1867,3.3186,3.3311,3.4472,3.6389,3.7449,3.9377,4.1982,4.3992,4.666,4.9664,5.0645,5.1782,5.3006,5.3944,5.5741,5.7833,5.8267,5.8787,5.8968,5.6899,5.4606,5.2366,5.1026,4.9777,4.8252,4.5194,0.0,0.0,0.0,0.0,0.0,0.0,4.5014,0.0,4.7848,4.977,5.1744,5.3084,5.5269,5.6971,5.6971,5.7902,5.8683,5.8683,5.9697,6.0715,6.1403,6.2061,6.275,6.3587,6.3977,6.4515,6.5293,6.5263,6.5323,6.5645,6.3801,6.252,6.228,5.9797,5.8453,5.8554,5.9182,5.9483,5.9483,5.9483,5.9483,5.9483,5.9483,5.9483,5.9483,5.9483,5.9483,5.9483,5.9483,5.9483,5.9483,5.9483,5.9483,5.9483,5.9483,5.9483,5.9483,5.9483,5.9483,5.9583,3.0649,3.004,2.9914,3.0987,3.12,3.1461,3.2171,3.4212,3.5633,0.0,0.0,0.0,0.0,0.0,0.0,0.0,0.0,0.0,3.6738,3.6062,3.5148,3.3998,3.3964,3.3423,3.2307,3.1945,3.1742,3.1742,3.1369,3.1775,3.2858,3.3592,3.5439,3.8122,3.9106,4.1688,4.5384,4.6746,4.9361,5.2487,5.1732,5.2655,5.4559,5.552,5.7014,5.8713,5.9757,6.0086,5.9815,5.7812,5.5807,5.4012,5.3025,5.1535,4.977,4.7459,4.6082,4.4855,0.0,0.0,0.0,4.322,0.0,0.0,0.0,4.9052,5.0488,5.1475,5.3563,5.5299,5.5653,5.6496,5.7244,5.7573,5.874,5.9368,5.874,6.0924,6.272,6.3078,6.3049,6.3318,6.4006,6.4066,6.4605,6.5922,6.4652,6.3245,6.2044,6.113,5.9871,5.8341,5.9081,5.9483,5.9483,5.9483,5.9483,5.9483,5.9483,5.9483,5.9483,5.9483,5.9483,5.9483,5.9483,5.9483,5.9483,5.9483,5.9483,5.9483,5.9483,5.9483,5.9483,5.9483,5.9483,5.9583,3.12,3.0717,3.0717,3.2056,3.2429,3.2994,3.4483,3.6005,3.7156,0.0,0.0,0.0,0.0,0.0,0.0,0.0,0.0,0.0,4.01,3.9377,3.835,3.6963,3.6219,3.534,3.4292,3.3129,3.2496,3.2496,3.1911,3.208,3.296,3.4313,3.6592,3.9593,4.1208,4.4212,4.8133,4.9891,5.2118,5.4395,5.2785,5.3762,5.6348,5.7309,5.841,5.9668,6.1014,6.1044,6.0326,5.9249,5.7573,5.5867,5.5508,5.3623,5.1236,4.9726,0.0,0.0,0.0,0.0,0.0,0.0,0.0,4.5753,0.0,0.0,0.0,5.0278,5.1714,5.3114,5.3922,5.4581,5.5174,5.5538,5.7034,5.7513,5.5683,5.9306,6.221,6.2329,6.2181,6.2241,6.266,6.3287,6.4126,6.5353,6.5827,6.4692,6.1564,6.2632,6.1648,5.7989,5.9287,5.9907,5.9483,5.9483,5.9483,5.9483,5.9483,5.9483,5.9483,5.9483,5.9483,5.9483,5.9483,5.9483,5.9483,5.9483,5.9483,5.9483,5.9483,5.9483,5.9483,5.9483,5.9483,5.9558,3.12,3.1133,3.1336,3.2158,3.2858,3.3751,3.5239,3.6794,3.8497,0.0,0.0,0.0,0.0,0.0,0.0,0.0,0.0,4.6075,4.4093,4.3234,4.2408,4.1589,3.8408,3.6885,3.7369,3.4709,3.3288,3.3288,3.3186,3.3852,3.5239,3.6141,3.7773,4.0166,4.3229,4.545,4.7203,5.0916,5.3173,5.4365,5.5378,5.6756,5.8309,5.9376,6.0219,6.1074,6.2391,6.2421,6.1852,6.1702,6.0326,5.8351,5.6641,5.6192,5.5388,5.0684,4.9883,0.0,0.0,0.0,0.0,0.0,4.4766,4.5514,4.633,0.0,4.6232,4.7489,0.0,4.8476,4.9726,0.0,0.0,5.0265,5.2755,5.4281,5.2845,5.6137,5.889,5.9488,6.1044,6.1912,6.1373,6.3977,6.5054,6.3557,6.5191,6.4622,6.0911,6.2418,6.1693,5.8014,6.0634,6.124,5.9521,5.9483,5.9483,5.9483,5.9483,5.9483,5.9483,5.9483,5.9483,5.9483,5.9483,5.9483,5.9483,5.9483,5.9483,5.9483,5.9483,5.9483,5.9483,5.9483,5.9483,5.9508,3.12,3.1539,3.208,3.2824,3.3558,3.4539,3.6062,3.7934,4.0134,4.2807,0.0,0.0,0.0,0.0,0.0,0.0,4.7954,4.7853,4.7815,4.7056,0.0,4.3721,4.1711,4.0155,3.9186,3.711,3.5791,3.5362,3.5362,3.5453,3.5633,3.7313,3.96,4.244,4.5062,4.7576,5.0102,5.3282,5.5677,5.7427,5.9217,6.0622,6.1514,6.0486,6.0995,6.2331,6.2898,6.2928,6.26,6.2211,6.1283,6.0057,5.883,5.8082,5.7094,5.4156,5.2869,5.1738,4.8903,4.8155,4.7706,4.5912,4.6561,4.7391,4.651,4.6061,4.5933,4.6112,0.0,0.0,0.0,0.0,0.0,0.0,5.1379,5.2576,5.1236,5.4491,5.7214,5.7872,5.9039,5.9847,5.9937,6.26,6.3977,6.3168,6.4987,6.4986,6.2304,6.3966,6.328,5.9558,6.1363,6.1467,5.9521,5.9483,5.9483,5.9483,5.9483,5.9483,5.9483,5.9483,5.9483,5.9483,5.9483,5.9483,5.9483,5.9483,5.9483,5.9483,5.9483,5.9483,5.9483,5.9483,5.9483,5.9483,3.1234,3.1775,3.252,3.3288,3.4167,3.5453,3.7405,3.9592,4.186,4.4262,4.5311,4.6293,4.7579,4.8612,4.9593,0.0,5.0761,5.1032,5.1335,5.0642,4.9458,4.7714,4.5331,4.3673,4.2841,4.0189,3.8531,3.8002,3.7799,3.7415,3.6862,3.914,4.1479,4.3883,4.6765,4.9505,5.214,5.5138,5.7506,5.9444,6.1285,6.259,6.322,6.1554,6.185,6.3108,6.3108,6.3108,6.3048,6.254,6.1942,6.1253,6.0595,5.9727,5.8623,5.7154,5.5713,5.4012,5.1654,5.1026,5.0428,4.7975,4.8596,4.9396,4.7736,4.7108,4.6621,4.5753,4.5672,0.0,0.0,0.0,0.0,0.0,0.0,5.0099,4.8783,5.1887,5.4725,5.5867,5.6944,5.7992,5.9009,6.1672,6.3227,6.2868,6.5144,6.5517,6.3161,6.5335,6.4988,6.1479,6.2521,6.2238,6.0304,5.9792,5.9483,5.9483,5.9483,5.9483,5.9483,5.9483,5.9483,5.9483,5.9483,5.9483,5.9483,5.9483,5.9483,5.9483,5.9483,5.9483,5.9483,5.9483,5.9483,5.9508,3.1336,3.1775,3.252,3.3288,3.4596,3.6558,3.9525,4.188,4.3592,4.4499,4.7105,4.9154,4.9914,5.3247,5.5141,5.4482,5.7002,5.7457,5.4634,5.3754,5.394,5.5293,4.9104,4.6921,4.971,4.4079,4.1068,4.1068,4.0345,3.9973,4.0011,4.2219,4.3328,4.363,4.8299,5.0823,5.1773,5.5687,5.787,5.885,6.0284,6.1397,6.2208,6.2778,6.3048,6.3108,6.3108,6.3108,6.3108,6.3078,6.26,6.1942,6.1283,6.1016,6.0597,5.8623,5.7995,5.7218,5.3982,5.3109,5.2606,5.0578,5.0607,5.0936,5.0249,4.9112,4.7848,4.654,4.5254,4.4356,4.4356,0.0,0.0,0.0,0.0,0.0,0.0,4.7391,5.0474,5.3019,5.5055,5.703,5.8919,6.2061,6.3468,6.2211,6.5742,6.6288,6.2524,6.5922,6.6516,6.3425,6.4473,6.421,6.2338,6.0431,5.9483,5.9483,5.9483,5.9483,5.9483,5.9483,5.9483,5.9483,5.9483,5.9483,5.9483,5.9483,5.9483,5.9483,5.9483,5.9483,5.9483,5.9483,5.9483,5.9558,3.2814,3.3264,3.367,3.3446,3.5047,3.7381,4.0358,4.2273,4.4404,4.7158,4.9221,5.115,5.2891,5.4668,5.5969,5.6715,5.8152,5.8573,5.7577,5.7273,5.6494,5.504,5.1336,4.9593,5.0083,4.6684,4.4418,4.345,4.2692,4.1766,4.0865,4.2577,4.3574,4.4047,4.8285,5.0655,5.1738,5.5516,5.8363,6.0418,6.2198,6.3091,6.3378,6.3588,6.3677,6.3737,6.4216,6.4366,6.4366,6.4366,6.4216,6.3887,6.3228,6.275,6.2181,6.1074,6.0116,5.9069,5.7513,5.7423,5.7064,5.4221,5.4311,5.4581,5.2636,5.1169,4.9949,4.9082,4.7497,4.6151,0.0,0.0,0.0,0.0,0.0,0.0,0.0,4.7369,4.8798,4.9224,5.2965,5.5983,5.709,6.0535,6.2181,6.0864,6.4036,6.5262,6.3534,6.5887,6.6683,6.523,6.4784,6.3866,6.2386,6.0469,5.9483,5.9483,5.9483,5.9483,5.9483,5.9483,5.9483,5.9483,5.9483,5.9483,5.9483,5.9483,5.9483,5.9483,5.9483,5.9483,5.9483,5.9483,5.9483,5.9633,3.3592,3.4201,3.4844,3.4641,3.6671,3.9174,4.1597,4.3693,4.6061,4.9018,5.115,5.3179,5.5141,5.6528,5.7762,5.8998,6.0013,6.0366,5.9859,5.9362,5.8465,5.7018,5.4352,5.3024,5.3264,5.0304,4.8139,4.6955,4.5399,4.3842,4.2422,4.3569,4.4241,4.4653,4.7937,5.0459,5.2421,5.531,5.8314,6.1283,6.3228,6.4006,6.4036,6.4545,6.4575,6.4425,6.4845,6.4994,6.4994,6.4994,6.4994,6.4904,6.4515,6.4096,6.3677,6.3258,6.251,6.1613,6.0475,6.0475,6.0116,5.7274,5.7184,5.7304,5.5388,5.3922,5.2785,5.2103,5.0219,4.8716,4.8745,0.0,0.0,0.0,0.0,0.0,0.0,4.683,4.7361,4.7608,5.1289,5.4311,5.5713,5.9216,6.1313,6.1192,6.3348,6.4485,6.4006,6.5473,6.6326,6.6429,6.4983,6.3824,6.3034,6.0683,5.9483,5.9483,5.9483,5.9483,5.9483,5.9483,5.9483,5.9483,5.9483,5.9483,5.9483,5.9483,5.9483,5.9483,5.9483,5.9483,5.9483,5.9483,5.9759,6.0236,3.3954,3.4867,3.6118,3.6919,3.9377,4.1779,4.3288,4.6061,4.8563,5.0101,5.2959,5.5361,5.6829,5.8905,6.0507,6.1259,6.2642,6.2878,6.1461,6.0187,6.0018,6.1298,5.8018,5.7064,5.9028,5.4702,5.2063,5.1302,4.8262,4.608,4.4756,4.5147,4.5305,4.5374,4.7337,5.0205,5.3691,5.5037,5.7801,6.1345,6.3228,6.4036,6.4246,6.5533,6.5622,6.5084,6.5084,6.5084,6.5084,6.5144,6.5144,6.5144,6.5144,6.5144,6.5144,6.5084,6.5024,6.4575,6.272,6.2181,6.1732,5.9787,5.9308,5.9129,5.8444,5.7304,5.6192,5.5508,5.3324,5.1864,5.3139,5.0684,0.0,0.0,0.0,0.0,0.0,0.0,4.6172,4.7989,5.0032,5.2282,5.485,5.8082,6.0862,6.2778,6.3588,6.3977,6.3947,6.4635,6.5622,6.6939,6.5168,6.4169,6.4197,6.108,5.9483,5.9483,5.9483,5.9483,5.9483,5.9483,5.9483,5.9483,5.9483,5.9483,5.9483,5.9483,5.9483,5.9483,5.9483,5.9508,5.9533,5.9533,6.0236,6.1266,3.7855,3.8768,4.0007,4.0777,4.1521,4.2726,4.4776,4.7631,5.0473,5.3078,5.6021,5.8291,5.9337,6.102,6.1936,6.161,6.245,6.2784,6.2358,6.2026,6.1932,6.2172,5.9733,5.8833,5.9825,5.5987,5.3653,5.2892,4.8656,4.6737,4.7012,4.5194,4.5147,4.6553,4.6931,4.9426,5.3344,5.4219,5.7685,6.266,6.3617,6.4605,6.5533,6.5892,6.6191,6.649,6.649,6.649,6.655,6.7059,6.7239,6.7239,6.7239,6.7239,6.7029,6.6041,6.5383,6.4785,6.3797,6.3498,6.3288,6.2301,6.209,6.191,6.1224,6.0027,5.8916,5.8231,5.6765,5.5538,5.5444,5.3084,5.1349,0.0,0.0,0.0,0.0,0.0,0.0,4.695,5.0301,5.2959,5.3648,5.7124,5.9578,6.0086,6.254,6.3797,6.3348,6.4874,6.6131,6.6969,6.4737,6.3749,6.4197,6.108,5.9483,5.9483,5.9483,5.9483,5.9483,5.9483,5.9483,5.9483,5.9483,5.9483,5.9483,5.9483,5.9483,5.9483,5.9483,5.9734,6.0111,6.0111,6.0563,6.1266,3.9783,4.092,4.251,4.3606,4.5128,4.6515,4.7462,4.9864,5.2638,5.5649,5.7861,5.9838,6.162,6.2393,6.2839,6.3068,6.4055,6.4494,6.4132,6.3886,6.3668,6.3515,6.121,6.0218,6.0793,5.7562,5.5431,5.4598,5.1025,4.8729,4.7719,4.6184,4.5949,4.6818,4.6614,4.9178,5.3773,5.6196,5.9488,6.3197,6.4066,6.5084,0.0,6.664,6.7089,6.7479,6.7777,6.7687,6.7568,6.8227,6.8466,6.8466,6.8466,6.8466,6.8317,6.7537,6.7059,6.661,6.5922,6.5772,6.5503,6.4605,6.4156,6.3827,6.3468,6.2121,6.1014,6.1224,5.9727,5.8587,5.9126,5.6795,5.4431,5.3264,0.0,0.0,0.0,0.0,0.0,0.0,5.0278,5.2007,5.2306,5.6974,6.0116,6.0386,6.2391,6.3558,6.3527,6.4276,6.5144,6.6101,6.481,6.4023,6.3811,6.178,6.0342,5.9483,5.9483,5.9483,5.9483,5.9483,5.9483,5.9483,5.9483,5.9483,5.9483,5.9483,5.9483,5.9483,5.9483,5.9834,6.0322,6.0613,6.1065,6.1617,4.136,4.2679,4.4471,4.6007,4.9172,5.1355,5.0921,5.2623,5.4948,5.7695,5.8986,6.0565,6.3046,6.3043,6.3306,6.4425,6.5625,6.6118,6.5573,6.5102,6.4796,6.4719,6.2435,6.1377,6.183,5.9152,5.7227,5.6208,5.3837,5.1153,4.8192,4.758,4.717,4.7002,4.6803,4.962,5.488,5.9221,6.1972,6.3467,6.4545,6.5503,6.64,6.7568,6.8047,6.8227,6.8884,6.8675,6.8227,6.8884,6.9123,6.9153,6.9213,6.9243,6.9243,6.9153,6.9064,6.8854,6.8197,6.7987,6.7718,6.655,6.5832,6.5383,6.5383,6.3947,6.2899,6.3917,6.2331,6.1224,6.2808,6.0565,5.7696,5.5239,5.4281,0.0,0.0,0.0,0.0,0.0,0.0,0.0,5.1565,5.7038,6.0835,6.1403,6.2569,6.3348,6.3737,6.3587,6.3947,6.4964,6.4737,6.431,6.3688,6.2494,6.1238,5.9869,5.9599,5.9483,5.9483,5.9483,5.9483,5.9483,5.9483,5.9483,5.9483,5.9483,5.9483,5.9508,5.9583,5.9935,6.0512,6.109,6.1642,6.2169,4.6602,4.6838,4.7582,4.9052,5.142,5.3497,5.4779,5.582,5.7113,5.8837,6.0335,6.1305,6.1389,6.2336,6.288,6.2602,6.2829,6.3149,6.3548,6.3477,6.3672,6.4116,6.314,6.2575,6.262,6.034,5.8527,5.7236,5.369,5.1778,5.1325,4.8574,4.7953,4.9139,4.89,5.1702,5.6795,5.9817,6.2482,6.4665,6.4904,6.6071,6.7688,6.7928,6.8347,6.8914,6.9572,6.9393,6.8914,6.9602,6.9812,6.9901,7.041,7.056,7.047,6.9961,6.9423,6.8854,6.8197,6.7987,6.7928,6.7718,6.7568,6.7479,6.7479,6.634,6.5233,6.4874,6.4456,6.3947,6.3227,6.1702,6.0059,5.8501,5.7693,5.7158,0.0,0.0,0.0,0.0,0.0,5.5901,5.3868,5.6166,5.7842,5.7962,6.1613,6.3408,6.248,6.4366,6.5353,6.5024,6.3065,6.3196,6.5588,6.144,6.0186,6.1853,6.0265,5.9483,5.9483,5.9483,5.9483,5.9483,5.9483,5.9483,5.9483,5.9483,5.9483,5.9533,6.001,6.0512,6.109,6.1667,6.222,6.2656,4.8462,4.9713,5.1048,5.1725,5.4112,5.6364,5.7553,5.8162,5.8997,6.0392,6.063,6.1177,6.2362,6.2503,6.2549,6.2626,6.3278,6.3789,6.4094,6.4125,6.4248,6.4565,6.3214,6.2463,6.2426,6.0733,5.9092,5.7598,5.6155,5.4231,5.1978,5.1128,5.0822,5.1091,5.3387,5.5777,5.8321,6.1343,6.3529,6.5054,6.5742,6.6819,6.8077,6.8766,6.9245,6.9602,7.0231,7.026,7.0021,7.035,7.047,7.05,7.0799,7.0889,7.0829,7.056,7.0231,6.9931,6.9572,6.9482,6.9423,6.9125,6.8796,6.8585,6.8975,6.7717,6.652,6.655,6.6011,6.5233,6.4276,6.3288,6.2181,6.0864,6.0386,5.9817,5.877,0.0,0.0,0.0,0.0,0.0,0.0,5.7004,5.8291,5.862,6.1672,6.3378,6.3109,6.4276,6.4994,6.4994,6.3555,6.3412,6.4617,6.1954,6.0706,6.0862,5.9946,5.9483,5.9483,5.9483,5.9483,5.9483,5.9483,5.9483,5.9483,5.9483,5.9659,5.996,6.0211,6.0839,6.1642,6.1893,6.2345,6.2781,5.0371,5.2604,5.4396,5.4288,5.6724,5.8784,5.9112,5.9673,6.0365,6.142,6.0819,6.1138,6.3363,6.2829,6.251,6.3048,6.4069,6.4648,6.4648,6.4648,6.4648,6.4648,6.3163,6.2241,6.2091,6.1044,5.9767,5.8185,5.8633,5.6537,5.2133,5.3653,5.405,5.3623,5.7423,5.9338,5.9937,6.278,6.4395,6.5114,6.646,6.7478,6.8347,6.9544,7.0083,7.0231,7.0739,7.0889,7.0889,7.0889,7.0889,7.0889,7.0889,7.0889,7.0889,7.0889,7.0889,7.0889,7.0889,7.0889,7.0829,7.047,6.9991,6.9782,7.044,6.9273,6.8106,6.8377,6.7119,6.5892,6.5503,6.4665,6.3797,6.3228,6.266,6.1882,6.0745,0.0,0.0,0.0,0.0,0.0,5.736,5.886,6.0206,6.0864,6.215,6.3168,6.3767,6.4066,6.4605,6.5383,6.4173,6.3786,6.4291,6.2538,6.1137,6.0112,5.9714,5.9483,5.9483,5.9483,5.9483,5.9483,5.9483,5.9483,5.9508,5.9608,5.9935,6.0297,6.0588,6.1215,6.2019,6.2144,6.2446,6.2781,5.482,5.6393,5.7334,5.6855,5.8671,5.988,5.8892,5.9916,6.0825,6.0952,6.1518,6.199,6.226,6.2716,6.3048,6.3108,6.3193,6.3279,6.3279,6.3279,6.3279,6.3279,6.3134,6.272,6.2121,6.1972,6.125,5.9888,5.9321,5.7006,5.3104,5.508,5.6535,5.7576,5.865,6.0116,6.1912,6.3378,6.4395,6.5114,6.646,6.7777,6.8974,6.9692,7.032,7.0829,7.0889,7.0889,7.0889,7.0889,7.0889,7.0889,7.0889,7.0889,7.0889,7.0889,7.0889,7.0889,7.0889,7.0889,7.1038,7.1577,7.1667,7.1787,7.2475,7.1996,7.1131,7.0053,6.7777,6.6161,6.67,6.5263,6.4545,6.6251,6.4575,6.3587,6.5144,6.3258,6.1942,0.0,0.0,0.0,6.0627,6.1912,6.2988,6.3588,6.275,6.248,6.3168,6.4276,6.5473,6.6759,6.3452,6.3577,6.7609,6.1943,6.0085,6.2115,6.0342,5.9483,5.9483,5.9483,5.9483,5.9483,5.9483,5.9483,5.9533,6.0035,6.0261,6.0412,6.1441,6.1918,6.2069,6.2571,6.2756,6.2781,5.7491,5.8232,5.8926,5.9571,6.0232,6.0672,6.0634,6.1206,6.1604,6.1604,6.1889,6.2241,6.266,6.2958,6.3108,6.3108,6.3108,6.3108,6.3108,6.3108,6.3108,6.3108,6.3108,6.2988,6.2718,6.2718,6.2032,6.0715,6.0835,5.9458,5.6765,5.8381,5.9638,6.0565,6.1583,6.248,6.3318,6.4635,6.5592,6.6311,6.7657,6.8764,6.9662,7.029,7.0679,7.0889,7.0889,7.0889,7.0889,7.0889,7.0889,7.0889,7.0889,7.0889,7.0889,7.0889,7.0889,7.0979,7.1398,7.1487,7.1667,7.2325,7.2505,7.2684,7.3343,7.2984,7.2355,7.1846,6.9303,6.7388,6.8076,6.6879,6.5922,6.634,6.5862,6.5413,6.5383,6.4156,0.0,6.3588,0.0,0.0,0.0,6.3258,6.3857,6.2929,6.4216,6.4964,6.4844,6.5323,6.6041,6.6969,6.3313,6.276,6.5711,6.1361,5.9679,6.066,5.9869,5.9483,5.9483,5.9483,5.9483,5.9483,5.9483,5.9684,6.001,6.0236,6.0713,6.1366,6.1818,6.222,6.2521,6.2706,6.2781,6.2781,5.951,5.9886,6.0325,6.1348,6.1516,6.1628,6.1917,6.2047,6.2181,6.2361,6.2391,6.257,6.3048,6.3108,6.3108,6.3108,6.3108,6.3108,6.3108,6.3287,6.3348,6.3348,6.3528,6.3558,6.3377,6.3348,6.281,6.1702,6.2151,6.1164,5.883,5.9578,6.1014,6.2989,6.3677,6.4216,6.4665,6.6011,6.6759,6.7119,6.8675,6.9572,7.0083,7.0679,7.0889,7.0889,7.0889,7.0889,7.0889,7.0889,7.0889,7.0889,7.0889,7.0889,7.0889,7.0889,7.1038,7.1308,7.1757,7.2026,7.2355,7.3043,7.3193,7.3373,7.4031,7.3821,7.3373,7.2984,7.0889,6.9185,6.9273,6.8345,6.7508,6.7208,6.6909,6.652,6.5981,6.4814,6.4216,6.4814,6.4725,6.4306,6.3588,6.5144,6.5353,6.3408,6.5922,6.6939,6.5503,6.5802,6.64,6.7269,6.3597,6.2522,6.4481,6.1158,5.9483,5.9483,5.9483,5.9483,5.9483,5.9483,5.9483,5.9508,5.9659,5.996,6.0337,6.0688,6.1291,6.2019,6.2195,6.2496,6.2781,6.2781,6.2781,6.2781,6.1085,6.1536,6.1724,6.1872,6.2495,6.2779,6.2196,6.2091,6.2331,6.3018,6.3108,6.3108,6.3108,6.3108,6.3108,6.3108,6.3108,6.3108,6.3108,6.3647,6.3977,6.3977,6.4605,6.4665,6.4006,6.3977,6.3677,6.3078,6.3078,6.1373,5.8085,5.7453,5.9937,6.4934,6.4306,6.4755,6.6071,6.7419,6.7598,6.7178,6.9153,6.9993,7.0083,7.0679,7.0889,7.0889,7.0889,7.0889,7.0889,7.0889,7.0889,7.0889,7.0889,7.0889,7.0889,7.0889,7.1368,7.1876,7.1876,7.2385,7.3073,7.3732,7.3881,7.4061,7.4753,7.4903,7.448,7.3193,7.2325,7.1457,7.0233,6.9423,6.9183,6.9873,6.7747,6.646,6.7778,6.5682,6.4725,6.6729,6.637,6.6221,6.6879,6.8166,6.8106,6.6101,6.7837,6.7537,6.4186,6.5293,6.661,6.7958,6.4288,6.3225,6.5159,6.1415,5.9483,5.9483,5.9483,5.9483,5.9483,5.9483,5.9483,5.9533,6.006,6.0311,6.0412,6.1517,6.1994,6.2069,6.2556,6.2781,6.2781,6.2781,6.2781,6.2781,6.2939,6.3156,6.3288,6.3321,6.2826,6.2477,6.2746,6.278,6.2868,6.3078,6.3108,6.3108,6.3108,6.3108,6.3108,6.3108,6.3497,6.3707,6.3707,6.4336,6.4665,6.4665,6.4874,6.4904,6.4665,6.4665,6.4575,6.4425,6.4425,6.4067,6.3469,6.3288,6.4306,6.634,6.6131,6.652,6.7389,6.7838,6.8407,6.9093,6.9722,7.0231,7.062,7.0829,7.0889,7.0889,7.0889,7.0889,7.0889,7.0889,7.0889,7.0889,7.0889,7.0889,7.0889,7.0889,7.1368,7.1996,7.2445,7.3073,7.3732,7.439,7.4569,7.4663,7.4873,7.4903,7.4783,7.433,7.3373,7.2475,7.2056,7.0709,6.9722,6.9993,6.8884,6.8016,6.8017,6.6849,6.6101,6.6311,6.5742,6.5203,6.4964,6.6161,6.652,6.5383,6.8016,6.8585,6.6161,6.646,6.7089,6.7987,6.4283,6.2997,6.4508,6.1195,5.9483,5.9483,5.9483,5.9483,5.9483,5.9483,5.9709,6.006,6.0236,6.0763,6.1492,6.1843,6.222,6.2531,6.2731,6.2781,6.2781,6.2781,6.2781,6.2781,6.4498,6.3924,6.3374,6.3602,6.2986,6.2629,6.3048,6.3108,6.3108,6.3108,6.3108,6.3108,6.3108,6.3317,6.3467,6.3467,6.3767,6.4126,6.4366,6.4994,6.5383,6.5383,6.5622,6.5622,6.5383,6.5383,6.5233,6.4994,6.4994,6.5473,6.637,6.6131,6.664,6.7747,6.7478,6.7748,6.8407,6.8646,6.9245,6.9991,7.0231,7.056,7.0889,7.0889,7.0889,7.0889,7.0889,7.0889,7.0889,7.0889,7.1068,7.1278,7.1278,7.1457,7.1607,7.1338,7.1936,7.2744,7.3163,7.3762,7.436,7.4813,7.4723,7.445,7.421,7.433,7.451,7.451,7.4061,7.3582,7.3343,7.2265,7.1278,7.0802,7.0141,6.9482,6.8856,6.8166,6.7777,6.7837,6.7059,6.634,6.5922,6.64,6.6251,6.5084,6.7388,6.8286,6.7059,6.7478,6.7807,6.7987,6.4283,6.2915,6.4197,6.108,5.9483,5.9483,5.9483,5.9483,5.9508,5.9709,5.9985,6.0297,6.0763,6.1366,6.2019,6.222,6.2521,6.2781,6.2781,6.2781,6.2781,6.2781,6.2781,6.2781,6.5516,6.3942,6.2473,6.2988,6.3108,6.3108,6.3108,6.3108,6.3108,6.3108,6.3108,6.3108,6.3168,6.3647,6.4036,6.4126,6.4126,6.4425,6.5024,6.5682,6.6071,6.6071,6.667,6.67,6.6101,6.6071,6.5802,6.5203,6.5263,6.5922,6.7119,6.649,6.7208,6.8974,6.8407,6.8496,6.9123,6.9782,7.0021,7.0019,7.0649,7.0889,7.0889,7.0889,7.0889,7.0889,7.0889,7.0889,7.0919,7.0949,7.1368,7.1906,7.1936,7.2415,7.2864,7.2176,7.2894,7.3881,7.3821,7.43,7.4843,7.4783,7.427,7.3672,7.3043,7.3402,7.3851,7.3881,7.439,7.4663,7.4061,7.3941,7.3492,7.2235,7.1427,7.0769,7.0173,6.9482,6.9482,7.062,6.9722,6.8974,6.8944,6.8377,6.7238,6.5473,6.649,6.7208,6.7268,6.8435,6.8794,6.8107,6.4524,6.3129,6.4197,6.1204,5.9637,5.9483,5.9483,5.9508,5.9558,6.0085,6.0362,6.0487,6.1542,6.2019,6.2094,6.2581,6.2781,6.2781,6.2781,6.2781,6.2781,6.2781,6.2781,6.2781,6.4037,6.4131,6.4137,6.3249,6.3108,6.3108,6.3108,6.3108,6.3108,6.3108,6.3108,6.3287,6.3737,6.3917,6.4425,6.5443,6.5533,6.5592,6.5772,6.64,6.6759,6.6759,6.6909,6.6909,6.6759,6.6759,6.6939,6.7299,6.7807,6.8226,6.8525,6.8375,6.8555,6.9004,6.9363,6.9602,6.9782,7.041,7.0679,7.0679,7.0829,7.0889,7.0889,7.0889,7.0889,7.0889,7.0889,7.0889,7.0979,7.1487,7.1757,7.1966,7.2505,7.3133,7.3522,7.2864,7.3253,7.3791,7.3283,7.3642,7.4001,7.3492,7.3253,7.3103,7.2954,7.3043,7.3283,7.3791,7.4031,7.424,7.4604,7.424,7.3791,7.3462,7.2415,7.1427,7.0769,7.0141,6.9662,6.9482,6.9183,6.8794,6.8287,6.8107,6.8227,6.8764,6.9093,6.9482,6.9961,7.029,6.9931,6.8794,6.6966,6.5408,6.4232,6.2548,6.0976,5.9483,5.9483,5.9709,6.0136,6.0261,6.0788,6.1617,6.1893,6.2245,6.2606,6.2731,6.2781,6.2781,6.2781,6.2781,6.2781,6.2781,6.2781,6.2781,6.412,6.4097,6.3958,6.3252,6.3108,6.3108,6.3108,6.3108,6.3108,6.3108,6.3347,6.3617,6.3947,6.4545,6.5203,6.5951,6.6011,6.6131,6.643,6.6789,6.6999,6.6999,6.6999,6.6999,6.6999,6.7329,6.7808,6.8466,6.8824,6.9153,6.9453,6.9453,6.9602,6.9871,7.026,7.041,7.041,7.0769,7.0889,7.0889,7.0889,7.0889,7.0889,7.0889,7.0889,7.0889,7.0889,7.1098,7.1398,7.1757,7.2295,7.2864,7.3253,7.3821,7.427,7.3911,7.4061,7.427,7.3911,7.4061,7.4121,7.3163,7.2684,7.2355,7.2056,7.2235,7.2535,7.2894,7.3223,7.3552,7.3911,7.3941,7.3791,7.3492,7.3073,7.2475,7.1487,7.1101,7.062,6.9961,6.9632,6.9303,6.8945,6.8646,6.8734,6.9482,6.9542,6.9812,7.044,7.047,7.0171,6.9482,6.7918,6.6304,6.4681,6.2276,6.0545,5.9483,5.9759,6.0035,6.0337,6.0864,6.1416,6.2019,6.227,6.2546,6.2781,6.2781,6.2781,6.2781,6.2781,6.2781,6.2781,6.2781,6.2781,6.2781,6.4592,6.3874,6.3108,6.3108,6.3108,6.3108,6.3108,6.3108,6.3138,6.3227,6.3677,6.4066,6.4276,6.5323,6.6041,6.6131,6.6161,6.64,6.6939,6.6999,6.6999,6.6999,6.7089,6.7148,6.7148,6.7928,6.8586,6.9153,6.9243,6.9572,7.0143,7.0143,7.041,7.0889,7.0889,7.0889,7.0889,7.0889,7.0889,7.0889,7.0889,7.0889,7.0889,7.0889,7.0889,7.0919,7.1009,7.1398,7.1906,7.2116,7.2954,7.3911,7.4001,7.442,7.4903,7.4903,7.4903,7.4903,7.4783,7.4693,7.43,7.3073,7.2325,7.1697,7.1038,7.1338,7.1757,7.1909,7.2355,7.2804,7.2894,7.3373,7.3642,7.3283,7.3522,7.3402,7.2475,7.2086,7.1667,7.1128,7.05,7.0143,7.0143,6.9602,6.9303,6.9303,6.9303,6.9542,7.0081,7.0143,7.0143,7.0143,6.8532,6.6868,6.5222,6.1415,5.9533,5.9633,6.0085,6.0373,6.0613,6.1567,6.2044,6.2144,6.2581,6.2781,6.2781,6.2781,6.2781,6.2781,6.2781,6.2781,6.2781,6.2781,6.2781,6.2781,6.3592,6.3222,6.3108,6.3108,6.3108,6.3108,6.3108,6.3108,6.3287,6.3797,6.3947,6.4425,6.5562,6.5892,6.6221,6.6789,6.6849,6.6879,6.6969,6.6999,6.6999,6.6999,6.7538,6.7838,6.7838,6.9065,6.9754,6.9842,7.035,7.0649,7.0769,7.0769,7.0799,7.0889,7.0889,7.0889,7.0889,7.0889,7.0889,7.0889,7.0889,7.0889,7.0889,7.0889,7.0889,7.0979,7.1517,7.1787,7.2056,7.3193,7.3732,7.4001,7.4574,7.4843,7.4903,7.4903,7.4903,7.4783,7.421,7.3642,7.3043,7.2235,7.1966,7.1697,7.1038,7.0979,7.1218,7.1757,7.1966,7.2235,7.2804,7.3013,7.3402,7.442,7.3732,7.3373,7.4304,7.2987,7.1846,7.1757,7.1158,7.0769,7.0769,7.0679,7.062,7.062,7.062,7.0649,7.0739,7.0769,7.0769,7.0769,7.048,6.8672,6.5222,6.1415,5.9734,6.0186,6.0286,6.0814,6.1743,6.1918,6.227,6.2656,6.2756,6.2781,6.2781,6.2781,6.2781,6.2781,6.2781,6.2781,6.2781,6.2781,6.2781,6.2781,6.3222,6.3108,6.3108,6.3108,6.3108,6.3108,6.3108,6.3407,6.3677,6.3947,6.4635,6.5323,6.5951,6.6311,6.667,6.6969,6.6999,6.6999,6.6999,6.6999,6.7148,6.7538,6.8166,6.9035,7.0083,7.0712,7.1188,7.1547,7.1487,7.1427,7.1427,7.1068,7.0889,7.0889,7.0889,7.0889,7.0889,7.0889,7.0889,7.0889,7.0889,7.0889,7.0889,7.0889,7.0889,7.0979,7.1637,7.2116,7.2595,7.3582,7.4121,7.448,7.4813,7.4903,7.4903,7.4903,7.4903,7.4843,7.451,7.3941,7.3373,7.3043,7.2415,7.1816,7.1517,7.1158,7.0979,7.1308,7.1368,7.1457,7.1787,7.2116,7.2565,7.3197,7.3073,7.2984,7.3256,7.2508,7.1757,7.1398,7.1098,7.0889,7.0889,7.0889,7.0889,7.0889,7.0889,7.0889,7.0889,7.0889,7.0889,7.0889,6.8894,6.6968,6.5222,6.1689,6.006,6.0337,6.0939,6.1492,6.2019,6.232,6.2556,6.2781,6.2781,6.2781,6.2781,6.2781,6.2781,6.2781,6.2781,6.2781,6.2781,6.2781,6.2781,6.2781,6.3108,6.3108,6.3108,6.3108,6.3108,6.3108,6.3108,6.3588,6.4066,6.4216,6.5263,6.6071,6.6221,6.67,6.6999,6.6999,6.6999,6.6999,6.6999,6.7298,6.7687,6.8227,6.9153,7.044,7.2086,7.2116,7.2295,7.2684,7.2146,7.1816,7.1637,7.1128,7.0889,7.0889,7.0889,7.0889,7.0889,7.0889,7.0889,7.0889,7.0889,7.0889,7.0889,7.0889,7.1009,7.1218,7.1876,7.2565,7.3253,7.3911,7.445,7.4903,7.4903,7.4903,7.4903,7.4903,7.4903,7.4903,7.4903,7.451,7.4091,7.3941,7.3133,7.2295,7.2176,7.1607,7.1128,7.1128,7.1009,7.0889,7.0889,7.1308,7.1757,7.2086,7.2565,7.2774,7.2415,7.2235,7.1876,7.1218,7.1009,7.0889,7.0889,7.0889,7.0889,7.0889,7.0889,7.0889,7.0889,7.0889,7.0889,7.0889,6.7203,6.5186,6.5186,6.1948,6.0387,6.0537,6.1517,6.2069,6.222,6.2606,6.2781,6.2781,6.2781,6.2781,6.2781,6.2781,6.2857,6.3023,6.3023,6.3099,6.3199,6.3199,6.3124,6.3023,6.3108,6.3108,6.3108,6.3108,6.3108,6.3108,6.3108,6.3588,6.4216,6.4845,6.5532,6.6251,6.6849,6.6969,6.6999,6.6999,6.6999,6.6999,6.6999,6.8166,6.8884,6.8914,7.0679,7.2026,7.2834,7.2834,7.2565,7.1966,7.1906,7.1577,7.0979,7.0919,7.0889,7.0889,7.0889,7.0889,7.0889,7.0889,7.0889,7.0889,7.0889,7.0889,7.0889,7.0889,7.1278,7.1906,7.2595,7.3253,7.3911,7.4604,7.4873,7.4903,7.4903,7.4903,7.4903,7.4903,7.4903,7.4903,7.4903,7.4873,7.4693,7.4061,7.3821,7.3582,7.2984,7.2295,7.1816,7.1816,7.1338,7.0889,7.0889,7.0949,7.1368,7.2624,7.2894,7.3103,7.3672,7.3223,7.2595,7.1906,7.1278,7.0889,7.0889,7.0889,7.0889,7.0889,7.0889,7.0889,7.0889,7.0889,7.0889,7.0889,6.7203,6.5186,6.5186,6.1948,6.0588,6.1115,6.1718,6.227,6.2731,6.2781,6.2781,6.2781,6.2781,6.2781,6.2781,6.2781,6.3149,6.3626,6.3626,6.3927,6.4396,6.4396,6.4053,6.3626,6.3108,6.3108,6.3108,6.3108,6.3108,6.3227,6.3588,6.4216,6.4845,6.5503,6.6191,6.67,6.6969,6.6999,6.6999,6.6999,6.6999,6.6999,6.6999,6.8256,6.9722,7.1368,7.2505,7.3432,7.4121,7.3732,7.3402,7.3133,7.2295,7.1757,7.1517,7.1098,7.0889,7.0889,7.0889,7.0889,7.0889,7.0889,7.0889,7.0889,7.0889,7.0889,7.0949,7.1368,7.1667,7.2026,7.3133,7.3672,7.3941,7.418,7.4574,7.4843,7.439,7.4574,7.4903,7.4903,7.4903,7.4903,7.4903,7.4903,7.4843,7.4569,7.421,7.3821,7.3582,7.2684,7.1876,7.1876,7.1368,7.0889,7.0889,7.0889,7.1068,7.1577,7.1996,7.2206,7.2056,7.2176,7.2026,7.1368,7.1068,7.0889,7.0889,7.0889,7.0889,7.0889,7.0889,7.0889,7.0889,7.0889,7.0889,7.0889,6.7567,6.5758,6.5758,6.2519,6.114,6.1692,6.2245,6.2581,6.2781,6.2781,6.2982,6.335,6.2932,6.2982,6.335,6.2932,6.3174,6.3701,6.3701,6.4002,6.4496,6.4496,6.4371,6.422,6.3108,6.3108,6.3108,6.3108,6.3108,6.3317,6.3917,6.4575,6.5233,6.5922,6.658,6.6999,6.6999,6.6999,6.6999,6.6999,6.6999,6.7089,6.7329,6.8944,7.0799,7.2801,7.3732,7.43,7.4604,7.4121,7.3672,7.3253,7.2325,7.1787,7.1577,7.1128,7.0889,7.0889,7.0889,7.0889,7.0889,7.0889,7.0889,7.0889,7.0889,7.0889,7.0979,7.1637,7.1876,7.2026,7.3163,7.3582,7.3582,7.3582,7.3881,7.421,7.3971,7.436,7.4903,7.4903,7.4903,7.4903,7.4903,7.4903,7.4903,7.4903,7.4574,7.421,7.421,7.3163,7.2206,7.2206,7.1517,7.0889,7.0889,7.0889,7.0889,7.0889,7.1637,7.1966,7.1308,7.1787,7.1966,7.1278,7.1038,7.0889,7.0889,7.0889,7.0889,7.0889,7.0889,7.0889,7.0889,7.0889,7.1009,7.1218,6.7908,6.6283,6.6669,6.3194,6.1642,6.2019,6.2531,6.2781,6.2781,6.2781,6.3048,6.34,6.3199,6.3324,6.3651,6.3249,6.3525,6.4178,6.4002,6.4354,6.4982,6.4982,6.4923,6.4773,6.3108,6.3108,6.3108,6.3108,6.3108,6.3317,6.3917,6.4575,6.5233,6.5922,6.658,6.6999,6.6999,6.6999,6.6999,6.6999,6.6999,6.7299,6.7987,7.0472,7.2206,7.2894,7.418,7.4604,7.3911,7.3881,7.3223,7.1876,7.1876,7.1547,7.0889,7.0889,7.0889,7.0889,7.0889,7.0889,7.0889,7.0889,7.0889,7.0889,7.0889,7.0889,7.0979,7.1637,7.1876,7.1966,7.2654,7.2924,7.2924,7.2894,7.2924,7.3043,7.3702,7.436,7.4903,7.4903,7.4903,7.4903,7.4903,7.4903,7.4903,7.4903,7.4903,7.4903,7.4903,7.3851,7.2924,7.2924,7.1846,7.0919,7.0889,7.0889,7.0889,7.0889,7.2026,7.2654,7.1966,7.2475,7.2654,7.1966,7.1308,7.0919,7.0889,7.0889,7.0889,7.0889,7.0889,7.0889,7.0889,7.0889,7.1218,7.1909,6.8136,6.6697,6.7911,6.3973,6.1994,6.2019,6.2531,6.2781,6.2781,6.2781,6.2807,6.2832,6.345,6.3701,6.3701,6.3701,6.4329,6.5233,6.4722,6.5132,6.6112,6.6112,6.576,6.5308,6.3108,6.3108,6.3108,6.3108,6.3467,6.3947,6.4575,6.5263,6.5951,6.661,6.6879,6.6999,6.6999,6.6999,6.6999,6.6999,6.6999,6.7657,6.9305,7.1398,7.2684,7.2894,7.3732,7.4091,7.3881,7.2984,7.2295,7.1876,7.1427,7.1098,7.0889,7.0889,7.0889,7.0889,7.0889,7.0889,7.0889,7.0889,7.0889,7.0889,7.0889,7.0889,7.0979,7.1637,7.1876,7.1966,7.2654,7.2924,7.2834,7.2355,7.2505,7.3043,7.3702,7.436,7.4903,7.4903,7.4903,7.4903,7.4903,7.4903,7.4903,7.4903,7.4903,7.4903,7.4903,7.421,7.3462,7.3013,7.2206,7.1457,7.0979,7.0889,7.0889,7.0889,7.1637,7.2116,7.1906,7.2475,7.2654,7.1966,7.1697,7.1398,7.0949,7.0889,7.0889,7.0889,7.0889,7.0889,7.0889,7.1338,7.1667,7.1876,6.8961,6.7552,6.7911,6.3973,6.2195,6.2556,6.3149,6.3224,6.2807,6.3249,6.3425,6.345,6.3626,6.3902,6.427,6.427,6.4655,6.5283,6.5107,6.5484,6.6112,6.6112,6.6011,6.586,6.3108,6.3108,6.3197,6.3408,6.3737,6.4306,6.5233,6.5742,6.6251,6.6909,6.6999,6.6999,6.6999,6.6999,6.6999,6.6999,6.7717,6.8914,7.0652,7.2355,7.3313,7.3313,7.3432,7.3373,7.3103,7.2295,7.1757,7.1487,7.1098,7.0889,7.0889,7.0889,7.0889,7.0889,7.0889,7.0889,7.0889,7.0889,7.0889,7.0889,7.0889,7.0889,7.0979,7.1637,7.1727,7.1577,7.2265,7.2325,7.2056,7.1637,7.2146,7.2984,7.3373,7.4151,7.4903,7.4903,7.4903,7.4903,7.4903,7.4903,7.4903,7.4903,7.4903,7.4903,7.4903,7.436,7.3702,7.3043,7.2355,7.1697,7.1009,7.0889,7.0889,7.0889,7.1457,7.1966,7.2265,7.2654,7.2744,7.2325,7.2295,7.2026,7.1368,7.1308,7.1188,7.0919,7.0889,7.0889,7.0889,7.1517,7.1996,7.2295,6.9408,6.8022,6.827,6.4311,6.2496,6.2807,6.3425,6.34,6.2807,6.3626,6.3877,6.3726,6.4128,6.4505,6.4848,6.4848,6.5107,6.5584,6.5383,6.5634,6.6112,6.6112,6.6112,6.6112,6.3108,6.3108,6.3287,6.3887,6.4036,6.4515,6.5802,6.6071,6.6311,6.6909,6.6999,6.6999,6.6999,6.6999,6.6999,6.6999,6.8884,7.059,7.1849,7.3193,7.3941,7.3821,7.3223,7.2565,7.1816,7.1787,7.1517,7.0889,7.0889,7.0889,7.0889,7.0889,7.0889,7.0889,7.0889,7.0889,7.0889,7.0889,7.0889,7.0889,7.0889,7.0889,7.0979,7.1577,7.1427,7.0979,7.1577,7.1398,7.0889,7.0889,7.1787,7.2924,7.2924,7.3821,7.4903,7.4903,7.4903,7.4903,7.4903,7.4903,7.4903,7.4903,7.4903,7.4903,7.4903,7.442,7.3791,7.3133,7.2445,7.1757,7.1098,7.0949,7.0889,7.0889,7.1398,7.2056,7.2804,7.2924,7.2924,7.2984,7.3013,7.2744,7.2056,7.1969,7.1637,7.1038,7.0949,7.0889,7.0889,7.1577,7.2199,7.2596,6.9621,6.8196,6.8624,6.4777,6.2781,6.2807,6.3425,6.3425,6.2907,6.3977,6.4245,6.3827,6.4856,6.5283,6.5283,6.5333,6.566,6.6061,6.5559,6.566,6.6112,6.6112,6.6112,6.6112,6.3108,6.3108,6.3287,6.3887,6.4455,6.5054,6.5892,6.646,6.6819,6.6969,6.6999,6.6999,6.6999,6.6999,6.6999,6.6999,6.9273,7.1038,7.1846,7.3676,7.421,7.3163,7.2984,7.2355,7.1128,7.1128,7.1038,7.0889,7.0889,7.0889,7.0889,7.0889,7.0889,7.0889,7.0889,7.0889,7.0889,7.0889,7.0889,7.0889,7.0889,7.0889,7.0919,7.1068,7.1038,7.0919,7.1068,7.1009,7.0889,7.0889,7.1787,7.2924,7.2924,7.3821,7.4903,7.4903,7.4903,7.4903,7.4903,7.4903,7.4903,7.4903,7.4903,7.4903,7.4903,7.4813,7.448,7.3821,7.3163,7.2475,7.1816,7.1248,7.0889,7.0889,7.1009,7.1547,7.2744,7.2924,7.3103,7.3612,7.3672,7.3432,7.2744,7.2206,7.1816,7.1697,7.1188,7.0889,7.0889,7.2026,7.2015,7.0604,6.9357,6.7957,6.648,6.4042,6.2781,6.2807,6.3425,6.3626,6.3525,6.422,6.4446,6.4371,6.5007,6.5283,6.5333,6.576,6.6011,6.6112,6.5986,6.6011,6.6112,6.6112,6.6112,6.6112,6.3108,6.3347,6.3707,6.4366,6.5024,6.5682,6.637,6.6759,6.6999,6.6999,6.6999,6.6999,6.6999,6.6999,6.7238,6.7897,6.9752,7.1308,7.2325,7.3941,7.43,7.2984,7.2924,7.2295,7.0919,7.0889,7.0889,7.0889,7.0889,7.0889,7.0889,7.0889,7.0889,7.0889,7.0889,7.0889,7.0889,7.0889,7.0889,7.0889,7.0889,7.0889,7.0889,7.0889,7.0889,7.0889,7.0889,7.0889,7.0889,7.0889,7.1787,7.2924,7.2924,7.3821,7.4903,7.4903,7.4903,7.4903,7.4903,7.4903,7.4903,7.4903,7.4903,7.4903,7.4903,7.4903,7.4723,7.4031,7.3373,7.2714,7.1996,7.1338,7.0889,7.0889,7.0889,7.1368,7.2714,7.2924,7.3043,7.3402,7.3702,7.3522,7.2505,7.2116,7.1757,7.1457,7.1098,7.0889,7.0889,7.1022,7.0726,6.9949,6.8022,6.6638,6.5804,6.3801,6.2781,6.2807,6.3676,6.4053,6.4119,6.4881,6.5107,6.4923,6.5434,6.5685,6.571,6.5986,6.6112,6.6112,6.6112,6.6112,6.6112,6.6112,6.6112,6.6112,6.3227,6.3647,6.4246,6.5024,6.5652,6.6221,6.6879,6.6999,6.6999,6.6999,6.6999,6.6999,6.6999,6.7089,6.7657,6.8884,7.026,7.1607,7.2834,7.4151,7.43,7.2984,7.2924,7.2295,7.0919,7.0889,7.0889,7.0889,7.0889,7.0889,7.0889,7.0889,7.0889,7.0889,7.0889,7.0889,7.0889,7.0889,7.0889,7.0889,7.0889,7.0889,7.0889,7.0889,7.0889,7.0889,7.0889,7.0889,7.0889,7.0889,7.1787,7.2924,7.2924,7.3821,7.4903,7.4903,7.4903,7.4903,7.4903,7.4903,7.4903,7.4903,7.4903,7.4903,7.4903,7.4903,7.4753,7.418,7.3462,7.2744,7.2176,7.1427,7.0889,7.0889,7.0889,7.1368,7.2714,7.2804,7.2834,7.3043,7.3462,7.3283,7.2176,7.1966,7.1667,7.1098,7.0949,7.0889,7.0889,7.0069,6.95,6.9257,6.6811,6.5365,6.5162,6.3574,6.2832,6.2998,6.3902,6.4421,6.4547,6.5409,6.5685,6.5459,6.5911,6.6112,6.6112,6.6112,6.6112,6.6112,6.6112,6.6112,6.6112,6.6112,6.6112,6.6112,6.3767,6.3947,6.4395,6.5652,6.5951,6.6221,6.6879,6.6999,6.6999,6.6999,6.6999,6.6999,6.6999,6.7538,6.8167,6.8944,7.0679,7.2086,7.2864,7.4151,7.43,7.2984,7.2924,7.2295,7.0919,7.0889,7.0889,7.0889,7.0889,7.0889,7.0889,7.0889,7.0889,7.0889,7.0889,7.0889,7.0889,7.0889,7.0889,7.0889,7.0889,7.0889,7.0889,7.0889,7.0889,7.0889,7.0889,7.0889,7.0889,7.0889,7.1787,7.2924,7.2924,7.3821,7.4903,7.4903,7.4903,7.4903,7.4903,7.4903,7.4903,7.4903,7.4903,7.4903,7.4903,7.4903,7.4873,7.4783,7.3762,7.286,7.2804,7.1757,7.0889,7.0889,7.0889,7.1368,7.2714,7.2385,7.2475,7.3612,7.3343,7.2984,7.2804,7.2235,7.1846,7.1757,7.1218,7.0889,7.0889,7.1288,7.0016,6.6696,6.7221,6.5922,6.2577,6.2693,6.3073,6.3576,6.3726,6.4028,6.4521,6.4672,6.5157,6.6011,6.6086,6.6112,6.6112,6.6112,6.6112,6.6112,6.6112,6.6112,6.6112,6.6112,6.6112,6.6112,6.3887,6.4306,6.4845,6.5832,6.6311,6.667,6.6939,6.6999,6.6999,6.6999,6.6999,6.6999,6.6999,6.7598,6.8287,6.8944,7.0769,7.2176,7.2864,7.4151,7.43,7.2984,7.2924,7.2295,7.0919,7.0889,7.0889,7.0889,7.0889,7.0889,7.0889,7.0889,7.0889,7.0889,7.0889,7.0889,7.0889,7.0889,7.0889,7.0889,7.0889,7.0889,7.0889,7.0889,7.0889,7.0889,7.0889,7.0889,7.0889,7.0889,7.1787,7.2924,7.2924,7.3821,7.4903,7.4903,7.4903,7.4903,7.4903,7.4903,7.4903,7.4903,7.4903,7.4903,7.4903,7.4903,7.4813,7.4424,7.3582,7.2804,7.2415,7.1547,7.0889,7.0889,7.0889,7.1368,7.2714,7.2325,7.2116,7.2714,7.2206,7.1787,7.1787,7.1517,7.1338,7.1338,7.1068,7.0889,7.0889,7.0179,6.8659,6.6189,6.5578,6.4224,6.2034,6.2546,6.2907,6.3224,6.3525,6.3977,6.4521,6.4823,6.5183,6.566,6.5986,6.6112,6.6112,6.6112,6.6112,6.6112,6.6112,6.6112,6.6112,6.6112,6.6112,6.6112]},{"header":{"parameterUnit":"m.s-1","parameterCategory":1,"la1":30.6,"la2":28.766,"lo1":-90.7593,"lo2":-88.6598,"dx":0.0162,"dy":0.0183,"nx":116,"ny":114,"refTime":"2022-12-19T06:00:00:Z","depth":0,"parameterNumber":3,"parameterNumberName":"V-component_of_WINDS"},"data":[0.0,0.0,0.0,0.0,0.0,0.0,0.0,0.0,0.0,0.0,0.0,0.0,0.0,0.0,0.0,0.0,0.0,0.0,0.0,0.0,0.0,0.0,0.0,0.0,0.0,0.0,0.0,0.0,0.0,0.0,0.0,0.0,0.0,0.0,0.0,0.0,0.0,0.0,0.0,0.0,0.0,0.0,0.0,0.0,0.0,0.0,0.0,0.0,0.0,0.0,0.0,0.0,0.0,0.0,0.0,0.0,0.0,0.0,0.0,0.0,0.0,0.0,0.0,0.0,0.0,0.0,0.0,0.0,0.0,0.0,0.0,0.0,0.0,0.0,0.0,0.0,0.0,0.0,0.0,0.0,0.0,0.0,0.0,0.0,0.0,0.0,0.0,0.0,0.0,0.0,0.0,0.0,0.0,0.0,0.0,0.0,0.0,0.0,0.0,0.0,0.0,0.0,0.0,0.0,0.0,0.0,0.0,0.0,0.0,0.0,0.0,0.0,0.0,0.0,0.0,0.0,0.0,0.0,0.0,0.0,0.0,0.0,0.0,0.0,0.0,0.0,0.0,0.0,0.0,0.0,0.0,0.0,0.0,0.0,0.0,0.0,0.0,0.0,0.0,0.0,0.0,0.0,0.0,0.0,0.0,0.0,0.0,0.0,0.0,0.0,0.0,0.0,0.0,0.0,0.0,0.0,0.0,0.0,0.0,0.0,0.0,0.0,0.0,0.0,0.0,0.0,0.0,0.0,0.0,0.0,0.0,0.0,0.0,0.0,0.0,0.0,0.0,0.0,0.0,0.0,0.0,0.0,0.0,0.0,0.0,0.0,0.0,0.0,0.0,0.0,0.0,0.0,0.0,0.0,0.0,0.0,0.0,0.0,0.0,0.0,0.0,0.0,0.0,0.0,0.0,0.0,0.0,0.0,0.0,0.0,0.0,0.0,0.0,0.0,0.0,0.0,0.0,0.0,0.0,0.0,0.0,0.0,0.0,0.0,0.0,0.0,0.0,0.0,0.0,0.0,0.0,0.0,0.0,0.0,0.0,0.0,0.0,0.0,0.0,0.0,0.0,0.0,0.0,0.0,0.0,0.0,0.0,0.0,0.0,0.0,0.0,0.0,0.0,0.0,0.0,0.0,0.0,0.0,0.0,0.0,0.0,0.0,0.0,0.0,0.0,0.0,0.0,0.0,0.0,0.0,0.0,0.0,0.0,0.0,0.0,0.0,0.0,0.0,0.0,0.0,0.0,0.0,0.0,0.0,0.0,0.0,0.0,0.0,0.0,0.0,0.0,0.0,0.0,0.0,0.0,0.0,0.0,0.0,0.0,0.0,0.0,0.0,0.0,0.0,0.0,0.0,0.0,0.0,0.0,0.0,0.0,0.0,0.0,0.0,0.0,0.0,0.0,0.0,0.0,0.0,0.0,0.0,0.0,0.0,0.0,0.0,0.0,0.0,0.0,0.0,0.0,0.0,0.0,0.0,0.0,0.0,0.0,0.0,0.0,0.0,0.0,0.0,0.0,0.0,0.0,0.0,0.0,0.0,0.0,0.0,0.0,0.0,0.0,0.0,0.0,0.0,0.0,0.0,0.0,0.0,0.0,0.0,0.0,0.0,0.0,0.0,0.0,0.0,0.0,0.0,0.0,0.0,0.0,0.0,0.0,0.0,0.0,0.0,0.0,0.0,0.0,0.0,0.0,0.0,0.0,0.0,0.0,0.0,0.0,0.0,0.0,0.0,0.0,0.0,0.0,0.0,0.0,0.0,0.0,0.0,0.0,0.0,0.0,0.0,0.0,0.0,0.0,0.0,0.0,0.0,0.0,0.0,0.0,0.0,0.0,0.0,0.0,0.0,0.0,0.0,0.0,0.0,0.0,0.0,0.0,0.0,0.0,0.0,0.0,0.0,0.0,0.0,0.0,0.0,0.0,0.0,0.0,0.0,0.0,0.0,0.0,0.0,0.0,0.0,0.0,0.0,0.0,0.0,0.0,0.0,0.0,0.0,0.0,0.0,0.0,0.0,0.0,0.0,0.0,0.0,0.0,0.0,0.0,0.0,0.0,0.0,0.0,0.0,0.0,0.0,0.0,0.0,0.0,0.0,0.0,0.0,0.0,0.0,0.0,0.0,0.0,0.0,0.0,0.0,0.0,0.0,0.0,0.0,0.0,0.0,0.0,0.0,0.0,0.0,0.0,0.0,0.0,0.0,0.0,0.0,0.0,0.0,0.0,0.0,0.0,0.0,0.0,0.0,0.0,0.0,0.0,0.0,0.0,0.0,0.0,0.0,0.0,0.0,0.0,0.0,0.0,0.0,0.0,0.0,0.0,0.0,0.0,0.0,0.0,0.0,0.0,0.0,0.0,0.0,0.0,0.0,0.0,0.0,0.0,0.0,0.0,0.0,0.0,0.0,0.0,0.0,0.0,0.0,0.0,0.0,0.0,0.0,0.0,0.0,0.0,0.0,0.0,0.0,0.0,0.0,0.0,0.0,0.0,0.0,0.0,0.0,0.0,0.0,0.0,0.0,0.0,0.0,0.0,0.0,0.0,0.0,0.0,0.0,0.0,0.0,0.0,0.0,0.0,0.0,0.0,0.0,0.0,0.0,0.0,0.0,0.0,0.0,0.0,0.0,0.0,0.0,0.0,0.0,0.0,0.0,0.0,0.0,0.0,0.0,0.0,0.0,0.0,0.0,0.0,0.0,0.0,0.0,0.0,0.0,0.0,0.0,0.0,0.0,0.0,0.0,0.0,0.0,0.0,0.0,0.0,0.0,0.0,0.0,0.0,0.0,0.0,0.0,0.0,0.0,0.0,0.0,0.0,0.0,0.0,0.0,0.0,0.0,0.0,0.0,0.0,0.0,0.0,0.0,0.0,0.0,0.0,0.0,0.0,0.0,0.0,0.0,0.0,0.0,0.0,0.0,0.0,0.0,0.0,0.0,0.0,0.0,0.0,0.0,0.0,0.0,0.0,0.0,0.0,0.0,0.0,0.0,0.0,0.0,0.0,0.0,0.0,0.0,0.0,0.0,0.0,0.0,0.0,0.0,0.0,0.0,0.0,0.0,0.0,0.0,0.0,0.0,0.0,0.0,0.0,0.0,0.0,0.0,0.0,0.0,0.0,0.0,0.0,0.0,0.0,0.0,0.0,0.0,0.0,0.0,0.0,0.0,0.0,0.0,0.0,0.0,0.0,0.0,0.0,0.0,0.0,0.0,0.0,0.0,0.0,0.0,0.0,0.0,0.0,0.0,0.0,0.0,0.0,0.0,0.0,0.0,0.0,0.0,0.0,0.0,0.0,0.0,0.0,0.0,0.0,0.0,0.0,0.0,0.0,0.0,0.0,0.0,0.0,0.0,0.0,0.0,0.0,0.0,0.0,0.0,0.0,0.0,0.0,0.0,0.0,0.0,0.0,0.0,0.0,0.0,0.0,0.0,0.0,0.0,0.0,0.0,0.0,0.0,0.0,0.0,0.0,0.0,0.0,0.0,0.0,0.0,0.0,0.0,0.0,0.0,0.0,0.0,0.0,0.0,0.0,0.0,0.0,0.0,0.0,0.0,0.0,0.0,0.0,0.0,0.0,0.0,0.0,0.0,0.0,0.0,0.0,0.0,0.0,0.0,0.0,0.0,0.0,0.0,0.0,0.0,0.0,0.0,0.0,0.0,0.0,0.0,0.0,0.0,0.0,0.0,0.0,0.0,0.0,0.0,0.0,0.0,0.0,0.0,0.0,0.0,0.0,0.0,0.0,0.0,0.0,0.0,0.0,0.0,0.0,0.0,0.0,0.0,0.0,0.0,0.0,0.0,0.0,0.0,0.0,0.0,0.0,0.0,0.0,0.0,0.0,0.0,0.0,0.0,0.0,0.0,0.0,0.0,0.0,0.0,0.0,0.0,0.0,0.0,0.0,0.0,0.0,0.0,0.0,0.0,0.0,0.0,0.0,0.0,0.0,0.0,0.0,0.0,0.0,0.0,0.0,0.0,0.0,0.0,0.0,0.0,0.0,0.0,0.0,0.0,0.0,0.0,0.0,0.0,0.0,0.0,0.0,0.0,0.0,0.0,0.0,0.0,0.0,0.0,0.0,0.0,0.0,0.0,0.0,0.0,0.0,0.0,0.0,0.0,0.0,0.0,0.0,0.0,0.0,0.0,0.0,0.0,0.0,0.0,0.0,0.0,0.0,0.0,0.0,0.0,0.0,0.0,0.0,0.0,0.0,0.0,0.0,0.0,0.0,0.0,0.0,0.0,0.0,0.0,0.0,0.0,0.0,0.0,0.0,0.0,0.0,0.0,0.0,0.0,0.0,0.0,0.0,0.0,0.0,0.0,0.0,0.0,0.0,0.0,0.0,0.0,0.0,0.0,0.0,0.0,0.0,0.0,0.0,0.0,0.0,0.0,0.0,0.0,0.0,0.0,0.0,0.0,0.0,0.0,0.0,0.0,0.0,0.0,0.0,0.0,0.0,0.0,0.0,0.0,0.0,0.0,0.0,0.0,0.0,0.0,0.0,0.0,0.0,0.0,0.0,0.0,0.0,0.0,0.0,0.0,0.0,0.0,0.0,0.0,0.0,0.0,0.0,0.0,0.0,0.0,0.0,0.0,0.0,0.0,0.0,0.0,0.0,0.0,0.0,0.0,0.0,0.0,0.0,0.0,0.0,0.0,0.0,0.0,0.0,0.0,0.0,0.0,0.0,0.0,0.0,0.0,0.0,0.0,0.0,0.0,0.0,0.0,0.0,0.0,0.0,0.0,0.0,0.0,0.0,0.0,0.0,0.0,0.0,0.0,0.0,0.0,0.0,0.0,0.0,0.0,0.0,0.0,0.0,0.0,0.0,0.0,0.0,0.0,0.0,0.0,0.0,0.0,0.0,0.0,0.0,0.0,0.0,0.0,0.0,0.0,0.0,0.0,0.0,0.0,0.0,0.0,0.0,0.0,0.0,0.0,0.0,0.0,0.0,0.0,0.0,0.0,0.0,0.0,0.0,0.0,0.0,0.0,0.0,0.0,0.0,0.0,0.0,0.0,0.0,0.0,0.0,0.0,0.0,0.0,0.0,0.0,0.0,0.0,0.0,0.0,0.0,0.0,0.0,0.0,0.0,0.0,0.0,0.0,0.0,0.0,0.0,0.0,0.0,0.0,0.0,0.0,0.0,0.0,0.0,0.0,0.0,0.0,0.0,0.0,0.0,0.0,0.0,0.0,0.0,0.0,0.0,0.0,0.0,0.0,0.0,0.0,0.0,0.0,0.0,0.0,0.0,0.0,0.0,0.0,0.0,0.0,0.0,0.0,0.0,0.0,0.0,0.0,0.0,0.0,0.0,0.0,0.0,0.0,0.0,0.0,0.0,0.0,0.0,0.0,0.0,0.0,0.0,0.0,0.0,0.0,0.0,0.0,0.0,0.0,0.0,0.0,0.0,0.0,0.0,0.0,0.0,0.0,0.0,0.0,0.0,0.0,0.0,0.0,0.0,0.0,0.0,0.0,0.0,0.0,0.0,0.0,0.0,0.0,0.0,0.0,0.0,0.0,0.0,0.0,0.0,0.0,0.0,0.0,0.0,0.0,0.0,0.0,0.0,0.0,0.0,0.0,0.0,0.0,0.0,0.0,0.0,0.0,0.0,0.0,0.0,0.0,0.0,0.0,0.0,0.0,0.0,0.0,0.0,0.0,0.0,0.0,0.0,0.0,0.0,0.0,0.0,0.0,0.0,0.0,0.0,0.0,0.0,0.0,0.0,0.0,0.0,0.0,0.0,0.0,0.0,0.0,0.0,0.0,0.0,0.0,0.0,0.0,0.0,0.0,0.0,0.0,0.0,0.0,0.0,0.0,0.0,0.0,0.0,0.0,0.0,0.0,0.0,0.0,0.0,0.0,0.0,0.0,0.0,0.0,0.0,0.0,0.0,0.0,0.0,0.0,0.0,0.0,0.0,0.0,0.0,0.0,0.0,0.0,0.0,0.0,0.0,0.0,0.0,0.0,0.0,0.0,0.0,0.0,0.0,0.0,0.0,0.0,0.0,0.0,0.0,0.0,0.0,0.0,0.0,0.0,0.0,0.0,0.0,0.0,0.0,0.0,0.0,0.0,0.0,0.0,0.0,0.0,2.8499,2.6281,0.0,0.0,0.0,0.0,0.0,0.0,0.0,0.0,0.0,0.0,0.0,0.0,0.0,0.0,0.0,0.0,0.0,0.0,0.0,0.0,0.0,0.0,0.0,0.9893,0.9893,0.9893,1.0144,0.0,0.0,0.0,0.0,0.0,0.0,0.0,0.0,0.0,1.2512,1.3568,1.4994,1.6503,1.8102,1.7476,1.6486,1.5206,0.0,0.0,0.0,0.0,0.0,0.0,0.0,0.0,0.0,0.0,0.0,0.0,0.0,0.0,0.0,0.0,0.0,0.0,0.0,0.0,0.0,0.0,0.0,0.0,0.0,0.0,0.0,0.0,0.0,0.0,0.0,0.0,0.0,0.0,0.0,0.0,0.0,0.0,0.0,0.0,0.0,0.0,0.0,0.0,0.0,0.0,0.0,0.0,0.0,0.0,0.0,0.0,0.0,0.0,0.0,0.0,0.0,0.0,0.0,0.0,0.0,0.0,0.0,0.0,0.0,0.0,0.0,0.0,0.0,0.0,3.1105,2.8969,0.0,0.0,0.0,0.0,0.0,0.0,0.0,0.0,0.0,0.0,0.0,0.0,0.0,0.0,0.0,0.0,0.0,0.0,0.0,0.0,0.0,0.9943,1.0037,1.0044,1.0112,1.032,1.0664,1.0758,1.0489,1.0801,0.0,0.0,0.0,0.0,1.2018,1.2655,1.4002,1.6155,1.7663,1.9321,2.113,2.1683,2.0715,1.8517,1.7715,0.0,0.0,0.0,0.0,0.0,0.0,0.0,0.0,0.0,0.0,0.0,0.0,0.0,0.0,0.0,0.0,0.0,0.0,0.0,0.0,0.0,0.0,0.0,0.0,0.0,0.0,0.0,0.0,0.0,0.0,0.0,0.0,0.0,0.0,0.0,0.0,0.0,0.0,0.0,0.0,0.0,0.0,0.0,0.0,0.0,0.0,0.0,0.0,0.0,0.0,0.0,0.0,0.0,0.0,0.0,0.0,0.0,0.0,0.0,0.0,0.0,0.0,0.0,3.3043,3.3567,3.3119,3.4603,3.578,3.6507,3.3746,3.2089,3.124,3.0312,0.0,0.0,0.0,0.0,0.0,0.0,0.0,0.0,0.0,0.0,0.0,0.0,0.0,0.0,0.0,0.0,0.0,0.0,0.0,1.0087,1.055,1.0593,1.1001,1.1994,1.1701,1.1851,1.2705,1.2388,1.2354,1.2755,1.2747,1.3073,1.3754,1.4758,1.612,1.7877,2.0877,2.2493,2.2794,2.3401,2.3477,2.305,2.1532,2.0502,1.9862,0.0,0.0,0.0,0.0,0.0,0.0,0.0,0.0,0.0,0.0,0.0,0.0,0.0,0.0,0.0,0.0,0.0,0.0,0.0,0.0,0.0,0.0,0.0,0.0,0.0,0.0,0.0,0.0,0.0,0.0,0.0,0.0,0.0,0.0,0.0,0.0,0.0,0.0,0.0,0.0,0.0,2.6248,2.6809,0.0,0.0,0.0,0.0,0.0,0.0,0.0,0.0,0.0,0.0,0.0,0.0,0.0,3.1507,3.2663,3.3194,3.3925,3.4856,3.6081,3.6632,3.6558,3.7262,3.7663,3.7764,3.7337,0.0,3.4151,3.4,0.0,0.0,0.0,0.0,0.0,0.0,0.0,0.0,0.0,0.0,0.0,0.0,0.0,0.0,0.0,0.0,0.0,0.0,0.0,0.0,0.0,1.1728,1.2555,1.3718,1.3212,1.3207,1.4093,1.3545,1.3329,1.3684,1.3702,1.4246,1.5427,1.6557,1.8368,2.0939,2.3336,2.4515,2.4515,2.5435,2.5703,2.5376,2.4949,2.3593,2.1583,2.1078,0.0,0.0,0.0,0.0,0.0,0.0,0.0,0.0,0.0,0.0,0.0,0.0,0.0,0.0,0.0,0.0,0.0,0.0,0.0,0.0,0.0,0.0,0.0,0.0,0.0,0.0,0.0,0.0,0.0,0.0,0.0,0.0,0.0,0.0,0.0,0.0,0.0,0.0,0.0,2.5259,2.5963,2.716,2.6582,2.6223,0.0,0.0,0.0,0.0,0.0,0.0,0.0,0.0,0.0,3.2089,3.3147,3.4248,3.5401,3.5653,3.6157,3.6911,3.7739,3.8165,3.8165,3.8693,3.8944,3.8944,3.8944,3.8241,3.6985,3.6056,3.4753,3.3301,0.0,0.0,0.0,0.0,3.2696,3.2616,0.0,0.0,0.0,0.0,0.0,0.0,0.0,0.0,0.0,0.0,0.0,0.0,1.2395,1.3118,1.4082,1.5417,1.4715,1.466,1.5687,1.5097,1.4851,1.5135,1.5271,1.599,1.7314,1.887,2.0952,2.3521,2.5209,2.6013,2.6063,2.7042,2.7286,2.6927,2.7336,2.5887,2.315,2.2985,2.2056,2.0589,0.0,0.0,0.0,0.0,0.0,0.0,0.0,0.0,0.0,0.0,0.0,0.0,0.0,0.0,0.0,0.0,0.0,0.0,0.0,0.0,0.0,0.0,0.0,0.0,0.0,0.0,0.0,0.0,0.0,0.0,0.0,0.0,0.0,0.0,0.0,0.0,0.0,2.6063,2.6573,2.7971,2.7914,2.7756,0.0,0.0,0.0,0.0,0.0,0.0,3.219,3.3341,3.4195,3.4726,3.5656,3.661,3.7637,3.7637,3.7889,3.8442,3.9019,3.9321,3.9346,3.9873,4.0124,4.0124,4.0124,3.9873,3.9371,3.7713,3.6585,3.5907,3.5481,3.5255,3.5155,3.528,3.5282,3.5443,0.0,0.0,0.0,0.0,0.0,0.0,0.0,0.0,0.0,0.0,0.0,1.2956,1.4566,1.4601,1.5266,1.7105,1.6073,1.6081,1.7906,1.7528,1.7453,1.7978,1.8493,1.9045,1.9635,2.2322,2.4054,2.47,2.6389,2.7211,2.7236,2.7795,2.8047,2.8021,2.8047,2.7092,2.541,2.4892,2.3998,2.2844,2.1794,0.0,0.0,0.0,0.0,0.0,0.0,0.0,0.0,0.0,0.0,0.0,0.0,0.0,0.0,0.0,0.0,0.0,0.0,0.0,0.0,0.0,0.0,0.0,0.0,0.0,0.0,0.0,0.0,0.0,0.0,0.0,0.0,0.0,0.0,0.0,0.0,0.0,0.0,3.0362,3.0859,0.0,0.0,0.0,0.0,3.1993,3.2591,3.3395,3.4477,3.5606,3.6483,3.7034,3.7588,3.8165,3.8793,3.8818,3.9095,3.9622,4.0174,4.0399,4.045,4.0976,4.1227,4.1227,4.1227,4.1202,4.1051,3.9421,3.8115,3.711,3.7061,3.6759,3.6383,3.6885,3.782,3.8919,0.0,0.0,0.0,0.0,0.0,1.0012,1.0356,1.0407,1.0808,1.1977,1.3216,1.4178,1.4653,1.635,1.7799,1.8723,1.8368,1.874,2.0223,1.9704,1.9626,2.03,2.0827,2.173,2.2985,2.3988,2.5134,2.6414,2.701,2.7487,2.7821,2.8355,2.843,2.8122,2.8455,2.8079,2.7168,2.664,2.5762,2.4657,2.3929,2.2523,0.0,0.0,0.0,0.0,0.0,0.0,0.0,0.0,0.0,0.0,0.0,0.0,0.0,0.0,0.0,0.0,0.0,0.0,0.0,0.0,0.0,0.0,0.0,0.0,0.0,0.0,0.0,0.0,0.0,0.0,0.0,0.0,0.0,0.0,0.0,0.0,0.0,3.106,3.224,0.0,3.2993,3.3624,3.4276,3.4874,3.5426,3.608,3.6761,3.7563,3.809,3.8291,3.9145,3.9722,3.9923,4.0248,4.0524,4.0725,4.0926,4.1026,4.1026,4.1227,4.1302,4.1302,4.1302,4.1302,4.1277,4.0675,4.0198,3.9822,3.9822,4.0262,4.0941,4.1123,4.2047,4.3269,0.0,0.0,0.0,0.0,0.9893,1.0087,1.0625,1.0701,1.1302,1.3031,1.4372,1.5455,1.6277,1.8056,1.9492,2.0183,1.9995,2.0332,2.144,2.1047,2.099,2.1479,2.2182,2.3436,2.5335,2.5385,2.6088,2.757,2.7745,2.8021,2.838,2.8932,2.9107,2.8976,2.9681,2.9618,2.8938,2.9107,2.8116,2.6389,2.5661,2.4381,2.2839,0.0,0.0,0.0,0.0,0.0,0.0,0.0,0.0,0.0,0.0,0.0,0.0,0.0,0.0,0.0,0.0,0.0,0.0,0.0,0.0,0.0,0.0,0.0,0.0,0.0,0.0,0.0,0.0,0.0,0.0,0.0,0.0,0.0,0.0,3.0105,3.1391,3.2139,3.3721,3.4726,3.4726,3.5707,3.651,3.6909,3.7462,3.8014,3.8542,3.912,3.9521,3.9697,4.04,4.0775,4.0775,4.1127,4.1302,4.13,4.1679,4.1854,4.1879,4.2256,4.2431,4.2431,4.2431,4.2709,4.3148,4.2627,4.2737,4.3125,4.2563,4.3337,4.4767,4.4767,4.5605,4.6824,0.0,0.0,0.0,0.9893,0.9893,1.0087,1.0682,1.0751,1.1761,1.4582,1.5427,1.6773,1.9471,1.9713,2.0138,2.1384,2.0858,2.0797,2.1501,2.1583,2.1583,2.1633,2.2659,2.4264,2.6474,2.6524,2.706,2.8122,2.8656,2.8957,2.8982,2.9578,3.0131,3.0673,3.1694,3.1604,3.0727,3.217,3.1021,2.8152,2.7089,2.6265,2.551,0.0,0.0,0.0,0.0,0.0,0.0,0.0,0.0,0.0,0.0,0.0,0.0,0.0,0.0,0.0,0.0,0.0,0.0,0.0,0.0,0.0,0.0,0.0,0.0,0.0,0.0,0.0,0.0,0.0,0.0,0.0,0.0,0.0,3.1537,3.1964,3.2767,3.3872,3.5477,3.648,3.648,3.7412,3.8065,3.809,3.8642,3.9195,3.9722,4.0249,4.075,4.1275,4.1327,4.1352,4.1352,4.1378,4.1403,4.1428,4.2564,4.312,4.309,4.4202,4.4705,4.4676,4.4734,4.5574,4.6844,4.5314,4.5628,4.688,4.5156,4.5701,4.7432,4.7483,4.8321,4.9586,0.0,0.0,0.0,0.9893,0.9893,1.037,1.1711,1.1936,1.2923,1.5693,1.6583,1.7467,1.8852,2.0166,2.1061,2.1258,2.1938,2.2437,2.2644,2.306,2.3653,2.4447,2.5536,2.6457,2.706,2.7462,2.7996,2.8681,2.9277,2.9754,3.0136,3.0708,3.1035,3.1205,3.1503,3.1463,3.1261,3.2442,3.2448,3.1541,3.0261,2.8979,2.7758,0.0,0.0,0.0,0.0,0.0,0.0,0.0,0.0,0.0,0.0,0.0,0.0,0.0,0.0,0.0,0.0,0.0,0.0,0.0,0.0,0.0,0.0,0.0,0.0,0.0,0.0,0.0,0.0,0.0,0.0,0.0,3.2139,3.3395,3.3219,3.4396,3.5502,3.6207,3.7436,3.8215,3.8215,3.8843,3.9396,3.9772,3.9973,4.03,4.0826,4.1001,4.1152,4.1302,4.1731,4.216,4.2534,4.2936,4.331,4.3714,4.5126,4.5225,4.4224,4.6715,4.7289,4.6312,4.7427,4.811,4.8381,4.6873,4.7999,5.0352,4.7379,4.7136,4.8603,4.9697,5.0946,5.2194,0.0,0.0,0.0,0.9893,0.9893,1.047,1.2145,1.2396,1.3426,1.6288,1.7097,1.798,1.9493,2.0772,2.1624,2.1956,2.268,2.3095,2.3095,2.3662,2.4582,2.5929,2.6608,2.7286,2.7971,2.8298,2.8806,2.9609,3.0394,3.1087,3.1606,3.2365,3.287,3.3099,3.3554,3.3515,3.3159,3.4632,3.4872,3.4212,3.3851,3.212,2.9627,2.8195,2.6892,2.5787,2.5251,2.4824,2.4582,2.4924,0.0,0.0,0.0,0.0,0.0,0.0,0.0,0.0,0.0,0.0,0.0,0.0,0.0,0.0,0.0,0.0,0.0,0.0,0.0,0.0,0.0,0.0,0.0,0.0,3.4198,3.5454,3.5929,3.6431,3.7034,3.7813,3.8492,3.907,3.9547,3.9848,4.0275,4.08,4.0826,4.1076,4.1656,4.2479,4.2735,4.2359,4.413,4.4625,4.3693,4.5242,4.5861,4.5574,4.7334,4.7691,4.6906,4.9145,4.9721,4.8972,5.0106,5.0957,5.1418,4.9938,5.0906,5.2945,0.0,0.0,0.0,0.0,5.4128,5.4845,0.988,0.9867,0.9848,0.988,0.9861,1.0423,1.2137,1.2446,1.3588,1.6658,1.7359,1.8462,2.0796,2.1367,2.197,2.292,2.307,2.312,2.3195,2.3828,2.4874,2.6424,2.6675,2.7437,2.8881,2.9032,2.9642,3.0786,3.1837,3.2694,3.3295,3.4306,3.5036,3.5515,3.6495,3.6382,3.5612,3.751,3.7523,3.6259,3.7056,3.505,3.1378,2.8942,2.7878,2.7613,2.7077,2.6826,2.6776,2.6851,0.0,0.0,0.0,0.0,0.0,0.0,0.0,0.0,0.0,0.0,0.0,0.0,0.0,0.0,0.0,0.0,0.0,0.0,0.0,0.0,0.0,0.0,0.0,0.0,3.6282,3.7738,3.8743,3.814,3.7964,3.8969,3.9095,3.9497,4.0474,4.0575,4.0826,4.1352,4.1453,4.1756,4.2336,4.427,0.0,0.0,0.0,4.7756,4.4984,4.7836,4.8681,4.747,4.9474,5.0378,5.0242,5.1655,5.224,5.21,5.2854,5.3949,5.5026,5.3557,5.3754,5.478,5.2293,5.3376,5.6372,5.6885,5.7094,5.7094,0.9841,0.9679,0.9581,0.9848,0.9673,1.0154,1.2097,1.2764,1.4228,1.7507,1.8372,1.9383,2.1208,2.1845,2.2232,2.2433,2.2844,2.3296,2.3788,2.4757,2.5653,2.6449,2.7745,2.858,2.8888,2.981,3.0788,3.188,3.2968,3.3984,3.4958,3.5573,3.5955,3.6065,3.6261,3.6242,3.6144,3.7367,3.7752,3.743,3.7179,3.5774,3.3714,3.2736,3.1359,2.9905,2.9352,2.885,2.8505,2.902,2.819,2.706,2.7469,2.6884,0.0,0.0,0.0,0.0,0.0,0.0,0.0,0.0,0.0,0.0,0.0,0.0,0.0,0.0,0.0,0.0,0.0,0.0,0.0,3.5954,3.7487,3.8642,3.8869,3.9446,3.9948,4.0174,4.0199,4.0424,4.1102,4.1152,4.1378,4.1984,4.2436,4.2911,4.3463,4.5463,4.5939,4.4497,4.7456,4.8464,4.7105,4.9388,5.063,5.0791,5.2906,0.0,5.2265,5.4844,5.5423,5.4361,5.5674,5.6403,5.6565,5.5081,5.4957,5.5582,5.4558,5.5279,5.6944,5.7064,5.7094,5.7094,0.9607,0.9508,0.9449,0.962,0.9646,1.0279,1.2121,1.2638,1.3846,1.6779,1.7744,1.8784,2.0269,2.1304,2.202,2.2282,2.306,2.3662,2.3979,2.5301,2.6306,2.6876,2.8179,2.9277,3.0031,3.0945,3.2011,3.3301,3.4714,3.5821,3.6636,3.7415,3.7814,3.7814,3.7814,3.7814,3.7833,3.8368,3.8601,3.8572,3.8304,3.7366,3.5911,3.4013,3.2331,3.0959,3.0683,3.0407,3.0206,3.0507,2.9698,2.8618,2.8875,2.8015,2.6801,0.0,0.0,0.0,0.0,0.0,0.0,0.0,0.0,0.0,0.0,0.0,0.0,0.0,0.0,3.3395,3.4547,0.0,3.6936,3.7537,3.8818,3.9697,3.9697,4.0374,4.08,4.0524,4.0725,4.1127,4.1706,4.1982,4.2384,4.2964,4.3489,4.4232,4.5307,4.7285,4.805,4.727,5.0751,5.1714,4.9733,5.2565,5.3758,5.3329,5.5126,5.5625,5.4972,5.6758,5.7202,5.6559,5.7639,5.8112,5.8028,5.7301,5.7206,5.7471,5.7147,5.7436,5.8112,5.8112,5.8112,5.8112,0.9269,0.9282,0.9329,0.9469,0.9659,1.0345,1.1979,1.2337,1.3319,1.585,1.6879,1.7929,1.9333,2.0582,2.1594,2.2232,2.3236,2.3879,2.3979,2.5452,2.6625,2.7261,2.8348,2.9622,3.1167,3.1955,3.3122,3.4706,3.6331,3.7473,3.8125,3.8998,3.9391,3.9391,3.9391,3.9391,3.9391,3.9391,3.9391,3.9391,3.9391,3.8778,3.7472,3.4679,3.296,3.2036,3.2036,3.1842,3.1557,3.1557,3.0909,3.0105,3.0105,2.9176,2.7989,2.7437,2.7512,0.0,0.0,0.0,0.0,0.0,0.0,0.0,0.0,3.1215,3.2416,3.3768,3.465,3.5529,3.6683,3.7612,3.8391,3.9095,3.9948,4.0524,4.0625,4.1127,4.1352,4.1028,4.1352,4.1882,4.2436,4.3014,4.3604,4.437,4.4903,4.5871,4.7393,4.9501,5.0542,5.027,5.4226,5.5081,5.2352,5.5643,5.669,5.5558,5.6865,5.7483,5.7513,5.8052,5.8294,5.8324,5.889,5.9099,5.9099,5.9099,5.9099,5.9099,5.9099,5.9099,5.9099,5.9099,5.9099,5.9099,0.8821,0.8876,0.9087,0.9725,0.962,0.9956,1.1462,1.2095,1.339,1.6108,1.7005,1.8005,1.9595,2.0374,2.1194,2.2207,2.2844,2.3436,2.3954,2.5075,2.618,2.7261,2.8348,2.9622,3.1167,3.2333,3.3851,3.5813,3.7086,3.8235,3.9228,3.9337,3.9391,3.9391,3.9391,3.9391,3.9391,3.9391,3.9391,3.9391,3.9391,3.8778,3.7663,3.6348,3.5204,3.4322,3.4322,3.3369,3.2093,3.2093,3.1712,3.121,3.121,3.1105,3.0854,3.0306,2.9854,2.9478,2.9277,3.0055,3.118,3.211,3.2512,3.3144,0.0,3.4904,3.4904,3.7036,3.7161,3.7286,3.8416,3.8718,3.9145,4.0174,4.0399,4.0675,4.1152,4.1706,4.2235,4.2688,4.2788,4.3011,4.3564,4.4116,4.5018,4.6432,4.7068,4.8006,4.9501,5.2027,5.2841,5.1543,5.5075,5.6208,5.4555,5.6831,5.7915,5.7752,5.851,5.889,5.889,5.8949,5.9009,5.9009,5.9069,5.9099,5.9099,5.9099,5.9099,5.9099,5.9099,5.9099,5.9099,5.9099,5.9099,5.9099,0.8745,0.8792,0.9023,0.977,0.9777,1.0014,1.0993,1.1582,1.2705,1.4822,1.5863,1.6909,1.8266,1.9472,2.074,2.2182,2.311,2.3587,2.3471,2.515,2.618,2.6306,2.8198,2.9959,3.1522,3.3284,3.4867,3.6308,3.7541,3.837,3.8841,3.9212,3.9391,3.9391,3.9391,3.9391,3.9391,3.9391,3.9391,3.9391,3.9391,3.8778,3.7767,3.7291,3.592,3.4135,3.3866,3.3318,0.0,3.2315,3.1838,3.1406,3.1406,3.1185,3.0834,3.0306,3.0206,3.0331,3.0633,3.1557,3.2587,3.3366,3.4048,3.4851,3.613,3.6257,3.6609,3.8191,3.8341,3.8441,3.922,3.9622,3.9973,4.0424,4.1053,4.1683,4.2208,4.276,4.3341,4.3865,4.4993,4.5371,4.4378,4.4794,4.5766,4.7261,4.8219,4.9783,5.2112,5.3643,5.4595,5.4838,5.6696,5.7371,5.6753,5.8056,5.8683,5.871,5.8979,5.9099,5.9099,5.9099,5.9099,5.9099,5.9099,5.9099,5.9099,5.9099,5.9099,5.9099,5.9099,5.9099,5.9099,5.9099,5.9099,5.9099,0.8745,0.8881,0.9152,0.979,0.9914,1.013,1.0711,1.1255,1.2192,1.3881,1.4913,1.598,1.7272,1.8844,2.0288,2.1504,2.2799,2.3411,2.312,2.4808,2.5828,2.5901,2.7523,2.9497,3.1825,3.3374,3.4922,3.6493,3.7584,3.8123,3.8123,3.8811,3.9122,3.9122,3.9331,3.9391,3.9391,3.9391,3.9391,3.9391,3.9391,3.8807,3.7901,3.7348,3.5817,3.3913,3.3447,3.3014,3.2562,3.2139,3.1813,3.1612,3.1612,3.1461,3.1235,3.1009,3.121,3.1637,3.2164,3.3018,3.3922,3.4625,3.5529,3.6334,3.6959,3.7386,3.7939,3.8919,3.912,3.9296,3.9823,4.0249,4.06,4.0927,4.1658,4.2436,4.3112,4.3539,4.4209,4.5323,4.6955,4.7619,4.6642,4.6947,4.7644,4.8734,5.016,5.2099,5.4655,5.543,5.6268,5.7337,5.8025,5.8384,5.8384,5.886,5.9099,5.9099,5.9099,5.9099,5.9099,5.9099,5.9099,5.9099,5.9099,5.9099,5.9129,5.9308,5.9368,5.9398,5.9578,5.9668,5.9668,5.9668,5.9548,5.9398,0.8745,0.9121,0.9482,0.9828,0.9946,1.0186,1.0712,1.1255,1.2192,1.3881,1.4592,1.5573,1.7222,1.8844,1.9811,1.9886,2.1379,2.2558,2.307,2.3712,2.4855,2.6594,2.6058,2.771,3.2012,3.201,3.3482,3.6493,3.7135,3.7434,3.7447,3.8123,3.8422,3.8469,3.9092,3.9391,3.9391,3.9391,3.9391,3.9391,3.9391,3.9002,3.8163,3.6222,3.5034,3.4329,3.3926,3.278,3.1436,3.1411,3.1763,3.219,3.219,3.2566,3.3115,3.3621,3.3796,3.3922,3.4452,3.5004,3.5707,3.681,3.7513,3.809,3.8693,3.8843,3.9019,3.9546,3.9672,3.9848,4.0374,4.0474,4.0852,4.1959,4.2187,4.2562,4.3614,4.379,4.4738,4.7276,4.8248,4.941,5.1317,5.1512,5.154,5.1568,5.3525,5.5407,5.6933,5.7643,5.8002,5.8055,5.874,5.9069,5.9069,5.9099,5.9099,5.9099,5.9099,5.9099,5.9099,5.9099,5.9099,5.9099,5.9099,5.9099,5.9159,5.9787,6.0057,6.0116,6.0805,6.1016,6.1016,6.1016,6.0625,6.0146,0.8742,0.8962,0.9278,0.992,1.0057,1.0379,1.1308,1.1867,1.2657,1.3928,1.5191,0.0,0.0,0.0,0.0,0.0,2.1016,2.1995,2.2533,2.3085,2.3845,2.4861,2.6495,2.8251,3.0066,3.1974,3.3681,3.5176,3.5818,3.6357,3.6806,3.7434,3.7734,3.7764,3.7956,3.8075,3.8075,3.8075,3.8075,3.8023,3.7399,3.6984,3.6583,3.5246,3.4315,3.3651,0.0,3.2088,3.1356,3.0984,3.1235,3.1662,3.1662,3.2336,3.3215,3.3746,3.4402,3.5004,3.5182,3.6183,3.7362,3.814,3.8467,3.8743,3.9295,3.9446,3.9471,3.9647,3.9421,3.9346,3.9873,4.0275,4.0725,4.1505,4.2534,4.3883,4.5611,4.5307,4.6293,4.9925,5.0562,5.1144,5.2234,5.2346,5.277,5.3748,5.4901,5.6213,5.7703,5.8411,5.877,5.877,5.8979,5.9099,5.9099,5.9099,5.9099,5.9099,5.9099,5.9099,5.9129,5.9548,5.9757,5.9787,6.0236,6.0446,6.0446,6.0685,6.0775,6.0805,6.1014,6.1076,6.1136,6.1613,6.1613,6.1403,0.9191,0.9351,0.9504,1.0001,1.0116,0.0,0.0,0.0,0.0,0.0,0.0,0.0,0.0,0.0,0.0,0.0,0.0,2.1217,2.197,2.2533,2.3314,2.4446,2.6016,2.7618,2.9238,3.085,3.2258,3.3425,3.4113,3.4651,3.51,3.6207,3.6699,3.6729,3.7195,3.7387,3.7387,3.7387,3.7554,3.7652,3.6592,3.6272,3.6252,3.4461,3.3486,0.0,3.1672,3.1053,3.0778,3.0432,3.0809,3.1406,3.1406,3.2462,3.3822,3.455,3.5429,3.6183,3.6585,3.7513,3.8442,3.9044,3.9195,3.9296,3.9622,3.9697,3.9697,3.9697,3.9446,3.9296,3.9622,4.03,4.0901,4.1225,4.2707,4.4336,4.5866,4.6386,4.7885,5.1316,5.2603,5.3585,5.4541,5.4825,5.5049,5.5264,5.6367,5.7435,5.8417,5.889,5.9099,5.9099,5.9099,5.9099,5.9099,5.9099,5.9219,5.9458,5.9458,5.9578,5.9847,6.0266,6.0446,6.0475,6.0924,6.1076,6.1134,6.1373,6.1463,6.1493,6.1732,6.1822,6.1882,6.2301,6.245,6.2391,1.0001,1.0123,1.0086,0.0,0.0,0.0,0.0,0.0,0.0,0.0,0.0,0.0,0.0,0.0,0.0,0.0,0.0,0.0,2.1382,2.1945,2.3126,2.5218,2.4697,2.5951,2.9423,2.8817,2.9432,3.1451,3.2093,3.2422,3.2482,3.4396,3.531,3.5353,3.655,3.7088,3.7088,3.7088,3.7464,3.7943,3.6662,3.6529,3.6752,3.3607,3.2437,3.2278,3.0423,2.9781,2.9831,2.9798,3.0507,3.1411,3.1582,3.3068,3.4954,3.6105,3.6833,3.7537,3.8592,3.8919,3.907,3.9572,3.9697,3.9697,3.9697,3.9697,3.9697,3.9697,3.9672,3.9672,3.9697,4.0549,4.1277,4.1383,4.2763,4.4102,4.4807,4.7129,4.9548,5.1709,5.4287,5.6508,5.7981,5.874,5.8258,5.6235,5.7949,5.9099,5.9099,5.9099,5.9099,5.9099,5.9099,5.9099,5.9099,5.9129,5.9488,6.0146,6.0146,6.0475,6.1076,6.1164,6.1136,6.1136,6.1194,6.1224,6.1253,6.1882,6.2151,6.2211,6.2868,6.3108,6.3108,6.3108,6.3108,6.3108,0.0,0.0,0.0,0.0,0.0,0.0,0.0,0.0,0.0,0.0,0.0,0.0,0.0,0.0,0.0,0.0,0.0,0.0,2.0842,2.1043,2.1951,2.3832,2.4749,2.6106,2.7979,2.8846,2.9775,3.0747,3.0927,3.1256,3.178,3.2288,3.2527,3.2527,3.2856,3.3005,3.3005,3.3005,3.3095,3.3153,3.1983,3.2108,3.2777,3.0522,3.0477,3.1334,2.9604,2.9526,3.0188,2.9897,3.0507,3.1763,3.38,3.4831,3.5531,3.6659,3.7688,3.8517,3.8818,3.9195,3.9521,3.9672,3.9697,3.9697,3.9697,3.9697,3.9697,3.9697,3.9396,3.9245,3.9622,4.0249,4.1171,4.2632,4.3706,4.5593,4.897,4.9355,5.0914,5.5194,5.5847,5.6683,5.8665,5.9009,5.8847,5.8342,5.879,5.9099,5.9099,5.9099,5.9099,5.9099,5.9099,5.9099,5.9099,5.9608,6.0176,6.0864,6.0864,6.0954,6.1134,6.1613,6.1852,6.1882,6.2361,6.2599,6.26,6.2778,6.2868,6.2868,6.3048,6.3108,6.3108,6.3108,6.3108,6.3108,0.0,0.0,0.0,0.0,0.0,0.0,0.0,0.0,0.0,0.0,0.0,0.0,0.0,0.0,0.0,0.0,0.0,0.0,0.0,2.0541,2.1294,2.263,2.4218,2.557,2.6622,2.8024,2.8903,2.9219,2.9535,2.985,3.0239,3.0807,3.1062,3.1062,3.1361,3.1511,3.1511,3.1511,3.1839,0.0,0.0,3.1022,3.2094,2.9406,2.9167,3.0054,2.862,2.8972,3.0179,3.0402,3.106,3.2164,3.4427,3.5481,3.6107,3.7236,3.819,3.8944,3.9195,3.9472,3.9697,3.9697,3.9697,3.9697,3.9697,3.9697,3.9697,3.9697,3.9472,3.9271,3.9346,4.0174,4.1116,4.2008,4.4095,4.6559,4.9249,5.0934,5.3023,5.6192,5.7002,5.778,5.8988,5.9099,5.9099,5.9099,5.9099,5.9099,5.9099,5.9099,5.9099,5.9099,5.9398,5.9668,5.9967,6.0356,6.0864,6.1553,6.1553,6.1702,6.2002,6.2361,6.254,6.254,6.2958,6.3108,6.3108,6.3108,6.3108,6.3108,6.3108,6.3257,6.3468,6.3468,6.3677,6.3947,0.0,0.0,0.0,0.0,0.0,0.0,0.0,0.0,0.0,1.3936,1.4879,1.556,1.5583,1.6639,0.0,0.0,0.0,0.0,0.0,0.0,2.0949,2.1743,2.3371,2.4621,2.544,2.6773,2.7445,2.7446,2.8119,2.8457,2.8487,2.9594,3.0133,3.0133,3.0717,3.0972,3.0972,3.0972,3.1587,3.2422,3.0625,3.0923,3.2062,0.0,2.788,2.8375,2.7516,2.8266,2.9854,3.0934,3.1763,3.262,3.4352,3.5655,3.6708,3.7789,3.8542,3.912,3.9572,3.9697,3.9697,3.9697,3.9697,3.9697,3.9697,3.9697,3.9697,3.9697,3.9697,3.9521,3.8994,4.0174,4.1185,4.1177,4.4325,4.7202,4.8455,5.2265,5.5203,5.5972,5.786,5.9099,5.9099,5.9099,5.9099,5.9099,5.9099,5.9099,5.9099,5.9099,5.9129,5.9219,5.9877,6.0535,6.1253,6.1225,6.1583,6.2241,6.2241,6.254,6.3108,6.3108,6.3108,6.3108,6.3108,6.3108,6.3108,6.3197,6.3227,6.3227,6.3317,6.3647,6.4126,6.4126,6.4515,6.4994,0.0,0.0,0.0,0.0,0.0,0.0,0.0,0.0,0.0,0.0,1.4772,1.5339,0.0,0.0,0.0,0.0,0.0,0.0,0.0,0.0,0.0,2.1756,2.2567,2.3538,2.4684,2.6067,2.6759,2.668,2.7424,2.7764,2.7794,2.8004,2.8094,2.8124,2.8214,2.8274,2.8274,2.8274,2.8054,2.7655,2.7159,2.6876,2.6651,2.5236,2.5137,0.0,2.6434,2.767,2.9233,3.0362,3.1712,3.3316,3.5426,3.6557,3.7286,3.8416,3.9145,3.9572,3.9672,3.9697,3.9697,3.9697,3.9697,3.9697,3.9697,3.9697,3.9697,3.9697,3.9697,3.9521,3.8994,3.9848,4.1541,4.4259,4.5552,4.7784,5.2464,5.4137,5.5384,5.674,5.8217,5.9099,5.9099,5.9099,5.9099,5.9099,5.9099,5.9099,5.9099,5.9099,5.9338,5.9907,6.0595,6.1253,6.1912,6.1942,6.2241,6.2928,6.2928,6.2988,6.3108,6.3108,6.3108,6.3108,6.3108,6.3108,6.3138,6.3617,6.3827,6.3887,6.4426,6.4725,6.4815,6.4815,6.4904,6.4904,0.0,0.0,0.0,0.0,0.0,0.0,0.0,1.3509,1.4434,1.5059,1.5836,1.6308,1.6184,1.6983,1.793,0.0,0.0,0.0,0.0,0.0,0.0,2.072,2.1698,2.2619,2.35,2.4831,2.5821,2.6483,0.0,2.7229,2.7585,2.7585,2.7585,2.7585,2.7585,2.7382,2.7036,2.7036,2.6817,2.6426,2.598,2.5854,2.5783,2.461,2.4478,0.0,2.5441,2.7042,2.9032,2.9885,3.1662,3.3796,3.5429,3.6709,3.7789,3.8642,3.9296,3.9697,3.9697,3.9697,3.9697,3.9697,3.9697,3.9697,3.9697,3.9697,3.9697,3.9697,3.9497,3.922,3.8944,3.9321,4.0312,4.2204,4.4612,4.7462,5.1084,5.3905,5.609,5.7464,5.8501,5.9099,5.9099,5.9099,5.9099,5.9099,5.9428,5.9458,5.9129,5.9428,6.0086,6.1104,6.1463,6.1942,6.26,6.26,6.278,6.3108,6.3108,6.3108,6.3108,6.3108,6.3108,6.3138,6.3408,6.3558,6.3617,6.4276,6.4516,6.4545,6.4874,6.5203,6.5473,6.5114,6.5203,6.5413,0.0,0.0,0.0,0.0,0.0,0.0,0.0,1.4635,1.5644,1.63,1.6969,1.7446,1.7556,1.7905,1.8397,0.0,0.0,0.0,0.0,0.0,0.0,0.0,2.1056,2.1943,2.235,0.0,0.0,2.6028,2.6189,0.0,0.0,0.0,0.0,0.0,2.7122,2.6811,2.6256,2.6256,2.616,0.0,0.0,2.5392,2.5574,0.0,0.0,0.0,0.0,2.6498,2.8831,2.9428,3.1286,3.3596,3.4929,3.656,3.809,3.8567,3.9195,3.9697,3.9697,3.9697,3.9697,3.9697,3.9697,3.9672,3.9546,3.9521,3.9472,3.9195,3.8919,3.8642,3.8391,3.8542,3.8995,3.9855,4.3158,4.6512,4.9104,5.3001,5.6147,5.77,5.862,5.9099,5.9099,5.9099,5.9099,5.9099,5.9727,5.9907,5.9548,6.0146,6.0984,6.2061,6.2241,6.2569,6.3108,6.3108,6.3108,6.3108,6.3108,6.3108,6.3108,6.3227,6.3287,6.3347,6.3947,6.4216,6.4276,6.4934,6.5203,6.5203,6.5203,6.5532,6.5922,6.5233,6.5323,6.5712,0.0,0.0,0.0,0.0,0.0,0.0,0.0,1.483,1.5859,1.7125,1.7341,1.808,1.9878,1.9304,1.9059,0.0,0.0,0.0,0.0,0.0,0.0,0.0,0.0,0.0,0.0,0.0,0.0,2.4495,2.5175,0.0,0.0,0.0,0.0,0.0,0.0,2.555,2.5508,2.5508,0.0,0.0,0.0,0.0,0.0,0.0,0.0,0.0,0.0,2.6247,2.8273,2.8806,3.0161,3.1989,3.4101,3.6259,3.8015,3.8065,3.8843,3.9697,3.9697,3.9697,3.9697,3.9697,3.9697,3.9572,3.9095,3.8969,3.8693,3.7663,3.7764,3.7789,3.6808,3.7436,3.8711,4.0647,4.2151,4.4761,4.9706,5.2204,5.4469,5.6904,5.8321,5.9099,5.9099,5.9099,5.9099,5.9099,5.9727,6.0326,6.0894,6.1553,6.1972,6.2091,6.2689,6.3048,6.3108,6.3108,6.3108,6.3108,6.3108,6.3108,6.3138,6.3647,6.3917,6.3947,6.4605,6.4904,6.4964,6.5652,6.5922,6.5922,6.5922,6.5951,6.5922,6.5233,6.5024,6.4994,0.0,0.0,0.0,0.0,0.0,0.0,1.4955,1.5371,1.6059,1.7874,1.8359,1.8928,1.9927,2.0107,2.0061,1.9805,0.0,0.0,0.0,0.0,0.0,0.0,0.0,0.0,0.0,0.0,2.3529,2.4293,2.4595,0.0,0.0,0.0,0.0,0.0,0.0,2.5161,2.4738,2.4738,0.0,0.0,0.0,0.0,0.0,0.0,0.0,0.0,0.0,0.0,2.7745,2.8605,2.981,3.1165,3.2696,3.4477,3.6358,3.804,3.8592,3.8818,3.9496,3.9697,3.9697,3.9697,3.9697,3.9546,3.9019,3.8617,3.814,3.7361,3.6835,3.6459,3.6406,3.6458,3.7001,3.8513,4.035,4.2847,4.6342,4.9081,5.2031,5.5391,5.6606,5.7696,5.8958,5.9099,5.9428,6.0236,6.0924,6.1583,6.2271,6.2181,6.2271,6.2689,6.2958,6.3108,6.3108,6.3108,6.3108,6.3108,6.3108,6.3287,6.3647,6.3887,6.4216,6.4635,6.5293,6.5592,6.5622,6.634,6.661,6.661,6.661,6.637,6.5922,6.5233,6.4725,6.4306,0.0,0.0,0.0,0.0,0.0,1.2719,1.5464,1.5737,1.6274,1.8186,1.8927,1.9485,1.999,2.0658,2.0728,1.9927,2.0217,0.0,0.0,0.0,0.0,0.0,0.0,0.0,0.0,0.0,2.2988,2.3956,2.3956,2.4207,0.0,0.0,2.4711,2.4711,0.0,0.0,0.0,0.0,0.0,0.0,0.0,0.0,0.0,0.0,0.0,0.0,0.0,0.0,0.0,0.0,0.0,3.0061,3.1315,3.2667,3.4226,3.6885,3.7814,3.8191,3.8969,3.9446,3.9697,3.9697,3.9572,3.9296,3.8567,3.7964,3.7262,3.6383,3.5707,3.5406,3.5828,3.5682,3.5832,3.6808,3.8691,4.0925,4.3539,4.6406,4.985,5.415,5.5205,5.6537,5.8874,5.9279,5.9967,6.1313,6.1822,6.2391,6.3078,6.2659,6.26,6.3108,6.3108,6.3108,6.3108,6.3108,6.3197,6.3377,6.3377,6.3677,6.4306,6.4515,6.4844,6.5323,6.6011,6.6311,6.634,6.6789,6.6999,6.6939,6.655,6.6131,6.5592,6.4755,6.4156,6.3647,0.0,0.0,0.0,0.0,0.0,0.0,1.5083,1.5796,1.6555,1.7852,1.875,1.964,2.0496,2.0938,2.0879,2.0074,1.9878,0.0,0.0,0.0,0.0,0.0,0.0,0.0,0.0,0.0,2.3095,2.3095,2.3095,2.311,2.311,2.311,2.311,2.311,0.0,0.0,0.0,0.0,0.0,0.0,0.0,0.0,2.317,0.0,0.0,0.0,0.0,0.0,0.0,0.0,0.0,0.0,0.0,3.0984,3.1863,3.4076,3.6284,3.8015,3.8015,3.8843,3.9697,3.9697,3.9296,3.8617,3.7487,3.6808,3.5929,3.4274,3.4327,3.4703,3.4728,3.5132,3.5707,3.6306,3.7311,3.9141,4.2275,4.4731,4.8192,5.3462,5.4569,5.6014,5.8844,5.9697,6.0653,6.2002,6.2091,6.2391,6.3078,6.3108,6.3108,6.3108,6.3108,6.3108,6.3108,6.3108,6.3378,6.3977,6.3977,6.4366,6.5024,6.5682,6.5981,6.6041,6.67,6.6969,6.6969,6.6999,6.6999,6.6849,6.5532,6.5024,6.4845,6.3588,6.3108,6.3108,0.0,0.0,0.0,0.0,0.0,0.0,0.0,1.5112,1.5679,1.6941,1.7637,1.8323,1.9138,1.9622,1.9689,1.9164,2.0244,0.0,0.0,0.0,0.0,0.0,0.0,0.0,0.0,0.0,2.3095,2.3095,2.3095,2.3095,2.3095,2.3095,2.3095,2.3095,2.3095,2.3095,0.0,0.0,0.0,0.0,0.0,2.3095,2.317,0.0,0.0,0.0,0.0,0.0,0.0,0.0,0.0,0.0,0.0,0.0,0.0,3.257,3.4301,3.5983,3.7136,3.7713,3.8065,3.8442,3.8115,3.7537,3.6808,3.5929,3.4977,3.4073,3.4048,3.4274,3.4628,3.5132,3.5832,3.6808,3.7538,3.8894,4.1384,4.4304,4.7784,5.2099,5.565,5.8283,5.967,6.0386,6.1164,6.2032,6.251,6.2898,6.3108,6.3108,6.3108,6.3108,6.3108,6.3108,6.3108,6.3527,6.3797,6.4006,6.4456,6.5024,6.5712,6.5922,6.6251,6.67,6.6909,6.6999,6.6999,6.6999,6.6729,6.6281,6.5862,6.5144,6.4276,6.3857,6.3467,6.3108,0.0,0.0,0.0,0.0,0.0,0.0,0.0,1.4434,1.4941,1.6044,1.6621,1.7223,1.8049,1.8553,1.8802,1.8775,1.9994,0.0,0.0,0.0,0.0,0.0,0.0,0.0,0.0,2.292,2.3221,2.3436,2.3789,2.3819,2.3508,2.3228,2.3117,2.3102,2.3102,2.3098,0.0,0.0,0.0,0.0,2.3095,2.3246,2.3512,0.0,0.0,0.0,0.0,0.0,0.0,0.0,0.0,0.0,0.0,0.0,0.0,0.0,3.262,3.4126,3.5805,3.6558,3.6984,3.7287,3.696,3.6433,3.5881,3.5052,3.4276,3.3972,3.3897,3.4123,3.4879,3.5456,3.6207,3.7312,3.814,3.9525,4.2104,4.4803,4.8135,5.2518,5.6612,5.9368,6.0027,6.0715,6.1493,6.2391,6.2868,6.3108,6.3108,6.3108,6.3108,6.3108,6.3108,6.3227,6.3467,6.3797,6.4246,6.4755,6.5203,6.5742,6.637,6.637,6.661,6.6999,6.6999,6.6999,0.0,6.6999,6.661,6.5981,6.5712,6.4964,6.3977,6.3737,6.3408,6.3108,0.0,0.0,0.0,0.0,0.0,0.0,0.0,1.3802,1.4348,1.5161,1.5679,1.63,1.7165,1.7645,1.8144,1.8732,0.0,0.0,0.0,0.0,0.0,0.0,0.0,0.0,2.307,2.3145,2.3436,2.4004,2.4915,2.5021,2.4342,2.3609,2.3284,2.3329,2.334,2.3278,0.0,0.0,0.0,0.0,2.3095,2.3461,0.0,0.0,0.0,0.0,0.0,0.0,0.0,0.0,0.0,0.0,0.0,0.0,0.0,0.0,0.0,0.0,0.0,3.5353,3.623,3.6329,3.5906,3.5307,3.4853,3.4327,0.0,3.3947,3.3997,3.4324,3.5307,3.6056,3.6859,3.7889,3.9019,4.0873,4.4071,4.6301,4.9473,5.4609,5.754,5.9428,6.0114,6.0775,6.1702,6.3018,6.3108,6.3108,6.3108,6.3108,6.3138,6.3168,6.3168,6.3408,6.4006,6.4096,6.4784,6.6011,6.6071,6.64,6.6999,6.6999,6.6999,6.6999,6.6999,6.6999,6.6999,6.6999,6.658,6.5892,6.5233,6.4545,6.3857,6.3317,6.3108,6.3108,0.0,0.0,0.0,0.0,0.0,0.0,0.0,0.0,0.0,0.0,1.4303,1.4908,1.5766,1.6456,1.7065,0.0,0.0,0.0,0.0,0.0,0.0,0.0,0.0,0.0,2.3095,2.3562,2.3853,2.4004,2.4629,2.5293,2.5946,2.5205,2.5147,2.5688,2.5692,2.5065,0.0,0.0,0.0,0.0,2.3095,2.3461,0.0,0.0,0.0,0.0,2.6273,2.6499,0.0,0.0,0.0,0.0,0.0,0.0,0.0,0.0,3.0763,3.124,3.2445,0.0,3.4675,3.5506,3.5305,3.4979,0.0,3.4904,3.4502,3.4502,3.4853,3.5182,3.5458,3.666,3.7839,3.8567,3.9597,4.1586,4.5261,5.0076,5.4409,5.7707,5.9148,6.0116,6.0805,6.1463,6.2211,6.3048,6.3108,6.3108,6.3108,6.3108,6.3317,6.3767,6.3767,6.3857,6.4006,6.5024,6.5682,6.6011,6.652,6.6849,6.6999,6.6999,6.6999,6.6999,6.6999,6.6999,6.6999,6.6999,6.6311,6.5203,6.5054,6.4306,6.3287,6.3168,6.3108,6.3108,0.0,0.0,0.0,0.0,0.0,0.0,0.0,0.0,0.0,0.0,0.0,1.4166,0.0,0.0,0.0,0.0,0.0,0.0,0.0,0.0,0.0,0.0,0.0,2.2247,2.2907,2.3698,2.4453,2.515,2.6113,2.6739,2.6994,2.6932,2.678,2.6485,2.6143,2.5307,0.0,0.0,0.0,2.2595,2.2944,0.0,0.0,0.0,0.0,0.0,2.6373,2.6499,0.0,2.6499,2.7386,2.843,0.0,0.0,0.0,0.0,3.0407,3.0763,3.1612,3.2466,3.3395,3.4502,3.4728,3.4853,3.5382,3.5481,3.5554,3.5805,3.6081,3.6359,3.661,3.8555,4.0029,3.97,4.2371,4.5475,4.8408,5.2374,5.5737,5.7851,5.8986,6.0146,6.1433,6.1882,6.2361,6.3048,6.3108,6.3108,6.3108,6.3377,6.3647,6.3977,6.4605,6.4934,6.4934,6.5652,6.6161,6.646,6.6819,6.6999,6.6999,6.6999,6.6999,6.6999,6.6999,6.6999,6.6999,6.6999,6.6221,6.4994,6.4994,6.4216,6.3108,6.3108,6.3287,6.3498,0.0,0.0,0.0,0.0,0.0,0.0,0.0,0.0,0.0,0.0,0.0,0.0,0.0,0.0,0.0,0.0,0.0,0.0,0.0,0.0,0.0,0.0,0.0,2.1923,2.2879,2.397,2.519,2.6499,2.7999,2.8312,2.7533,2.8338,2.7977,2.6597,2.5876,2.5018,0.0,0.0,2.3079,2.1955,2.273,0.0,0.0,0.0,0.0,0.0,0.0,0.0,0.0,2.6267,2.7387,2.8706,2.8229,0.0,0.0,0.0,0.0,0.0,3.1336,3.1913,3.2616,3.3746,3.4352,3.4853,3.5506,3.6081,3.6632,3.711,3.7286,3.7513,3.814,4.0589,4.2137,4.1064,4.5795,5.0236,5.2128,5.4168,5.5943,5.7244,5.8567,6.0116,6.1912,6.2181,6.248,6.3078,6.3108,6.3108,6.3108,6.3647,6.4036,6.4156,6.5353,6.6071,6.6161,6.6161,6.643,6.6999,6.6999,6.6999,6.6999,6.6999,6.6999,6.6999,6.6999,6.6999,6.6999,6.6999,6.6221,6.4994,6.4994,6.4216,6.3108,6.3197,6.3558,6.4036,0.0,0.0,0.0,0.0,0.0,0.0,0.0,0.0,0.0,0.0,0.0,0.0,0.0,0.0,0.0,0.0,0.0,0.0,0.0,0.0,0.0,1.8534,2.0285,2.2052,2.3766,2.5327,2.6265,2.6499,2.8069,2.8299,2.718,2.8341,2.8242,2.7165,2.659,2.5711,2.4593,2.3409,2.2496,2.1956,2.2535,0.0,0.0,0.0,0.0,0.0,0.0,0.0,0.0,2.5229,2.6558,2.8204,2.8122,0.0,0.0,0.0,0.0,0.0,3.1687,3.2516,3.3219,3.4324,3.4628,3.4954,3.6029,3.6683,3.711,3.7185,3.7563,3.8191,3.9245,4.0584,4.1774,4.2489,4.761,5.2211,5.4302,5.6803,5.8714,5.9515,6.0307,6.1134,6.2002,6.26,6.2988,6.3108,6.3108,6.3108,6.3108,6.3647,6.4276,6.4815,6.5622,6.6281,6.6819,6.6849,6.6879,6.6999,6.6999,6.6999,6.6999,6.6999,6.6999,6.6999,6.6999,6.6999,6.6999,6.6999,6.6221,6.4994,6.4994,6.4216,6.3168,6.3647,6.3917,6.4156,0.0,0.0,0.0,0.0,0.0,0.0,0.0,0.0,0.0,0.0,0.0,0.0,0.0,0.0,0.0,0.0,0.0,0.0,0.0,0.0,0.0,1.809,1.9885,2.1385,2.2453,2.4797,2.634,2.7036,2.7935,2.8592,2.8978,2.8935,2.8195,2.6901,2.6364,2.5195,2.3623,2.2981,2.2397,2.1976,0.0,0.0,0.0,0.0,0.0,0.0,0.0,0.0,0.0,0.0,2.5572,2.7292,2.7292,0.0,0.0,0.0,0.0,0.0,3.1486,3.2437,3.3517,3.5203,3.6307,3.7262,3.8341,3.9296,3.9823,3.9496,3.9873,4.0426,4.0954,4.284,4.5536,4.9276,5.1234,5.3079,5.5239,5.6858,5.8094,5.8824,6.0209,6.1523,6.254,6.2928,6.3108,6.3108,6.3108,6.3257,6.3558,6.4186,6.4845,6.5503,6.6191,6.67,6.6999,6.6999,6.6999,6.6999,6.6999,6.6999,6.6999,6.6999,6.6999,6.6999,6.6999,6.6999,6.6999,6.6999,6.643,6.5532,6.5532,6.4934,6.4216,6.4844,6.5323,6.5742,0.0,0.0,0.0,0.0,0.0,0.0,0.0,0.0,0.0,0.0,0.0,0.0,0.0,0.0,0.0,0.0,0.0,0.0,0.0,0.0,1.6713,1.7765,1.9303,2.0679,2.189,2.4341,2.6251,2.7591,2.7911,2.8718,2.9947,2.8949,2.7661,2.6207,2.5812,2.4535,2.2697,2.2483,2.2125,2.1667,0.0,0.0,0.0,0.0,0.0,0.0,0.0,0.0,0.0,0.0,0.0,0.0,0.0,0.0,0.0,2.9477,3.0256,3.0959,3.1763,3.2914,3.4396,3.6609,3.7763,3.8693,4.0174,4.1105,4.1607,4.153,4.1884,4.2363,4.2864,4.5268,4.8864,5.4121,5.3809,5.378,5.6291,5.7125,5.7765,5.8548,6.0247,6.1792,6.2988,6.3108,6.3108,6.3108,6.3227,6.3498,6.3977,6.4755,6.5473,6.5981,6.664,6.6999,6.6999,6.6999,6.6999,6.6999,6.6999,6.6999,6.6999,6.6999,6.6999,6.6999,6.6999,6.6999,6.6999,6.7148,6.6819,6.6251,6.64,6.6161,6.5742,6.6281,6.6879,6.7537,0.0,0.0,0.0,0.0,0.0,0.0,0.0,0.0,0.0,0.0,0.0,0.0,0.0,0.0,0.0,0.0,0.0,0.0,0.0,0.0,1.6002,1.7214,1.8201,2.0407,2.4,2.5085,2.6351,2.788,2.8324,2.8386,2.8089,2.7505,2.6449,2.5099,2.5076,2.4168,2.2644,2.1836,2.1183,2.0751,2.1244,0.0,0.0,0.0,0.0,0.0,0.0,0.0,0.0,0.0,0.0,0.0,0.0,0.0,2.784,2.9377,3.0532,3.1687,3.3294,3.4924,3.6683,3.8894,3.8014,3.7261,3.9898,4.0174,4.0326,4.1808,4.2187,4.2813,4.4899,4.6668,4.8945,5.2362,5.3206,5.4713,5.8347,5.9441,6.0128,6.0815,6.1556,6.2301,6.3048,6.3108,6.3108,6.3108,6.3617,6.3947,6.4006,6.5233,6.5951,6.6011,6.664,6.6999,6.6999,6.6999,6.6999,6.6999,6.6999,6.6999,6.6999,6.6999,6.6999,6.6999,6.6999,6.6999,6.7029,6.7688,6.7538,6.6969,6.7628,6.7838,6.7808,6.7838,6.8287,6.8854,0.0,0.0,0.0,0.0,0.0,0.0,0.0,0.0,0.0,0.0,0.0,0.0,0.0,0.0,0.0,0.0,0.0,0.0,0.0,1.583,1.62,1.6502,1.7802,1.9676,2.2114,2.4091,2.5569,2.6467,2.7363,2.7303,2.6345,2.6618,2.5777,2.4059,2.4059,2.3218,2.173,2.1138,2.1123,2.1442,2.1069,2.1263,0.0,0.0,0.0,0.0,0.0,0.0,0.0,0.0,2.2614,2.3966,2.4947,2.6027,2.7234,2.8794,3.077,3.2663,3.3646,3.5604,3.7764,3.9295,3.9572,3.9923,4.1656,4.2409,4.2936,4.3564,4.4242,4.5196,4.6728,4.8595,5.0781,5.3347,5.4735,5.6478,5.9334,6.0296,6.0984,6.1642,6.2301,6.2838,6.3078,6.3108,6.3108,6.3108,6.3647,6.4186,6.4575,6.5503,6.6191,6.661,6.6849,6.6999,6.6999,6.6999,6.6999,6.6999,6.6999,6.6999,6.6999,6.6999,6.6999,6.6999,6.7449,6.7628,6.7688,6.8377,6.8465,6.8256,6.8525,6.8615,6.8615,6.8615,6.9034,6.9602,0.0,0.0,0.0,0.0,0.0,0.0,0.0,0.0,0.0,0.0,0.0,0.0,0.0,0.0,0.0,0.0,0.0,0.0,1.5396,1.5874,1.6194,1.6296,1.762,1.9062,2.054,2.2882,2.4487,2.5335,2.626,2.6087,2.4908,2.5506,2.4926,2.3351,2.3104,2.2413,2.1386,2.0957,2.1093,2.1508,2.0857,2.0972,0.0,0.0,0.0,0.0,0.0,0.0,0.0,0.0,2.1981,2.2845,2.4456,2.5505,2.6622,2.8996,3.1692,3.4022,3.4751,3.6835,3.9069,4.0199,4.1028,4.1982,4.3438,4.4217,4.474,4.5267,4.6301,4.7255,4.7807,4.9424,5.1457,5.373,5.5326,5.7168,5.9749,6.0864,6.1583,6.2061,6.2689,6.3108,6.3108,6.3108,6.3197,6.3377,6.3947,6.4635,6.5263,6.5951,6.652,6.6969,6.6999,6.6999,6.6999,6.6999,6.6999,6.6999,6.6999,6.6999,6.6999,6.6999,6.7119,6.7359,6.7808,6.8137,6.8377,6.9034,6.9423,6.9602,6.9602,6.9602,6.9602,6.9602,6.9901,7.026,0.0,0.0,0.0,0.0,0.0,0.0,0.0,0.0,0.0,0.0,0.0,0.0,0.0,0.0,0.0,0.0,0.0,0.0,1.5396,1.5396,1.5786,1.6648,1.7522,1.8576,1.9844,2.1581,2.323,2.4808,2.5183,2.482,2.3772,2.405,2.3801,2.3042,2.2266,2.1915,2.1855,2.1405,2.0977,2.0605,2.0605,2.0605,2.0605,0.0,0.0,0.0,0.0,0.0,0.0,0.0,2.2207,2.1499,2.6508,2.675,2.6037,3.0191,3.3348,3.5734,3.6885,3.8818,4.0802,4.1909,4.2238,4.2788,4.5024,4.5045,4.5091,4.6772,4.8008,4.8642,4.8033,4.8837,5.0452,5.3088,5.4499,5.6404,5.967,6.1253,6.2091,6.2121,6.2718,6.3108,6.3108,6.3108,6.3347,6.3947,6.4605,6.5293,6.5981,6.664,6.6999,6.6999,6.6999,6.6999,6.6999,6.6999,6.6999,6.6999,6.6999,6.6999,6.6999,6.6999,6.7389,6.8017,6.8017,6.8407,6.9064,6.9722,7.035,7.0889,7.0889,7.0889,7.0889,7.0889,7.0889,7.0889,0.0,0.0,0.0,0.0,0.0,0.0,0.0,0.0,0.0,0.0,0.0,0.0,0.0,0.0,0.0,0.0,0.0,0.0,1.5396,1.5396,1.5513,1.5766,1.6625,1.7425,1.8142,2.0136,2.2277,2.4523,2.4023,2.347,2.2891,2.3256,2.3016,2.2246,2.1992,2.2051,2.2246,2.1231,2.0859,2.1016,2.0703,2.0605,2.0605,0.0,0.0,0.0,0.0,0.0,0.0,0.0,0.0,0.0,2.4398,2.5466,2.6802,2.9928,3.278,3.528,3.6784,3.9396,4.1783,4.2137,4.3366,4.4769,4.5824,4.5924,4.6276,4.7933,4.8535,4.8868,4.9063,4.9364,5.0581,5.3633,5.3809,5.5257,6.0126,6.0495,6.0882,6.2605,6.2988,6.3108,6.3108,6.3108,6.3347,6.3947,6.4605,6.5293,6.5981,6.664,6.6999,6.6999,6.6999,6.6999,6.6999,6.6999,6.6999,6.6999,6.7479,6.7718,6.7718,6.7718,6.8077,6.8704,6.9215,6.9544,6.9722,7.038,7.0739,7.0889,7.0889,7.0889,7.0889,7.0889,7.0889,7.0889,0.0,0.0,0.0,0.0,0.0,0.0,0.0,0.0,1.5137,1.5357,1.5396,1.5396,0.0,0.0,0.0,1.5396,1.5396,1.5396,1.5396,1.5396,1.5474,1.5679,1.6332,1.7152,1.8142,1.9589,2.125,2.3142,2.2947,2.2732,2.2498,2.2927,2.2849,2.2362,2.2559,2.2695,2.2715,2.1759,2.1289,2.1171,2.0937,2.0742,2.0625,0.0,0.0,0.0,0.0,0.0,0.0,0.0,0.0,0.0,2.4244,2.535,2.687,3.1022,3.4006,3.6409,3.8316,4.0953,4.3165,4.3165,4.4346,4.5799,4.7004,4.728,4.7631,4.8894,4.9145,4.9245,4.954,4.959,5.0512,5.3328,5.3463,5.4902,5.9771,6.015,6.0702,6.2816,6.3108,6.3108,6.3108,6.3317,6.3707,6.4366,6.4994,6.5712,6.637,6.6759,6.6999,6.6999,6.6999,6.6999,6.6999,6.6999,6.7119,6.7419,6.7808,6.8287,6.8796,6.8526,6.8734,6.9423,7.0081,7.035,7.038,7.0739,7.0889,7.0889,7.0889,7.0889,7.0889,7.0889,7.0889,7.0889,0.0,0.0,0.0,0.0,0.0,0.0,0.0,1.5176,1.5396,1.5396,1.5396,1.5396,0.0,0.0,0.0,1.5396,1.5396,1.5396,1.5396,1.5396,1.5586,1.6026,1.6449,1.7503,1.9199,1.9648,2.0274,2.1152,2.2049,2.2459,2.2381,2.2927,2.312,2.3084,2.3535,2.3557,2.3227,2.2637,2.1952,2.1269,2.1191,2.0937,2.0644,2.1016,0.0,0.0,0.0,0.0,0.0,0.0,0.0,0.0,2.5298,2.5973,2.6612,3.2772,3.6157,3.8391,4.0499,4.2808,4.4589,4.4539,4.5121,4.625,4.8341,4.8843,4.9019,4.949,4.959,4.959,4.959,4.964,5.0371,5.2439,5.3266,5.4934,5.8755,5.9836,6.09,6.2642,6.2991,6.3138,6.3197,6.3677,6.4306,6.5024,6.5682,6.6281,6.6939,6.6999,6.6999,6.6999,6.6999,6.6999,6.6999,6.6999,6.7359,6.7987,6.8077,6.8766,6.9993,6.9363,6.9453,7.0081,7.0649,7.0889,7.0889,7.0889,7.0889,7.0889,7.0889,7.0889,7.0889,7.0889,7.0889,7.0889,0.0,0.0,0.0,0.0,0.0,0.0,1.522,1.5337,1.5396,1.5396,1.5396,1.5396,1.5396,1.5396,0.0,1.5396,1.5396,1.5396,1.5396,1.5396,1.5449,1.5547,1.6293,1.733,1.8732,1.9199,1.9862,2.0723,2.1914,2.2147,2.1502,2.2988,2.3279,2.2654,2.3064,2.3418,2.3555,2.2088,2.1581,2.168,2.1016,2.0683,2.0625,2.0684,2.0683,0.0,0.0,0.0,0.0,0.0,0.0,0.0,2.494,2.619,2.7849,3.2173,3.5326,3.7663,3.9044,4.1957,4.4489,4.4091,4.5698,4.7631,4.8592,4.9145,4.9464,4.9565,4.959,4.959,4.959,4.9941,5.0796,5.2518,5.262,5.3647,5.7066,5.8119,5.9163,6.084,6.2263,6.3287,6.3767,6.3917,6.4485,6.5712,6.5922,6.6281,6.6939,6.6999,6.6999,6.6999,6.6999,6.6999,6.6999,6.6999,6.7359,6.8017,6.8525,6.9213,7.0023,6.9842,7.0111,7.0709,7.0829,7.0889,7.0889,7.0889,7.0889,7.0889,7.0889,7.0889,7.0889,7.0889,7.0889,7.0889,0.0,0.0,0.0,0.0,0.0,0.0,0.0,0.0,1.5396,1.5396,1.5396,1.5396,1.5396,1.5396,0.0,0.0,1.5396,1.5396,1.5396,1.5396,1.5396,1.5396,1.6055,1.6719,1.7383,1.8242,1.8984,1.9648,2.0937,2.1562,2.1542,2.2656,2.2949,2.2539,2.3357,2.363,2.3418,2.2539,2.2051,2.1876,2.1407,2.0957,2.0625,2.0801,2.0781,2.0605,2.0605,0.0,0.0,0.0,0.0,0.0,0.0,0.0,2.7912,3.2212,3.5075,3.7286,3.9446,4.2283,4.479,4.5573,4.7054,4.846,4.9038,4.9389,4.959,4.959,4.959,4.9665,4.9941,5.0218,5.0832,5.2257,5.2243,5.3069,5.5827,5.7245,5.8606,6.0298,6.2028,6.3347,6.3947,6.4306,6.4904,6.5922,6.6311,6.664,6.6969,6.6999,6.6999,6.6999,6.6999,6.6999,6.6999,6.7329,6.7838,6.8465,6.9153,6.9812,7.041,7.041,7.059,7.0889,7.0889,7.0889,7.0889,7.0889,7.0889,7.0889,7.0889,7.0889,7.0889,7.0889,7.0889,7.0889,0.0,0.0,0.0,0.0,0.0,0.0,0.0,0.0,0.0,1.5396,1.5396,1.5396,1.5396,1.5396,1.5396,0.0,0.0,0.0,1.5396,1.5396,1.5435,1.5527,1.5889,1.6124,1.6202,1.7383,1.8166,1.85,1.9765,2.0899,2.1915,2.2362,2.2596,2.2676,2.3809,2.3884,2.322,2.3205,2.2775,2.213,2.2052,2.1583,2.0957,2.121,2.1172,2.0918,2.086,2.082,2.084,2.0918,0.0,0.0,0.0,0.0,2.7676,3.2265,3.4949,3.7085,4.0173,4.2858,4.5242,4.738,4.8335,4.8944,4.9464,4.959,4.959,4.959,4.9665,4.9866,5.0343,5.0536,5.1021,5.195,5.2176,5.2861,5.4697,5.6466,5.8167,5.9872,6.1702,6.3176,6.4067,6.4755,6.5443,6.6131,6.67,6.6999,6.6999,6.6999,6.6999,6.6999,6.6999,6.7059,6.7148,6.7718,6.8407,6.9183,6.9842,7.041,7.0889,7.0889,7.0889,7.0889,7.0889,7.0889,7.0889,7.0889,7.0889,7.0889,7.0889,7.0889,7.0889,7.0889,7.0889,7.0889,0.0,0.0,0.0,0.0,0.0,0.0,0.0,0.0,0.0,0.0,1.5396,1.5396,1.5396,1.5396,1.5396,1.5396,1.5396,1.5396,1.5396,0.0,0.0,1.5987,1.6065,1.6265,1.6625,1.7522,1.803,1.8069,1.9022,2.0312,2.1915,2.2674,2.3045,2.3127,2.3655,2.3809,2.3672,2.3342,2.3127,2.299,2.2578,2.2363,2.2227,2.1914,2.1992,2.2207,2.1857,2.1739,2.1804,2.2264,2.2239,0.0,0.0,0.0,2.8032,3.1444,3.4299,3.6909,3.927,4.2585,4.5773,4.7481,4.8335,4.8944,4.9464,4.959,4.959,4.959,4.9967,5.0318,5.0393,5.1222,5.1925,5.2076,5.2468,5.2898,5.3188,5.4675,5.6375,5.8103,6.0325,6.2517,6.4666,6.5443,6.6161,6.6819,6.6939,6.6999,6.6999,6.6999,6.6999,6.6999,6.6999,6.7299,6.7868,6.7958,6.8646,6.9842,7.05,7.0829,7.0889,7.0889,7.0889,7.0889,7.0889,7.0889,7.0889,7.0889,7.0889,7.0889,7.0889,7.0889,7.0889,7.0889,7.0889,7.0889,0.0,0.0,0.0,0.0,0.0,0.0,0.0,0.0,0.0,0.0,0.0,1.5396,1.5396,1.5396,1.5396,1.5396,1.5396,1.5396,1.5396,1.5396,1.5488,1.5698,1.5718,1.5781,1.5981,1.684,1.7405,1.7656,1.8768,2.0059,2.1523,2.2362,2.3047,2.3538,2.3711,2.3652,2.3415,2.3496,2.3379,2.3164,2.3203,2.3359,2.3474,2.283,2.2986,2.3474,2.281,2.2441,2.227,2.2509,2.251,2.2688,2.4363,0.0,0.0,0.0,3.3068,3.5904,3.9999,4.2986,4.5472,4.7431,4.8335,4.8944,4.9464,4.959,4.959,4.959,5.0293,5.0896,5.0896,5.1574,5.2201,5.2528,5.2744,5.2895,5.2895,5.4332,5.5815,5.6924,5.9672,6.217,6.3895,6.5257,6.6281,6.6939,6.6999,6.6999,6.6999,6.6999,6.6999,6.6999,6.7389,6.7718,6.7987,6.8766,6.9604,7.05,7.0769,7.0889,7.0889,7.0889,7.0889,7.0889,7.0889,7.0889,7.0889,7.0889,7.0889,7.0889,7.0889,7.0889,7.0889,7.0889,7.0889,7.0889,0.0,0.0,0.0,0.0,0.0,0.0,0.0,0.0,0.0,0.0,0.0,1.5396,1.5396,0.0,0.0,0.0,1.5396,1.5396,1.5396,1.5396,1.5396,1.5396,1.5396,1.5396,1.5396,1.6239,1.6937,1.7399,1.8689,2.0019,2.1405,2.2147,2.2969,2.3789,2.3789,2.3555,2.314,2.3711,2.3769,2.3513,2.4297,2.4805,2.4996,2.4586,2.5078,2.5797,2.4549,0.0,0.0,2.3521,2.3307,2.3433,2.4572,2.5814,0.0,0.0,0.0,3.5529,4.01,4.2663,4.4518,4.6753,4.7832,4.8535,4.9238,4.949,4.959,4.959,5.0494,5.1306,5.1306,5.185,5.2418,5.282,5.2895,5.2895,5.2895,5.409,5.5308,5.6163,5.9262,6.1668,6.2545,6.4383,6.5789,6.6293,6.6322,6.6508,6.6999,6.6999,6.6999,6.6999,6.7658,6.8077,6.8257,6.9574,7.044,7.0889,7.0889,7.0889,7.0889,7.0889,7.0889,7.0889,7.0889,7.0889,7.0889,7.0889,7.0889,7.0889,7.0889,7.0889,7.0889,7.0889,7.0889,7.0919,0.0,0.0,0.0,0.0,0.0,0.0,0.0,0.0,0.0,0.0,0.0,1.5396,1.5396,1.5396,1.5396,1.5396,1.5396,1.5396,1.5396,1.5396,1.5396,1.5396,1.5396,0.0,1.5396,1.6239,1.6937,1.7399,1.8689,2.0175,2.1855,2.2305,2.2969,2.3789,2.3789,2.3555,2.3162,2.4001,2.4352,2.4469,2.6147,2.6855,2.6947,2.7734,2.8949,2.9889,2.762,0.0,0.0,0.0,2.5262,2.4955,2.647,2.7178,2.7864,0.0,0.0,0.0,3.8542,4.0652,4.2838,4.5075,4.6426,4.7475,4.8592,4.9213,4.959,4.959,5.0494,5.1306,5.1306,5.2151,5.287,5.2895,5.2895,5.2895,5.2895,5.34,5.443,5.6082,5.8989,6.0794,6.075,6.2948,6.4381,6.4438,6.4438,6.52,6.6908,6.6999,6.6999,6.6999,6.7658,6.8317,6.8944,7.0201,7.0859,7.0889,7.0889,7.0889,7.0889,7.0889,7.0889,7.0889,7.0889,7.0889,7.0889,7.0889,7.0889,7.0889,7.0889,7.0889,7.0889,7.0889,7.0889,7.0979,0.0,0.0,0.0,0.0,0.0,0.0,0.0,0.0,0.0,0.0,0.0,0.0,0.0,1.5396,1.5396,1.5396,1.5396,1.5396,1.5396,1.5396,1.5396,1.5396,1.5396,1.5396,1.5396,1.6239,1.6785,1.6957,1.8516,1.9746,2.0644,2.1641,2.2285,2.2619,2.344,2.3555,2.314,2.3747,2.4336,2.5079,2.7529,2.9219,3.0346,3.172,3.2857,0.0,0.0,0.0,0.0,0.0,2.8762,2.8075,2.8207,2.862,2.947,3.1568,3.3671,3.5755,3.7764,3.9421,4.123,4.3765,4.5522,4.6979,4.8466,4.9188,4.969,5.0042,5.0745,5.1306,5.1306,5.2176,5.2895,5.2895,5.2895,5.2895,5.2895,5.3381,5.4078,5.507,5.7515,5.9195,5.9468,6.1357,6.3051,6.4217,6.4281,6.5105,6.6877,6.6999,6.7178,6.7628,6.8286,6.9153,7.0201,7.0679,7.0889,7.0889,7.0889,7.0889,7.0889,7.0889,7.0889,7.0889,7.0889,7.0889,7.0889,7.0889,7.0889,7.0889,7.0889,7.0889,7.0889,7.0889,7.0889,7.1009,0.0,0.0,0.0,0.0,0.0,1.5435,1.5605,1.5625,1.5625,0.0,0.0,0.0,0.0,0.0,1.5454,1.5625,1.5625,1.5684,1.5825,1.5723,1.5703,1.5825,1.5552,1.5532,1.5825,1.6395,1.6843,1.7152,1.842,1.9434,2.0156,2.1055,2.1622,2.1935,2.2773,2.3066,2.2947,2.3691,2.4359,2.5185,2.8807,3.0543,3.1214,3.3535,3.4759,3.5117,3.4514,0.0,0.0,3.3257,3.2809,3.2298,3.1158,3.0732,3.0999,3.2621,3.3596,3.4577,3.661,3.799,3.9421,4.1831,4.3966,4.5849,4.7361,4.8661,4.969,5.0067,5.0745,5.1255,5.1021,5.19,5.2669,5.287,5.2895,5.2945,5.3121,5.3658,5.4245,5.4823,5.6918,5.8263,5.8021,5.9609,6.1427,6.3248,6.2854,6.383,6.6846,6.6415,6.677,6.8286,6.8974,6.9842,7.0889,7.0889,7.0889,7.0889,7.0889,7.0889,7.0889,7.0889,7.0889,7.0889,7.0889,7.0889,7.0889,7.0889,7.0889,7.0889,7.0889,7.0889,7.0889,7.0889,7.0889,7.1038,0.0,0.0,0.0,0.0,1.5396,1.5547,1.6007,1.6105,1.6124,0.0,0.0,0.0,0.0,0.0,0.0,1.6105,1.6139,1.6285,1.6668,1.6328,1.6285,1.6687,1.5903,1.5844,1.6687,1.6707,1.7152,1.7971,1.8401,1.9259,2.0566,2.0586,2.1035,2.1876,2.1855,2.2109,2.2576,2.3845,2.4391,2.4886,2.9938,3.0839,2.9549,3.3277,3.4711,3.469,3.4508,3.5262,3.6398,3.6739,3.7274,3.7407,3.5276,3.3546,0.0,0.0,3.314,3.3445,0.0,0.0,0.0,3.922,4.1731,4.4066,4.5196,4.7581,4.954,4.9565,5.0527,5.1096,5.0519,5.1348,5.2277,5.277,5.287,5.3071,5.3607,5.4185,5.4798,5.529,5.7416,5.8144,5.6376,5.7788,5.9574,6.136,5.9885,6.1259,6.6631,6.5324,6.5842,6.8911,6.9662,7.029,7.0889,7.0889,7.0889,7.0889,7.0889,7.0889,7.0889,7.0889,7.0889,7.0889,7.0889,7.0889,7.0889,7.0889,7.0889,7.0889,7.0889,7.0889,7.0889,7.0889,7.0889,7.1098,0.0,0.0,0.0,1.585,1.564,1.5435,1.5566,1.6133,1.6527,0.0,0.0,0.0,0.0,0.0,0.0,1.7028,1.6738,1.6586,1.6687,1.6605,1.6586,1.6687,1.6473,1.6453,1.6687,1.7015,1.7324,1.7575,1.8264,1.8966,1.9667,1.9941,2.0391,2.0957,2.1269,2.1796,2.2557,2.3555,2.4512,2.5707,2.9829,3.2658,3.4763,3.7868,4.0469,4.2439,4.2354,4.2297,4.2103,4.1013,4.0249,3.9352,3.7146,3.5575,0.0,0.0,0.0,0.0,3.4223,0.0,0.0,0.0,0.0,0.0,4.4618,4.6677,4.8485,4.8944,5.025,5.1096,5.0519,5.1348,5.2026,5.1774,5.2402,5.2945,5.3096,5.3959,5.4672,5.4798,5.6059,5.675,5.6255,5.6642,5.7707,5.9504,5.9183,6.0682,6.4822,6.6708,6.832,6.9692,7.032,7.0739,7.0889,7.0889,7.0889,7.0889,7.0889,7.0889,7.0889,7.0889,7.0889,7.0889,7.0889,7.0889,7.0889,7.0889,7.0889,7.0889,7.0889,7.0889,7.0889,7.0889,7.0889,7.1098,0.0,0.0,1.5835,1.6269,1.6118,1.6044,1.643,1.7074,1.7486,0.0,0.0,0.0,0.0,0.0,0.0,0.0,1.7659,1.7486,1.7486,1.7347,1.7233,1.7233,1.6882,1.6863,1.7213,1.7344,1.7477,1.7637,1.8127,1.8576,1.9023,1.9453,1.9883,2.0351,2.1152,2.1992,2.2871,2.4277,2.5312,2.6389,3.0811,3.3653,3.5613,3.9418,4.1883,4.3379,4.4282,4.4338,4.3993,4.419,4.2886,4.1053,4.0199,3.809,0.0,0.0,0.0,0.0,0.0,0.0,3.6234,3.7111,0.0,0.0,4.3639,4.5824,4.7807,4.8642,4.9916,5.082,5.0436,5.1147,5.1649,5.1356,5.2026,5.2619,5.287,5.3658,5.4421,5.4898,5.5265,5.5717,5.6168,5.6018,5.6713,5.8763,5.8215,5.9357,6.2986,6.6167,6.8393,6.9572,7.044,7.0889,7.0889,7.0889,7.0889,7.0889,7.0889,7.0889,7.0889,7.0889,7.0889,7.0889,7.0889,7.0889,7.0889,7.0889,7.0889,7.0889,7.0889,7.0889,7.0889,7.0889,7.0889,7.1098,0.0,0.0,1.6285,1.6703,1.6765,1.7035,1.7832,1.8401,1.8734,0.0,0.0,0.0,0.0,0.0,0.0,0.0,1.8792,1.8734,1.8734,1.8361,1.8108,1.8069,1.7311,1.7252,1.7971,1.7637,1.7637,1.7991,1.7991,1.8225,1.8676,1.9102,1.957,2.0098,2.1348,2.2443,2.346,2.5469,2.6629,2.7537,3.2341,3.4107,3.4417,3.9317,4.1135,4.1322,4.3368,4.4006,4.4229,4.6364,4.5045,4.2587,4.3363,4.0602,3.706,0.0,3.583,0.0,0.0,0.0,0.0,0.0,3.8391,0.0,4.2258,4.4669,4.6903,4.8014,4.9188,5.0009,5.0009,5.0569,5.0996,5.0996,5.1523,5.2101,5.2678,5.3181,5.3909,5.4988,5.4773,5.4924,5.5917,5.5591,5.6183,5.8341,5.7466,5.8241,6.1537,6.4828,6.7377,6.9062,7.026,7.0889,7.0889,7.0889,7.0889,7.0889,7.0889,7.0889,7.0889,7.0889,7.0889,7.0889,7.0889,7.0889,7.0889,7.0889,7.0889,7.0889,7.0889,7.0889,7.0889,7.0889,7.0889,7.1068,1.7266,1.6894,1.6722,1.7168,1.7266,1.7321,1.7497,1.873,1.9649,1.9649,0.0,0.0,0.0,0.0,0.0,0.0,0.0,1.9649,1.9649,1.9277,1.8887,1.85,1.8325,1.8166,1.7991,1.7913,1.7913,1.7991,1.7991,1.8398,1.916,1.9256,1.9902,2.0956,2.1621,2.2734,2.4238,2.5367,2.8071,3.1677,3.2968,3.4928,3.7418,4.0834,4.419,4.7199,4.8085,4.8622,4.8771,4.7533,4.5769,4.394,4.2864,4.1861,4.0578,3.7964,0.0,0.0,0.0,0.0,0.0,0.0,3.7813,0.0,4.0149,4.1808,4.3467,4.4543,4.6376,4.7751,4.7751,4.8586,4.9296,4.9296,5.0092,5.0946,5.1523,5.2076,5.2653,5.3296,5.3683,5.4135,5.4848,5.4823,5.5116,5.6004,5.8848,6.1104,6.2348,6.6266,6.8895,6.9782,7.053,7.0889,7.0889,7.0889,7.0889,7.0889,7.0889,7.0889,7.0889,7.0889,7.0889,7.0889,7.0889,7.0889,7.0889,7.0889,7.0889,7.0889,7.0889,7.0889,7.0889,7.0889,7.0889,7.1009,1.7695,1.7344,1.7249,1.7891,1.7991,1.8164,1.8574,1.9727,2.0547,0.0,0.0,0.0,0.0,0.0,0.0,0.0,0.0,0.0,2.1211,2.082,2.0293,1.9629,1.9609,1.9297,1.8652,1.842,1.8303,1.8303,1.8088,1.8322,1.8947,1.9394,2.111,2.3763,2.3121,2.474,2.7914,2.7467,2.9185,3.2322,3.4159,3.717,4.0927,4.3966,4.6842,4.9321,5.0142,5.0419,5.0135,4.851,4.6828,4.5321,4.4493,4.3291,4.1808,3.9823,3.8668,3.7638,0.0,0.0,0.0,3.6306,0.0,0.0,0.0,4.1205,4.2411,4.324,4.4945,4.6401,4.6647,4.7405,4.8033,4.8309,4.9289,4.9816,4.9289,5.1122,5.2628,5.287,5.2904,5.313,5.3708,5.3758,5.421,5.5315,5.7325,5.956,6.1976,6.477,6.7301,6.9451,7.041,7.0889,7.0889,7.0889,7.0889,7.0889,7.0889,7.0889,7.0889,7.0889,7.0889,7.0889,7.0889,7.0889,7.0889,7.0889,7.0889,7.0889,7.0889,7.0889,7.0889,7.0889,7.0889,7.1009,1.7991,1.7734,1.7734,1.8461,1.8676,1.9025,1.9883,2.0762,2.1425,0.0,0.0,0.0,0.0,0.0,0.0,0.0,0.0,0.0,2.3123,2.2734,2.2169,2.1368,2.0938,2.0429,1.9823,1.9103,1.8715,1.8715,1.8401,1.8498,1.9005,1.9786,2.215,2.5743,2.5159,2.706,3.059,3.0126,3.1045,3.317,3.6024,3.951,4.3286,4.6356,4.8525,5.0067,5.1197,5.1222,5.0619,4.9715,4.8309,4.6878,4.6577,4.4995,4.3039,4.1679,0.0,0.0,0.0,0.0,0.0,0.0,0.0,3.8391,0.0,0.0,0.0,4.2235,4.3441,4.4568,4.5246,4.5799,4.6245,4.6602,4.7857,4.8259,4.6672,4.9708,5.2142,5.2243,5.2176,5.2226,5.2578,5.3046,5.3808,5.4838,5.585,5.7867,6.1296,6.2769,6.5248,6.8879,6.9878,7.0531,7.0889,7.0889,7.0889,7.0889,7.0889,7.0889,7.0889,7.0889,7.0889,7.0889,7.0889,7.0889,7.0889,7.0889,7.0889,7.0889,7.0889,7.0889,7.0889,7.0889,7.0889,7.0979,1.7991,1.7952,1.8069,1.852,1.8947,1.9511,2.0371,2.127,2.2227,0.0,0.0,0.0,0.0,0.0,0.0,0.0,0.0,2.6602,2.5425,2.4961,2.4515,2.3981,2.2147,2.1269,2.1602,2.0039,1.9219,1.9219,1.916,1.9569,2.0371,2.084,2.1918,2.363,2.7309,2.84,2.777,3.1816,3.5236,3.8067,3.9138,4.0437,4.2025,4.5048,4.8223,5.1247,5.2352,5.2377,5.19,5.1774,5.0619,4.8962,4.7475,4.7099,4.6476,4.2482,4.1856,0.0,0.0,0.0,0.0,0.0,3.7563,3.8191,3.8919,0.0,3.8793,3.9848,0.0,4.0676,4.1679,0.0,0.0,4.213,4.4267,4.5547,4.4342,4.7104,4.9414,4.9916,5.1222,5.195,5.1498,5.3683,5.4587,5.3271,5.7423,6.0261,6.0844,6.2486,6.5153,6.8909,6.8609,6.922,7.0856,7.0889,7.0889,7.0889,7.0889,7.0889,7.0889,7.0889,7.0889,7.0889,7.0889,7.0889,7.0889,7.0889,7.0889,7.0889,7.0889,7.0889,7.0889,7.0889,7.0889,7.0919,1.7991,1.8186,1.8498,1.8927,1.9375,1.9941,2.082,2.1874,2.3142,2.4684,0.0,0.0,0.0,0.0,0.0,0.0,2.7721,2.7663,2.7572,2.7168,0.0,2.521,2.4082,2.3184,2.2596,2.1426,2.0664,2.0391,2.0391,2.0469,2.0625,2.1543,2.3589,2.6584,2.9228,3.1378,3.3083,3.4643,3.7466,4.0773,4.032,4.2547,4.6301,4.7951,5.0057,5.2302,5.2719,5.2744,5.2528,5.2201,5.1423,5.0393,4.9364,4.8736,4.7908,4.5392,4.4313,4.3413,4.108,4.0451,4.0075,3.8567,3.9069,3.9721,3.907,3.8693,3.8542,3.8693,0.0,0.0,0.0,0.0,0.0,0.0,4.3112,4.4116,4.3039,4.5723,4.8008,4.856,4.954,5.0218,5.0293,5.2528,5.3683,5.2945,5.5812,5.8066,5.9189,6.09,6.3557,6.7318,6.7852,6.9019,7.0856,7.0889,7.0889,7.0889,7.0889,7.0889,7.0889,7.0889,7.0889,7.0889,7.0889,7.0889,7.0889,7.0889,7.0889,7.0889,7.0889,7.0889,7.0889,7.0889,7.0889,7.0889,1.801,1.8322,1.8752,1.9219,1.9727,2.0469,2.1541,2.283,2.4137,2.5523,2.6128,2.6693,2.7435,2.8066,2.8633,0.0,2.9344,2.95,2.9601,2.9238,2.8555,2.7513,2.6172,2.5215,2.4703,2.3203,2.2246,2.1913,2.1796,2.1602,2.1309,2.2598,2.4862,2.7956,3.0406,3.3274,3.634,3.7147,3.9708,4.3188,4.2416,4.537,5.0287,5.0854,5.1841,5.2895,5.2895,5.2895,5.2845,5.2477,5.1975,5.1398,5.0845,5.0117,4.9245,4.7958,4.6697,4.5321,4.3391,4.2864,4.2361,4.0301,4.0777,4.1403,4.01,3.9572,3.912,3.8391,3.8366,0.0,0.0,0.0,0.0,0.0,0.0,4.2085,4.0979,4.3539,4.5869,4.6878,4.7782,4.8661,4.9515,5.1749,5.2995,5.2694,5.4662,5.6453,5.7813,5.9022,6.1469,6.5354,6.668,6.8219,7.014,7.0629,7.0889,7.0889,7.0889,7.0889,7.0889,7.0889,7.0889,7.0889,7.0889,7.0889,7.0889,7.0889,7.0889,7.0889,7.0889,7.0889,7.0889,7.0889,7.0889,7.0919,1.8069,1.8322,1.8752,1.9219,1.9999,2.1133,2.2791,2.418,2.52,2.5659,2.7162,2.8379,2.8781,3.0742,3.1836,3.1416,3.291,3.3215,3.1543,3.1035,3.1182,3.1964,2.8386,2.709,2.8664,2.5449,2.3711,2.3711,2.3323,2.3108,2.3042,2.4375,2.511,2.5444,3.0474,3.3123,3.4025,3.8766,4.2627,4.567,4.6625,4.9002,5.2083,5.2619,5.2845,5.2895,5.2895,5.2895,5.2895,5.287,5.2528,5.1975,5.1423,5.1255,5.0904,4.9245,4.8718,4.8064,4.5296,4.4514,4.4141,4.2487,4.2512,4.2788,4.221,4.1255,4.0149,3.9095,3.8014,3.7261,3.7261,0.0,0.0,0.0,0.0,0.0,0.0,3.9721,4.2306,4.4439,4.6145,4.7801,4.9439,5.2076,5.3256,5.2201,5.5103,5.7055,5.7293,5.7179,5.9108,6.3356,6.4684,6.6202,6.818,6.9979,7.0889,7.0889,7.0889,7.0889,7.0889,7.0889,7.0889,7.0889,7.0889,7.0889,7.0889,7.0889,7.0889,7.0889,7.0889,7.0889,7.0889,7.0889,7.0889,7.0979,1.8945,1.9181,1.9415,1.9335,2.0234,2.1582,2.3301,2.4437,2.5669,2.7226,2.8418,2.9531,3.0498,3.1562,3.2355,3.2703,3.3574,3.386,3.3242,3.3066,3.2617,3.1777,2.9676,2.8633,2.8879,2.6953,2.5644,2.5054,2.4648,2.4144,2.3594,2.4613,2.5924,2.7624,3.2569,3.6007,3.824,4.1408,4.5342,4.9529,5.0931,5.2182,5.3181,5.3356,5.3432,5.3482,5.3884,5.4009,5.4009,5.4009,5.3884,5.3667,5.3055,5.2653,5.2176,5.1247,5.0444,4.9565,4.8259,4.8184,4.7883,4.5497,4.5573,4.5799,4.4166,4.2936,4.1959,4.123,3.9899,3.8768,0.0,0.0,0.0,0.0,0.0,0.0,0.0,3.9747,4.0901,4.1304,4.4443,4.6923,4.7851,5.0795,5.2176,5.1071,5.3733,5.5249,5.4926,5.5901,5.8031,6.1497,6.3594,6.5775,6.8083,6.9946,7.0889,7.0889,7.0889,7.0889,7.0889,7.0889,7.0889,7.0889,7.0889,7.0889,7.0889,7.0889,7.0889,7.0889,7.0889,7.0889,7.0889,7.0889,7.0889,7.1068,1.9394,1.9746,2.0117,2.0,2.1172,2.2617,2.4046,2.5258,2.6627,2.8301,2.9531,3.0703,3.1836,3.2637,3.3391,3.4062,3.4648,3.4896,3.4603,3.5142,3.474,3.2961,3.2256,3.1585,3.0791,2.9043,2.7793,2.7109,2.6211,2.5312,2.4492,2.5857,2.7311,2.8998,3.3216,3.721,4.0956,4.2777,4.6541,5.1423,5.3055,5.3708,5.3733,5.416,5.4185,5.4059,5.4471,5.4597,5.4597,5.4597,5.4597,5.4522,5.4135,5.3783,5.3432,5.308,5.2452,5.1699,5.0745,5.0745,5.0444,4.8058,4.7983,4.8083,4.6476,4.5246,4.4292,4.3768,4.2185,4.0877,4.0902,0.0,0.0,0.0,0.0,0.0,0.0,3.9295,3.9696,3.9948,4.3037,4.5573,4.6697,4.9633,5.1448,5.1289,5.3155,5.411,5.3708,5.4938,5.6711,5.903,6.2549,6.5161,6.6787,6.9501,7.0889,7.0889,7.0889,7.0889,7.0889,7.0889,7.0889,7.0889,7.0889,7.0889,7.0889,7.0889,7.0889,7.0889,7.0889,7.0889,7.0889,7.0889,7.1218,7.1787,1.9628,2.0156,2.0879,2.1288,2.2734,2.4121,2.5024,2.6627,2.8073,2.8926,3.0537,3.2003,3.2976,3.4223,3.5198,3.577,3.6577,3.6715,3.5888,3.7472,3.7594,3.5703,3.6078,3.5614,3.4166,3.1582,3.0059,2.9657,2.797,2.6671,2.584,2.8074,2.9211,2.9537,3.2572,3.6896,4.1995,4.3,4.6494,5.1532,5.3055,5.3733,5.3909,5.4988,5.5125,5.4672,5.4672,5.4672,5.4672,5.4723,5.4723,5.4723,5.4723,5.4723,5.4723,5.4672,5.4622,5.4245,5.2628,5.2176,5.18,5.0167,4.9766,4.9615,4.9095,4.8083,4.7099,4.6577,4.4744,4.3567,4.4539,4.2482,0.0,0.0,0.0,0.0,0.0,0.0,3.8743,4.0223,4.1982,4.3919,4.6024,4.8736,5.1013,5.2619,5.3356,5.3683,5.3658,5.4295,5.5125,5.6168,6.1505,6.438,6.4407,6.8736,7.0889,7.0889,7.0889,7.0889,7.0889,7.0889,7.0889,7.0889,7.0889,7.0889,7.0889,7.0889,7.0889,7.0889,7.0889,7.0919,7.0949,7.0949,7.1787,7.3013,2.1855,2.2383,2.3127,2.3513,2.3942,2.4668,2.5884,2.75,2.9141,3.0644,3.2344,3.4421,3.6988,3.8129,3.9458,4.1313,4.2024,4.2298,4.216,4.2579,4.1675,3.9086,3.8191,3.6763,3.4583,3.2324,3.0976,3.0576,2.9525,2.8396,2.7245,2.9455,3.1138,3.2333,3.449,3.8572,4.3925,4.4645,4.787,5.2578,5.3381,5.421,5.4988,5.529,5.5541,5.5792,5.5792,5.5792,5.5842,5.6269,5.6358,5.6358,5.6358,5.6358,5.6244,5.5415,5.4924,5.4421,5.3532,5.3281,5.3105,5.2277,5.2042,5.1891,5.1373,5.0368,4.9382,4.8862,4.7631,4.6602,4.6471,4.4543,4.3087,0.0,0.0,0.0,0.0,0.0,0.0,3.9396,4.2208,4.4389,4.4966,4.7933,4.9992,5.0419,5.2477,5.3532,5.3155,5.4436,5.5491,5.6194,6.1165,6.4027,6.4407,6.8736,7.0889,7.0889,7.0889,7.0889,7.0889,7.0889,7.0889,7.0889,7.0889,7.0889,7.0889,7.0889,7.0889,7.0889,7.0889,7.1188,7.1637,7.1637,7.2176,7.3013,2.2969,2.3655,2.4574,2.5176,2.6055,2.6855,2.7402,2.8789,3.0391,3.2129,3.4381,3.6848,3.9445,4.1053,4.2635,4.4366,4.3972,4.3604,4.3512,4.4422,4.3707,4.0903,4.1627,4.1001,3.8636,3.6583,3.4763,3.3212,3.2156,3.0671,2.8886,3.0932,3.2851,3.4644,3.646,4.0135,4.5121,4.7154,4.9916,5.297,5.3758,5.4612,0.0,5.5917,5.6294,5.6559,5.6872,5.6796,5.6634,5.7186,5.7387,5.7387,5.7387,5.7387,5.7261,5.6671,5.6269,5.5892,5.5315,5.5128,5.4963,5.421,5.3833,5.3557,5.3256,5.2126,5.1197,5.1373,5.0117,4.9106,4.9558,4.7657,4.5673,4.4694,0.0,0.0,0.0,0.0,0.0,0.0,4.2235,4.3639,4.389,4.7807,5.0444,5.067,5.2352,5.3331,5.3246,5.3934,5.4662,5.5465,5.9713,6.2641,6.402,6.7791,7.0108,7.0889,7.0889,7.0889,7.0889,7.0889,7.0889,7.0889,7.0889,7.0889,7.0889,7.0889,7.0889,7.0889,7.0889,7.1308,7.1969,7.2235,7.2774,7.3432,2.3909,2.4672,2.5708,2.6562,2.8425,2.98,2.9846,3.0882,3.2246,3.3816,3.6814,3.9566,4.1482,4.3582,4.5312,4.6433,4.4997,4.3918,4.3608,4.5479,4.5371,4.2634,4.5518,4.6094,4.3748,4.1853,3.9561,3.6808,3.5507,3.3617,3.1222,3.3046,3.4825,3.6598,3.841,4.1683,4.605,4.9748,5.2,5.3196,5.422,5.5024,5.5717,5.6634,5.7035,5.7186,5.7801,5.7625,5.7186,5.7801,5.8001,5.8027,5.8077,5.8102,5.8102,5.8027,5.7951,5.7775,5.7161,5.6985,5.6759,5.5842,5.5239,5.4924,5.4924,5.3658,5.2779,5.3632,5.2302,5.1373,5.2644,5.082,4.8466,4.6351,4.5547,0.0,0.0,0.0,0.0,0.0,0.0,0.0,4.3316,4.7914,5.1046,5.1523,5.2443,5.3155,5.3482,5.3296,5.3658,5.4572,5.8226,6.1162,6.3203,6.6651,6.9065,7.0563,7.0791,7.0889,7.0889,7.0889,7.0889,7.0889,7.0889,7.0889,7.0889,7.0889,7.0889,7.0919,7.1009,7.1427,7.2116,7.2804,7.3462,7.4091,2.6939,2.7076,2.7506,2.832,2.9687,3.163,3.4479,3.539,3.6123,3.7124,4.041,4.3476,4.5685,4.7027,4.8632,5.0807,5.0651,5.0626,5.1003,5.1403,5.0534,4.8041,4.823,4.71,4.4255,4.2743,4.1315,3.9891,3.9277,3.7922,3.5938,3.7695,3.8357,3.8177,4.0042,4.3335,4.7657,5.0193,5.2486,5.4321,5.4522,5.544,5.6734,5.6935,5.7286,5.7826,5.8378,5.8227,5.7826,5.8403,5.8579,5.8654,5.9081,5.9207,5.9131,5.8704,5.8252,5.7775,5.7161,5.6985,5.6935,5.6759,5.6634,5.6559,5.6559,5.5666,5.4737,5.4496,5.4145,5.3658,5.2995,5.1774,5.0451,4.9088,4.841,4.8014,0.0,0.0,0.0,0.0,0.0,4.6959,4.525,4.7129,4.8535,4.8636,5.1699,5.3206,5.2427,5.4009,5.4838,5.4622,5.9067,6.1362,6.1229,6.683,6.9313,6.862,7.0173,7.0889,7.0889,7.0889,7.0889,7.0889,7.0889,7.0889,7.0889,7.0889,7.0889,7.0949,7.1517,7.2116,7.2804,7.3492,7.4151,7.4753,2.8015,2.8738,2.9473,2.9863,3.2353,3.4964,3.6886,3.9787,4.1598,4.1023,4.3347,4.5839,4.796,4.9495,5.0934,5.2375,5.1585,5.1139,5.1384,5.1408,5.0877,4.971,5.017,4.9796,4.839,4.713,4.5292,4.2864,4.2895,4.1425,3.8637,3.9946,4.0835,4.1373,4.4303,4.6803,4.8937,5.1473,5.3366,5.4647,5.5225,5.6068,5.706,5.7637,5.8039,5.8403,5.893,5.8956,5.8755,5.9031,5.9131,5.9156,5.9408,5.9483,5.9433,5.9207,5.893,5.8679,5.8378,5.8303,5.8252,5.7939,5.7663,5.7549,5.7813,5.6821,5.5817,5.5842,5.539,5.4737,5.3934,5.3105,5.2176,5.1071,5.067,5.0193,4.9314,0.0,0.0,0.0,0.0,0.0,0.0,4.7832,4.8912,4.9188,5.1749,5.3181,5.2955,5.3934,5.4536,5.4597,5.8365,6.097,6.2196,6.6728,6.9222,6.9553,7.0498,7.0889,7.0889,7.0889,7.0889,7.0889,7.0889,7.0889,7.0889,7.0889,7.1098,7.1457,7.1757,7.2505,7.3462,7.3762,7.43,7.4903,2.9082,3.0371,3.1564,3.2058,3.5273,3.8221,3.9497,4.3604,4.6007,4.4522,4.6248,4.8197,4.9728,5.1333,5.2452,5.2845,5.1478,5.0622,5.0622,5.0622,5.0622,5.0622,5.1664,5.2226,5.2101,5.1222,4.9214,4.6075,4.6327,4.457,4.1006,4.2107,4.3428,4.4995,4.8184,4.9791,5.0293,5.2678,5.4034,5.4697,5.5767,5.662,5.7286,5.829,5.8742,5.893,5.9357,5.9483,5.9483,5.9483,5.9483,5.9483,5.9483,5.9483,5.9483,5.9483,5.9483,5.9483,5.9483,5.9483,5.9433,5.9131,5.873,5.8554,5.9106,5.8127,5.7148,5.7311,5.6319,5.529,5.5024,5.426,5.3532,5.3055,5.2578,5.1925,5.0971,0.0,0.0,0.0,0.0,0.0,4.8077,4.9389,5.0519,5.1071,5.2092,5.2945,5.3507,5.3758,5.421,5.4924,5.8035,6.0862,6.3316,6.6771,6.9103,7.0305,7.0694,7.0889,7.0889,7.0889,7.0889,7.0889,7.0889,7.0889,7.0919,7.1038,7.1427,7.1939,7.2206,7.2954,7.3911,7.4061,7.442,7.4903,3.169,3.2559,3.3814,3.5873,3.7603,4.0105,4.4328,4.6079,4.6884,4.6718,4.9539,5.1613,5.1838,5.245,5.2845,5.2895,5.2732,5.2629,5.2629,5.2629,5.2629,5.2629,5.2742,5.2628,5.2126,5.2,5.1281,4.9864,4.9446,4.7464,4.4215,4.581,4.7176,4.8366,4.9213,5.0444,5.195,5.3181,5.4034,5.4697,5.5767,5.6872,5.7876,5.8478,5.9006,5.9433,5.9483,5.9483,5.9483,5.9483,5.9483,5.9483,5.9483,5.9483,5.9483,5.9483,5.9483,5.9483,5.9483,5.9483,5.9608,6.006,6.0136,6.0236,6.0814,6.0412,5.962,5.8716,5.6872,5.5516,5.5968,5.4762,5.416,5.5591,5.4125,5.3296,5.4662,5.308,5.1975,0.0,0.0,0.0,5.0929,5.195,5.2795,5.3356,5.2653,5.2427,5.2945,5.3934,5.4999,5.6018,5.9624,6.1867,6.2497,6.7377,6.9349,6.8383,7.0108,7.0889,7.0889,7.0889,7.0889,7.0889,7.0889,7.0889,7.0949,7.1547,7.1816,7.1996,7.3223,7.3791,7.3971,7.4569,7.4873,7.4903,3.3234,3.4903,3.6687,3.8226,4.1396,4.4487,4.6684,4.874,5.0053,5.0053,5.1245,5.2226,5.2578,5.277,5.2895,5.2895,5.2895,5.2895,5.2895,5.2895,5.2895,5.2895,5.2895,5.2795,5.2569,5.2569,5.2051,5.0946,5.1046,4.9891,4.7631,4.8987,5.0042,5.082,5.1674,5.2427,5.313,5.4235,5.5039,5.5641,5.6771,5.77,5.8453,5.8981,5.9307,5.9483,5.9483,5.9483,5.9483,5.9483,5.9483,5.9483,5.9483,5.9483,5.9483,5.9483,5.9483,5.9558,5.991,5.9985,6.0136,6.0688,6.0839,6.0989,6.1542,6.124,6.0713,6.0286,5.8152,5.6545,5.7123,5.6118,5.5315,5.5666,5.5265,5.4888,5.4924,5.3833,0.0,5.3356,0.0,0.0,0.0,5.308,5.3582,5.2804,5.3884,5.4511,5.4411,5.4813,5.5415,5.6194,5.9885,6.2419,6.3595,6.8223,7.0263,6.9781,7.0563,7.0889,7.0889,7.0889,7.0889,7.0889,7.0889,7.1128,7.1517,7.1787,7.2355,7.3133,7.3672,7.4151,7.451,7.4813,7.4903,7.4903,3.5581,3.7877,4.0213,4.1771,4.5054,4.7825,4.8976,5.0808,5.2176,5.2327,5.2352,5.2503,5.2845,5.2895,5.2895,5.2895,5.2895,5.2895,5.2895,5.3046,5.3155,5.3155,5.3306,5.3331,5.3121,5.3155,5.2703,5.1774,5.2151,5.1322,4.9364,4.9992,5.1197,5.2854,5.3432,5.3884,5.426,5.539,5.6018,5.6319,5.7625,5.8378,5.8742,5.9307,5.9483,5.9483,5.9483,5.9483,5.9483,5.9483,5.9483,5.9483,5.9483,5.9483,5.9483,5.9483,5.9608,5.9834,6.0211,6.0437,6.0713,6.1291,6.1416,6.1567,6.2119,6.1943,6.1567,6.124,5.9483,5.7989,5.8127,5.7349,5.6646,5.6394,5.6143,5.5817,5.5365,5.4386,5.3884,5.4386,5.431,5.3959,5.3356,5.4662,5.4898,5.3206,5.5315,5.6168,5.4963,5.5214,5.5717,5.6383,6.0154,6.2933,6.4621,6.8823,7.0889,7.0889,7.0889,7.0889,7.0889,7.0889,7.0889,7.0919,7.1098,7.1457,7.1906,7.2325,7.3043,7.3911,7.4121,7.448,7.4903,7.4903,7.4903,7.4903,3.9338,4.1702,4.4435,4.7316,4.8171,4.927,5.1671,5.2101,5.2302,5.282,5.2895,5.2895,5.2895,5.2895,5.2895,5.2895,5.2895,5.2895,5.2895,5.3406,5.3683,5.3683,5.427,5.4321,5.3708,5.3683,5.3432,5.287,5.287,5.1498,4.8793,4.8209,5.0293,5.4547,5.3959,5.4336,5.544,5.6508,5.6659,5.6369,5.8027,5.8666,5.8742,5.9307,5.9483,5.9483,5.9483,5.9483,5.9483,5.9483,5.9483,5.9483,5.9483,5.9483,5.9483,5.9483,5.9885,6.0311,6.0311,6.0738,6.1316,6.1868,6.1994,6.2144,6.2656,6.2781,6.2496,6.1416,6.0688,5.996,5.8867,5.8252,5.8052,5.8566,5.6846,5.5767,5.6809,5.5053,5.431,5.5993,5.5691,5.5566,5.6118,5.7198,5.7148,5.5465,5.6922,5.6671,5.3858,5.4787,5.5892,5.696,6.0674,6.3501,6.5159,6.8961,7.0889,7.0889,7.0889,7.0889,7.0889,7.0889,7.0889,7.0949,7.1577,7.1876,7.1996,7.3313,7.3881,7.3971,7.4634,7.4903,7.4903,7.4903,7.4903,7.4903,4.2904,4.3966,4.5404,4.8314,5.003,5.1331,5.2475,5.2678,5.2694,5.287,5.2895,5.2895,5.2895,5.2895,5.2895,5.2895,5.3221,5.3457,5.3457,5.3984,5.4321,5.4321,5.4496,5.4522,5.4321,5.4321,5.4245,5.4059,5.4059,5.3818,5.3316,5.3105,5.3959,5.5666,5.5491,5.5817,5.6483,5.686,5.7336,5.7976,5.8504,5.893,5.9257,5.9433,5.9483,5.9483,5.9483,5.9483,5.9483,5.9483,5.9483,5.9483,5.9483,5.9483,5.9483,5.9483,5.9885,6.0412,6.0788,6.1316,6.1868,6.2421,6.2571,6.2581,6.2756,6.2781,6.2681,6.237,6.1567,6.0814,6.0462,5.9332,5.8504,5.8666,5.7801,5.7072,5.701,5.6093,5.5465,5.5641,5.5164,5.4773,5.4511,5.5516,5.5817,5.4924,5.7072,5.7549,5.5516,5.5767,5.6294,5.6985,6.0736,6.3342,6.4649,6.879,7.0889,7.0889,7.0889,7.0889,7.0889,7.0889,7.1158,7.1577,7.1787,7.2415,7.3283,7.3702,7.4151,7.4604,7.4843,7.4903,7.4903,7.4903,7.4903,7.4903,4.5319,4.6657,4.8245,5.0309,5.1634,5.2494,5.2845,5.2895,5.2895,5.2895,5.2895,5.2895,5.2895,5.3071,5.3196,5.3196,5.3507,5.3808,5.4009,5.4597,5.4924,5.4924,5.5064,5.5125,5.4924,5.4924,5.4798,5.4597,5.4597,5.4999,5.5691,5.5491,5.5917,5.6846,5.662,5.6784,5.7336,5.7537,5.8039,5.873,5.893,5.9207,5.9483,5.9483,5.9483,5.9483,5.9483,5.9483,5.9483,5.9483,5.9633,5.9809,5.9809,5.996,6.0085,5.9859,6.0362,6.104,6.1391,6.1893,6.2395,6.2706,6.2631,6.2471,6.227,6.237,6.2521,6.2521,6.2144,6.1743,6.1542,6.0638,5.9809,5.9344,5.8855,5.8303,5.7713,5.7198,5.6872,5.6922,5.6269,5.5666,5.5315,5.5717,5.5591,5.4672,5.6545,5.7298,5.6269,5.662,5.6897,5.6985,6.0736,6.3259,6.4407,6.8736,7.0889,7.0889,7.0889,7.0889,7.0919,7.1158,7.1487,7.1939,7.2415,7.3133,7.3911,7.4151,7.451,7.4903,7.4903,7.4903,7.4903,7.4903,7.4903,7.4903,4.7056,4.9621,5.2132,5.2795,5.2895,5.2895,5.2895,5.2895,5.2895,5.2895,5.2895,5.2895,5.2945,5.3406,5.3733,5.3808,5.3808,5.4059,5.4622,5.5175,5.544,5.544,5.5942,5.5968,5.5465,5.544,5.5214,5.4773,5.4823,5.5315,5.6319,5.5792,5.6394,5.7876,5.7336,5.7412,5.8001,5.8554,5.8755,5.8818,5.9282,5.9483,5.9483,5.9483,5.9483,5.9483,5.9483,5.9483,5.9508,5.9533,5.9885,6.0337,6.0362,6.0763,6.114,6.0563,6.1165,6.1994,6.1943,6.2345,6.2731,6.2681,6.232,6.1818,6.1291,6.1592,6.1969,6.1994,6.2421,6.2581,6.2144,6.2044,6.1667,6.0613,5.9935,5.9382,5.8817,5.8303,5.8303,5.9257,5.8504,5.7876,5.7851,5.7311,5.642,5.4999,5.5792,5.6394,5.6445,5.7424,5.7725,5.7085,6.0765,6.3266,6.4407,6.8573,7.0759,7.0889,7.0889,7.0919,7.0979,7.1607,7.1936,7.2086,7.3343,7.3911,7.4001,7.4663,7.4903,7.4903,7.4903,7.4903,7.4903,7.4903,7.4903,7.4903,5.0766,5.0898,5.1017,5.2604,5.2895,5.2895,5.2895,5.2895,5.2895,5.2895,5.2895,5.3046,5.3482,5.3632,5.4059,5.4913,5.4988,5.5039,5.5189,5.5717,5.6018,5.6018,5.6143,5.6143,5.6018,5.6018,5.6168,5.6408,5.6897,5.7248,5.7499,5.7374,5.7524,5.7901,5.8202,5.8403,5.8554,5.9081,5.9307,5.9307,5.9433,5.9483,5.9483,5.9483,5.9483,5.9483,5.9483,5.9483,5.9558,5.9985,6.0211,6.0387,6.0839,6.1366,6.1692,6.114,6.1466,6.1918,6.1492,6.1793,6.2094,6.1667,6.1466,6.1341,6.1215,6.1291,6.1492,6.1918,6.2119,6.2295,6.2531,6.2295,6.1918,6.1642,6.0763,5.9935,5.9382,5.8855,5.8453,5.8303,5.8052,5.7725,5.7236,5.7085,5.7186,5.77,5.7976,5.8303,5.8704,5.8981,5.8679,5.7725,6.0363,6.2614,6.4372,6.7295,6.9453,7.0889,7.0889,7.1158,7.1667,7.1816,7.2445,7.3432,7.3762,7.418,7.4693,7.4843,7.4903,7.4903,7.4903,7.4903,7.4903,7.4903,7.4903,7.4903,5.1289,5.1443,5.1677,5.2723,5.2895,5.2895,5.2895,5.2895,5.2895,5.2895,5.3096,5.3381,5.3658,5.416,5.4712,5.534,5.539,5.5491,5.5742,5.6043,5.6219,5.6219,5.6219,5.6219,5.6219,5.6433,5.6835,5.7387,5.775,5.8027,5.8278,5.8278,5.8403,5.8629,5.8956,5.9081,5.9081,5.9382,5.9483,5.9483,5.9483,5.9483,5.9483,5.9483,5.9483,5.9483,5.9483,5.9659,5.991,6.0211,6.0663,6.114,6.1466,6.1943,6.232,6.2019,6.2144,6.232,6.2019,6.2144,6.2195,6.1391,6.0989,6.0713,6.0462,6.0613,6.0864,6.1165,6.1441,6.1718,6.2019,6.2044,6.1918,6.1667,6.1316,6.0814,5.9985,5.9595,5.9257,5.8704,5.8428,5.8152,5.7788,5.7537,5.7675,5.8303,5.8353,5.8579,5.9106,5.9131,5.888,5.8303,6.0353,6.2578,6.4752,6.7813,6.988,7.0889,7.1218,7.1547,7.1906,7.2535,7.3193,7.3911,7.421,7.454,7.4903,7.4903,7.4903,7.4903,7.4903,7.4903,7.4903,7.4903,7.4903,7.4903,5.0693,5.1782,5.2895,5.2895,5.2895,5.2895,5.2895,5.2895,5.292,5.2995,5.3432,5.3758,5.3934,5.4813,5.5415,5.5491,5.5516,5.5717,5.6168,5.6219,5.6219,5.6219,5.6294,5.6344,5.6344,5.6935,5.7487,5.8027,5.8102,5.8378,5.8792,5.8792,5.9081,5.9483,5.9483,5.9483,5.9483,5.9483,5.9483,5.9483,5.9483,5.9483,5.9483,5.9483,5.9483,5.9508,5.9583,5.991,6.0337,6.0512,6.1215,6.2019,6.2094,6.2446,6.2781,6.2781,6.2781,6.2781,6.2681,6.2606,6.2345,6.1316,6.0688,6.0161,5.9608,5.9859,6.0211,6.0272,6.0713,6.109,6.1165,6.1567,6.1793,6.1492,6.1692,6.1592,6.0814,6.0487,6.0136,5.9684,5.9156,5.8792,5.8792,5.8403,5.8152,5.8152,5.8152,5.8353,5.8805,5.8792,5.8792,5.8792,6.0366,6.2492,6.5151,6.8961,7.0949,7.1068,7.1607,7.2029,7.2235,7.3373,7.3941,7.4061,7.4663,7.4903,7.4903,7.4903,7.4903,7.4903,7.4903,7.4903,7.4903,7.4903,7.4903,7.4903,5.2189,5.2698,5.2895,5.2895,5.2895,5.2895,5.2895,5.2895,5.3046,5.3532,5.3658,5.4059,5.5013,5.529,5.5566,5.6043,5.6093,5.6118,5.6194,5.6219,5.6219,5.6219,5.6609,5.686,5.686,5.7888,5.8466,5.8604,5.9031,5.9282,5.9382,5.9382,5.9408,5.9483,5.9483,5.9483,5.9483,5.9483,5.9483,5.9483,5.9483,5.9483,5.9483,5.9483,5.9483,5.9558,6.001,6.0236,6.0462,6.1416,6.1868,6.2094,6.2505,6.2731,6.2781,6.2781,6.2781,6.2681,6.227,6.1793,6.1291,6.0613,6.0387,6.0161,5.9608,5.9558,5.9759,6.0211,6.0387,6.0613,6.109,6.1266,6.1592,6.2446,6.1868,6.1567,6.228,6.1176,6.0286,6.0211,5.9709,5.9382,5.9382,5.9307,5.9257,5.9257,5.9257,5.9282,5.9357,5.9382,5.9382,5.9382,5.9665,6.1562,6.5151,6.8961,7.1188,7.1727,7.1846,7.2475,7.3582,7.3791,7.421,7.4753,7.4873,7.4903,7.4903,7.4903,7.4903,7.4903,7.4903,7.4903,7.4903,7.4903,7.4903,7.4903,5.2698,5.2895,5.2895,5.2895,5.2895,5.2895,5.2895,5.3146,5.3432,5.3658,5.4235,5.4813,5.534,5.5641,5.5942,5.6194,5.6219,5.6219,5.6219,5.6219,5.6344,5.6609,5.7198,5.7863,5.8742,5.9269,5.9734,6.0035,5.9985,5.9935,5.9935,5.9633,5.9483,5.9483,5.9483,5.9483,5.9483,5.9483,5.9483,5.9483,5.9483,5.9483,5.9483,5.9483,5.9483,5.9558,6.0111,6.0512,6.0914,6.1743,6.2195,6.2496,6.2706,6.2781,6.2781,6.2781,6.2781,6.2731,6.2521,6.2044,6.1567,6.1291,6.0763,6.0261,6.001,5.9709,5.9558,5.9834,5.9885,5.996,6.0236,6.0512,6.0889,6.1351,6.1316,6.124,6.1401,6.0774,6.0211,5.991,5.9659,5.9483,5.9483,5.9483,5.9483,5.9483,5.9483,5.9483,5.9483,5.9483,5.9483,5.9483,6.149,6.3411,6.5151,6.9344,7.1577,7.1906,7.2624,7.3283,7.3911,7.427,7.4634,7.4903,7.4903,7.4903,7.4903,7.4903,7.4903,7.4903,7.4903,7.4903,7.4903,7.4903,7.4903,7.4903,5.2895,5.2895,5.2895,5.2895,5.2895,5.2895,5.2895,5.3356,5.3758,5.3884,5.4762,5.544,5.5566,5.5968,5.6219,5.6219,5.6219,5.6219,5.6219,5.647,5.6796,5.7186,5.8027,5.9106,6.0487,6.0512,6.0663,6.0989,6.0537,6.0261,6.0111,5.9684,5.9483,5.9483,5.9483,5.9483,5.9483,5.9483,5.9483,5.9483,5.9483,5.9483,5.9483,5.9483,5.9583,5.9759,6.0311,6.0889,6.1466,6.2019,6.2471,6.2781,6.2781,6.2781,6.2781,6.2781,6.2781,6.2781,6.2781,6.2521,6.2169,6.2044,6.1366,6.0663,6.0563,6.0085,5.9684,5.9684,5.9583,5.9483,5.9483,5.9834,6.0211,6.0487,6.0889,6.1065,6.0763,6.0613,6.0311,5.9759,5.9583,5.9483,5.9483,5.9483,5.9483,5.9483,5.9483,5.9483,5.9483,5.9483,5.9483,5.9483,6.3219,6.5186,6.5186,6.9636,7.1966,7.2146,7.3313,7.3971,7.4151,7.4693,7.4903,7.4903,7.4903,7.4903,7.4903,7.4903,7.4993,7.5108,7.5108,7.5198,7.5318,7.5318,7.5228,7.5108,5.2895,5.2895,5.2895,5.2895,5.2895,5.2895,5.2895,5.3356,5.3884,5.4471,5.5049,5.5591,5.6093,5.6194,5.6219,5.6219,5.6219,5.6219,5.6219,5.7198,5.7801,5.7826,5.9307,6.0437,6.1115,6.1115,6.0889,6.0387,6.0337,6.006,5.9558,5.9508,5.9483,5.9483,5.9483,5.9483,5.9483,5.9483,5.9483,5.9483,5.9483,5.9483,5.9483,5.9483,5.9809,6.0337,6.0914,6.1466,6.2019,6.2531,6.2756,6.2781,6.2781,6.2781,6.2781,6.2781,6.2781,6.2781,6.2781,6.2756,6.2606,6.2144,6.1943,6.1743,6.124,6.0663,6.0261,6.0261,5.9859,5.9483,5.9483,5.9533,5.9885,6.0939,6.1165,6.1341,6.1818,6.1441,6.0914,6.0337,5.9809,5.9483,5.9483,5.9483,5.9483,5.9483,5.9483,5.9483,5.9483,5.9483,5.9483,5.9483,6.3219,6.5186,6.5186,6.9636,7.2206,7.2834,7.3552,7.421,7.4843,7.4903,7.4903,7.4903,7.4903,7.4903,7.4903,7.4903,7.5258,7.5826,7.5826,7.6185,7.6659,7.6659,7.6335,7.5826,5.2895,5.2895,5.2895,5.2895,5.2895,5.2995,5.3356,5.3884,5.4471,5.5024,5.5541,5.5968,5.6194,5.6219,5.6219,5.6219,5.6219,5.6219,5.6219,5.7273,5.8504,5.9885,6.0839,6.1617,6.2195,6.1868,6.1592,6.1366,6.0663,6.0211,6.001,5.9659,5.9483,5.9483,5.9483,5.9483,5.9483,5.9483,5.9483,5.9483,5.9483,5.9483,5.9533,5.9885,6.0136,6.0437,6.1366,6.1818,6.2044,6.2245,6.2505,6.2731,6.2421,6.2505,6.2781,6.2781,6.2781,6.2781,6.2781,6.2781,6.2731,6.2571,6.227,6.1943,6.1743,6.0989,6.0311,6.0311,5.9885,5.9483,5.9483,5.9483,5.9633,6.006,6.0412,6.0588,6.0462,6.0563,6.0437,5.9885,5.9633,5.9483,5.9483,5.9483,5.9483,5.9483,5.9483,5.9483,5.9483,5.9483,5.9483,5.9483,6.363,6.583,6.583,7.0278,7.2864,7.3522,7.418,7.4663,7.4903,7.4903,7.5142,7.5497,7.5083,7.5142,7.5497,7.5083,7.5288,7.5916,7.5916,7.6275,7.6779,7.6779,7.6629,7.645,5.2895,5.2895,5.2895,5.2895,5.2895,5.3071,5.3632,5.4185,5.4798,5.5315,5.5867,5.6219,5.6219,5.6219,5.6219,5.6219,5.6219,5.6294,5.6433,5.7851,5.9408,6.1155,6.1868,6.2345,6.2531,6.2195,6.1818,6.1466,6.0688,6.0236,6.006,5.9684,5.9483,5.9483,5.9483,5.9483,5.9483,5.9483,5.9483,5.9483,5.9483,5.9483,5.9558,6.0111,6.0311,6.0437,6.1391,6.1743,6.1743,6.1743,6.1994,6.227,6.2069,6.2395,6.2781,6.2781,6.2781,6.2781,6.2781,6.2781,6.2781,6.2781,6.2505,6.227,6.227,6.1391,6.0588,6.0588,6.001,5.9483,5.9483,5.9483,5.9483,5.9483,6.0111,6.0387,5.9834,6.0236,6.0387,5.9809,5.9608,5.9483,5.9483,5.9483,5.9483,5.9483,5.9483,5.9483,5.9483,5.9483,5.9583,5.9759,6.3952,6.6355,6.6742,7.1037,7.3462,7.3911,7.4604,7.4903,7.4903,7.4903,7.5138,7.5557,7.5318,7.5467,7.5856,7.5377,7.5707,7.6485,7.6275,7.6694,7.7442,7.7442,7.7287,7.7108,5.2895,5.2895,5.2895,5.2895,5.2895,5.3071,5.3632,5.4245,5.4798,5.5315,5.5867,5.6219,5.6219,5.6219,5.6219,5.6219,5.6219,5.6408,5.6985,5.9068,6.0588,6.1165,6.2245,6.2531,6.2019,6.1994,6.1441,6.0311,6.0311,6.0035,5.9483,5.9483,5.9483,5.9483,5.9483,5.9483,5.9483,5.9483,5.9483,5.9483,5.9483,5.9483,5.9558,6.0111,6.0311,6.0387,6.0964,6.119,6.119,6.1165,6.119,6.1291,6.1843,6.2395,6.2781,6.2781,6.2781,6.2781,6.2781,6.2781,6.2781,6.2781,6.2781,6.2781,6.2781,6.1969,6.119,6.119,6.0286,5.9508,5.9483,5.9483,5.9483,5.9483,6.0437,6.0964,6.0387,6.0814,6.0964,6.0387,5.9834,5.9508,5.9483,5.9483,5.9483,5.9483,5.9483,5.9483,5.9483,5.9483,5.9759,6.0272,6.4166,6.6769,6.7985,7.1913,7.3881,7.3911,7.4604,7.4903,7.4903,7.4903,7.4933,7.4963,7.5617,7.5916,7.5916,7.5916,7.6664,7.7741,7.7048,7.7622,7.8789,7.8789,7.837,7.7831,5.2895,5.2895,5.2895,5.2895,5.3196,5.3658,5.4245,5.4823,5.534,5.5892,5.6118,5.6219,5.6219,5.6219,5.6219,5.6219,5.6219,5.6771,5.8089,5.991,6.0989,6.1165,6.1868,6.2169,6.1994,6.124,6.0663,6.0311,5.9935,5.9659,5.9483,5.9483,5.9483,5.9483,5.9483,5.9483,5.9483,5.9483,5.9483,5.9483,5.9483,5.9483,5.9558,6.0111,6.0311,6.0387,6.0964,6.119,6.1115,6.0713,6.0839,6.1291,6.1843,6.2395,6.2781,6.2781,6.2781,6.2781,6.2781,6.2781,6.2781,6.2781,6.2781,6.2781,6.2781,6.227,6.1642,6.1266,6.0588,5.996,5.9558,5.9483,5.9483,5.9483,6.0111,6.0512,6.0337,6.0814,6.0964,6.0387,6.0161,5.991,5.9533,5.9483,5.9483,5.9483,5.9483,5.9483,5.9483,5.9859,6.0136,6.0311,6.4942,6.7626,6.7985,7.1913,7.4121,7.4634,7.5258,7.5347,7.4933,7.5377,7.5587,7.5617,7.5826,7.6155,7.6509,7.6509,7.7053,7.7801,7.7592,7.8041,7.8789,7.8789,7.8669,7.8489,5.2895,5.2895,5.297,5.3206,5.3482,5.3959,5.4798,5.5164,5.5591,5.6143,5.6219,5.6219,5.6219,5.6219,5.6219,5.6219,5.6821,5.7826,5.9218,6.0713,6.1517,6.1517,6.1617,6.1567,6.1341,6.0663,6.0211,5.9985,5.9659,5.9483,5.9483,5.9483,5.9483,5.9483,5.9483,5.9483,5.9483,5.9483,5.9483,5.9483,5.9483,5.9483,5.9558,6.0111,6.0186,6.006,6.0638,6.0688,6.0462,6.0111,6.0537,6.124,6.1567,6.222,6.2781,6.2781,6.2781,6.2781,6.2781,6.2781,6.2781,6.2781,6.2781,6.2781,6.2781,6.2395,6.1843,6.1291,6.0713,6.0161,5.9583,5.9483,5.9483,5.9483,5.996,6.0387,6.0638,6.0964,6.104,6.0688,6.0663,6.0437,5.9885,5.9834,5.9734,5.9508,5.9483,5.9483,5.9483,6.001,6.0412,6.0663,6.5436,6.8096,6.8345,7.2292,7.448,7.4933,7.5587,7.5557,7.4933,7.5826,7.6125,7.5946,7.6425,7.6874,7.7197,7.7197,7.7592,7.816,7.7921,7.822,7.8789,7.8789,7.8789,7.8789,5.2895,5.2895,5.3046,5.3607,5.3733,5.4135,5.5214,5.544,5.5641,5.6143,5.6219,5.6219,5.6219,5.6219,5.6219,5.6219,5.7801,5.9232,6.0222,6.1416,6.2044,6.1943,6.1441,6.0889,6.0261,6.0236,6.001,5.9483,5.9483,5.9483,5.9483,5.9483,5.9483,5.9483,5.9483,5.9483,5.9483,5.9483,5.9483,5.9483,5.9483,5.9483,5.9558,6.006,5.9935,5.9558,6.006,5.991,5.9483,5.9483,6.0236,6.119,6.119,6.1943,6.2781,6.2781,6.2781,6.2781,6.2781,6.2781,6.2781,6.2781,6.2781,6.2781,6.2781,6.2446,6.1918,6.1366,6.0788,6.0211,5.9659,5.9533,5.9483,5.9483,5.991,6.0462,6.109,6.119,6.119,6.124,6.1266,6.104,6.0462,6.0322,6.0111,5.9608,5.9533,5.9483,5.9483,6.006,6.0717,6.1457,6.578,6.8419,6.915,7.2976,7.4903,7.4933,7.5587,7.5587,7.5053,7.6245,7.6479,7.6066,7.7293,7.7801,7.7801,7.7861,7.825,7.8729,7.813,7.825,7.8789,7.8789,7.8789,7.8789,5.2895,5.2895,5.3046,5.3607,5.4084,5.4647,5.529,5.5767,5.6068,5.6194,5.6219,5.6219,5.6219,5.6219,5.6219,5.6219,5.8127,5.9608,6.0286,6.1753,6.227,6.1391,6.124,6.0713,5.9684,5.9684,5.9608,5.9483,5.9483,5.9483,5.9483,5.9483,5.9483,5.9483,5.9483,5.9483,5.9483,5.9483,5.9483,5.9483,5.9483,5.9483,5.9508,5.9633,5.9608,5.9508,5.9633,5.9583,5.9483,5.9483,6.0236,6.119,6.119,6.1943,6.2781,6.2781,6.2781,6.2781,6.2781,6.2781,6.2781,6.2781,6.2781,6.2781,6.2781,6.2706,6.2496,6.1943,6.1391,6.0814,6.0261,5.9784,5.9483,5.9483,5.9583,6.0035,6.104,6.119,6.1341,6.1768,6.1818,6.1617,6.104,6.0588,6.0261,6.0161,5.9734,5.9483,5.9483,6.0437,6.1779,6.3503,6.6904,6.9532,7.1213,7.3672,7.4903,7.4933,7.5587,7.5826,7.5707,7.645,7.6719,7.6629,7.7472,7.7801,7.7861,7.837,7.8669,7.8789,7.8639,7.8669,7.8789,7.8789,7.8789,7.8789,5.2895,5.3096,5.3457,5.4009,5.4622,5.5175,5.5691,5.6018,5.6219,5.6219,5.6219,5.6219,5.6219,5.6219,5.642,5.6972,5.8529,5.9834,6.0688,6.2044,6.2345,6.124,6.119,6.0663,5.9508,5.9483,5.9483,5.9483,5.9483,5.9483,5.9483,5.9483,5.9483,5.9483,5.9483,5.9483,5.9483,5.9483,5.9483,5.9483,5.9483,5.9483,5.9483,5.9483,5.9483,5.9483,5.9483,5.9483,5.9483,5.9483,6.0236,6.119,6.119,6.1943,6.2781,6.2781,6.2781,6.2781,6.2781,6.2781,6.2781,6.2781,6.2781,6.2781,6.2781,6.2781,6.2631,6.2119,6.1567,6.1014,6.0412,5.9859,5.9483,5.9483,5.9483,5.9885,6.1014,6.119,6.1291,6.1592,6.1843,6.1692,6.0839,6.0512,6.0211,5.996,5.9659,5.9483,5.9483,6.1196,6.278,6.4166,6.7874,7.0529,7.1891,7.3882,7.4903,7.4933,7.5886,7.6335,7.633,7.7322,7.7592,7.7287,7.7981,7.828,7.831,7.8639,7.8789,7.8789,7.8789,7.8789,7.8789,7.8789,7.8789,7.8789,5.2995,5.3406,5.3909,5.4622,5.5089,5.5566,5.6118,5.6219,5.6219,5.6219,5.6219,5.6219,5.6219,5.6294,5.6771,5.7801,5.8956,6.0085,6.1115,6.222,6.2345,6.124,6.119,6.0663,5.9508,5.9483,5.9483,5.9483,5.9483,5.9483,5.9483,5.9483,5.9483,5.9483,5.9483,5.9483,5.9483,5.9483,5.9483,5.9483,5.9483,5.9483,5.9483,5.9483,5.9483,5.9483,5.9483,5.9483,5.9483,5.9483,6.0236,6.119,6.119,6.1943,6.2781,6.2781,6.2781,6.2781,6.2781,6.2781,6.2781,6.2781,6.2781,6.2781,6.2781,6.2781,6.2656,6.2245,6.1642,6.104,6.0563,5.9935,5.9483,5.9483,5.9483,5.9885,6.1014,6.109,6.1115,6.1291,6.1642,6.1492,6.0563,6.0387,6.0136,5.9659,5.9533,5.9483,5.9483,6.1517,6.3268,6.4512,6.8359,7.1022,7.2211,7.4026,7.4963,7.5078,7.6155,7.6689,7.6838,7.7951,7.828,7.8011,7.8549,7.8789,7.8789,7.8789,7.8789,7.8789,7.8789,7.8789,7.8789,7.8789,7.8789,7.8789,5.3507,5.3658,5.4034,5.5089,5.534,5.5566,5.6118,5.6219,5.6219,5.6219,5.6219,5.6219,5.6219,5.6609,5.7136,5.7851,5.9307,6.0487,6.114,6.222,6.2345,6.124,6.119,6.0663,5.9508,5.9483,5.9483,5.9483,5.9483,5.9483,5.9483,5.9483,5.9483,5.9483,5.9483,5.9483,5.9483,5.9483,5.9483,5.9483,5.9483,5.9483,5.9483,5.9483,5.9483,5.9483,5.9483,5.9483,5.9483,5.9483,6.0236,6.119,6.119,6.1943,6.2781,6.2781,6.2781,6.2781,6.2781,6.2781,6.2781,6.2781,6.2781,6.2781,6.2781,6.2781,6.2756,6.2681,6.1893,6.1205,6.109,6.0211,5.9483,5.9483,5.9483,5.9885,6.1014,6.0738,6.0814,6.1768,6.1542,6.124,6.109,6.0613,6.0286,6.0211,5.9759,5.9483,5.9483,6.0283,6.2286,6.5828,6.7515,7.0077,7.3593,7.4467,7.5168,7.5766,7.5946,7.6305,7.6808,7.6988,7.7652,7.8669,7.8759,7.8789,7.8789,7.8789,7.8789,7.8789,7.8789,7.8789,7.8789,7.8789,7.8789,7.8789,5.3607,5.3959,5.4471,5.5239,5.5641,5.5942,5.6168,5.6219,5.6219,5.6219,5.6219,5.6219,5.6219,5.6659,5.7236,5.7851,5.9382,6.0563,6.114,6.222,6.2345,6.124,6.119,6.0663,5.9508,5.9483,5.9483,5.9483,5.9483,5.9483,5.9483,5.9483,5.9483,5.9483,5.9483,5.9483,5.9483,5.9483,5.9483,5.9483,5.9483,5.9483,5.9483,5.9483,5.9483,5.9483,5.9483,5.9483,5.9483,5.9483,6.0236,6.119,6.119,6.1943,6.2781,6.2781,6.2781,6.2781,6.2781,6.2781,6.2781,6.2781,6.2781,6.2781,6.2781,6.2781,6.2706,6.238,6.1743,6.109,6.0763,6.0035,5.9483,5.9483,5.9483,5.9885,6.1014,6.0688,6.0512,6.1014,6.0588,6.0236,6.0236,6.001,5.9859,5.9859,5.9633,5.9483,5.9483,6.0737,6.2914,6.6117,6.776,7.0319,7.3847,7.454,7.5053,7.5347,7.5707,7.6245,7.6808,7.7167,7.7682,7.825,7.8639,7.8789,7.8789,7.8789,7.8789,7.8789,7.8789,7.8789,7.8789,7.8789,7.8789,7.8789]}]]